<?xml version="1.0" encoding="UTF-8" standalone="no" ?>
<gpx xmlns="http://www.topografix.com/GPX/1/1" xmlns:xsi="http://www.w3.org/2001/XMLSchema-instance" xsi:schemaLocation="http://www.topografix.com/GPX/1/1 http://www.topografix.com/GPX/1/1/gpx.xsd" version="1.1" creator="VisuGPX - https://www.visugpx.com">
  <metadata>
    <name>randonnée Paissy</name>
    <desc><![CDATA[Randonnée Paissy 10km]]></desc>
  </metadata>
  <trk>
    <name><![CDATA[Paissy]]></name>
    <desc><![CDATA[]]></desc>
    <trkseg>
      <trkpt lat="49.42305" lon="3.70882">
        <ele>222.2</ele>
        <time>2016-03-07T12:48:01.394Z</time>
      </trkpt>
      <trkpt lat="49.42305" lon="3.70882">
        <ele>222.2</ele>
        <time>2016-03-07T13:03:20.875Z</time>
      </trkpt>
      <trkpt lat="49.42269" lon="3.70874">
        <ele>223.9</ele>
        <time>2016-03-07T13:03:21.864Z</time>
      </trkpt>
      <trkpt lat="49.42265" lon="3.70875">
        <ele>224.5</ele>
        <time>2016-03-07T13:03:55.924Z</time>
      </trkpt>
      <trkpt lat="49.42231" lon="3.70893">
        <ele>226</ele>
        <time>2016-03-07T13:03:56.870Z</time>
      </trkpt>
      <trkpt lat="49.42228" lon="3.70895">
        <ele>226</ele>
        <time>2016-03-07T13:04:40.959Z</time>
      </trkpt>
      <trkpt lat="49.42195" lon="3.70873">
        <ele>225.9</ele>
        <time>2016-03-07T13:04:42.054Z</time>
      </trkpt>
      <trkpt lat="49.42193" lon="3.70869">
        <ele>225.7</ele>
        <time>2016-03-07T13:05:15.873Z</time>
      </trkpt>
      <trkpt lat="49.42172" lon="3.70822">
        <ele>225.2</ele>
        <time>2016-03-07T13:05:16.856Z</time>
      </trkpt>
      <trkpt lat="49.42171" lon="3.70818">
        <ele>225.3</ele>
        <time>2016-03-07T13:05:35.003Z</time>
      </trkpt>
      <trkpt lat="49.42166" lon="3.70788">
        <ele>226.8</ele>
        <time>2016-03-07T13:05:35.990Z</time>
      </trkpt>
      <trkpt lat="49.42165" lon="3.70775">
        <ele>227.5</ele>
        <time>2016-03-07T13:05:42.989Z</time>
      </trkpt>
      <trkpt lat="49.42164" lon="3.70772">
        <ele>227.8</ele>
        <time>2016-03-07T13:05:43.859Z</time>
      </trkpt>
      <trkpt lat="49.42164" lon="3.70766">
        <ele>228.2</ele>
        <time>2016-03-07T13:06:18.922Z</time>
      </trkpt>
      <trkpt lat="49.42158" lon="3.70711">
        <ele>228.6</ele>
        <time>2016-03-07T13:06:19.918Z</time>
      </trkpt>
      <trkpt lat="49.42157" lon="3.70705">
        <ele>227.8</ele>
        <time>2016-03-07T13:06:51.900Z</time>
      </trkpt>
      <trkpt lat="49.42138" lon="3.70658">
        <ele>227.9</ele>
        <time>2016-03-07T13:06:52.881Z</time>
      </trkpt>
      <trkpt lat="49.42136" lon="3.70654">
        <ele>227.7</ele>
        <time>2016-03-07T13:07:32.976Z</time>
      </trkpt>
      <trkpt lat="49.42114" lon="3.7061">
        <ele>225.1</ele>
        <time>2016-03-07T13:07:33.866Z</time>
      </trkpt>
      <trkpt lat="49.42108" lon="3.706">
        <ele>225</ele>
        <time>2016-03-07T13:07:41.108Z</time>
      </trkpt>
      <trkpt lat="49.42107" lon="3.70599">
        <ele>225.1</ele>
        <time>2016-03-07T13:07:41.891Z</time>
      </trkpt>
      <trkpt lat="49.42105" lon="3.70597">
        <ele>225.1</ele>
        <time>2016-03-07T13:08:13.978Z</time>
      </trkpt>
      <trkpt lat="49.42078" lon="3.7056">
        <ele>225.7</ele>
        <time>2016-03-07T13:08:14.856Z</time>
      </trkpt>
      <trkpt lat="49.42076" lon="3.70556">
        <ele>225.8</ele>
        <time>2016-03-07T13:08:44.025Z</time>
      </trkpt>
      <trkpt lat="49.42052" lon="3.70516">
        <ele>227.1</ele>
        <time>2016-03-07T13:08:44.843Z</time>
      </trkpt>
      <trkpt lat="49.42048" lon="3.7051">
        <ele>226.7</ele>
        <time>2016-03-07T13:08:51.982Z</time>
      </trkpt>
      <trkpt lat="49.42044" lon="3.70506">
        <ele>226.3</ele>
        <time>2016-03-07T13:08:52.858Z</time>
      </trkpt>
      <trkpt lat="49.42041" lon="3.70502">
        <ele>226.4</ele>
        <time>2016-03-07T13:09:26.943Z</time>
      </trkpt>
      <trkpt lat="49.42011" lon="3.7047">
        <ele>229.1</ele>
        <time>2016-03-07T13:09:27.921Z</time>
      </trkpt>
      <trkpt lat="49.42008" lon="3.70468">
        <ele>229.3</ele>
        <time>2016-03-07T13:10:02.949Z</time>
      </trkpt>
      <trkpt lat="49.41974" lon="3.70447">
        <ele>229.2</ele>
        <time>2016-03-07T13:10:03.936Z</time>
      </trkpt>
      <trkpt lat="49.41971" lon="3.70445">
        <ele>229.3</ele>
        <time>2016-03-07T13:10:36.929Z</time>
      </trkpt>
      <trkpt lat="49.41939" lon="3.70418">
        <ele>229.5</ele>
        <time>2016-03-07T13:10:37.910Z</time>
      </trkpt>
      <trkpt lat="49.41936" lon="3.70415">
        <ele>229.4</ele>
        <time>2016-03-07T13:10:50.050Z</time>
      </trkpt>
      <trkpt lat="49.41927" lon="3.70405">
        <ele>229.6</ele>
        <time>2016-03-07T13:10:50.951Z</time>
      </trkpt>
      <trkpt lat="49.41921" lon="3.70398">
        <ele>228.6</ele>
        <time>2016-03-07T13:10:56.993Z</time>
      </trkpt>
      <trkpt lat="49.41919" lon="3.70397">
        <ele>228.8</ele>
        <time>2016-03-07T13:10:57.847Z</time>
      </trkpt>
      <trkpt lat="49.41918" lon="3.70394">
        <ele>228.8</ele>
        <time>2016-03-07T13:11:21.358Z</time>
      </trkpt>
      <trkpt lat="49.419" lon="3.7037">
        <ele>230.6</ele>
        <time>2016-03-07T13:11:21.939Z</time>
      </trkpt>
      <trkpt lat="49.41898" lon="3.70365">
        <ele>230.5</ele>
        <time>2016-03-07T13:11:33.049Z</time>
      </trkpt>
      <trkpt lat="49.41891" lon="3.70354">
        <ele>230.1</ele>
        <time>2016-03-07T13:11:34.039Z</time>
      </trkpt>
      <trkpt lat="49.41886" lon="3.70344">
        <ele>229.9</ele>
        <time>2016-03-07T13:11:40.969Z</time>
      </trkpt>
      <trkpt lat="49.41885" lon="3.70343">
        <ele>229.8</ele>
        <time>2016-03-07T13:11:42.009Z</time>
      </trkpt>
      <trkpt lat="49.41881" lon="3.70332">
        <ele>229.7</ele>
        <time>2016-03-07T13:11:47.870Z</time>
      </trkpt>
      <trkpt lat="49.41881" lon="3.7033">
        <ele>229.7</ele>
        <time>2016-03-07T13:11:48.961Z</time>
      </trkpt>
      <trkpt lat="49.4188" lon="3.70329">
        <ele>229.7</ele>
        <time>2016-03-07T13:12:05.859Z</time>
      </trkpt>
      <trkpt lat="49.41871" lon="3.70301">
        <ele>230.4</ele>
        <time>2016-03-07T13:12:06.910Z</time>
      </trkpt>
      <trkpt lat="49.41869" lon="3.70298">
        <ele>230.7</ele>
        <time>2016-03-07T13:12:40.144Z</time>
      </trkpt>
      <trkpt lat="49.41845" lon="3.7026">
        <ele>230.2</ele>
        <time>2016-03-07T13:12:40.857Z</time>
      </trkpt>
      <trkpt lat="49.41841" lon="3.70256">
        <ele>230.3</ele>
        <time>2016-03-07T13:12:46.986Z</time>
      </trkpt>
      <trkpt lat="49.41837" lon="3.70251">
        <ele>229.7</ele>
        <time>2016-03-07T13:12:48.012Z</time>
      </trkpt>
      <trkpt lat="49.41835" lon="3.70247">
        <ele>229.5</ele>
        <time>2016-03-07T13:13:19.871Z</time>
      </trkpt>
      <trkpt lat="49.41805" lon="3.70216">
        <ele>226.3</ele>
        <time>2016-03-07T13:13:20.872Z</time>
      </trkpt>
      <trkpt lat="49.41802" lon="3.70214">
        <ele>225.7</ele>
        <time>2016-03-07T13:13:51.950Z</time>
      </trkpt>
      <trkpt lat="49.41771" lon="3.70185">
        <ele>229.5</ele>
        <time>2016-03-07T13:13:52.928Z</time>
      </trkpt>
      <trkpt lat="49.41765" lon="3.70181">
        <ele>229.9</ele>
        <time>2016-03-07T13:14:04.969Z</time>
      </trkpt>
      <trkpt lat="49.41758" lon="3.70174">
        <ele>229.7</ele>
        <time>2016-03-07T13:14:05.854Z</time>
      </trkpt>
      <trkpt lat="49.41755" lon="3.70171">
        <ele>229.8</ele>
        <time>2016-03-07T13:14:19.023Z</time>
      </trkpt>
      <trkpt lat="49.41746" lon="3.70162">
        <ele>229.9</ele>
        <time>2016-03-07T13:14:20.024Z</time>
      </trkpt>
      <trkpt lat="49.41741" lon="3.70159">
        <ele>231</ele>
        <time>2016-03-07T13:14:55.961Z</time>
      </trkpt>
      <trkpt lat="49.4171" lon="3.70133">
        <ele>231.7</ele>
        <time>2016-03-07T13:14:56.844Z</time>
      </trkpt>
      <trkpt lat="49.41707" lon="3.70132">
        <ele>231.4</ele>
        <time>2016-03-07T13:15:31.973Z</time>
      </trkpt>
      <trkpt lat="49.41673" lon="3.70111">
        <ele>231.5</ele>
        <time>2016-03-07T13:15:32.971Z</time>
      </trkpt>
      <trkpt lat="49.4167" lon="3.7011">
        <ele>231.6</ele>
        <time>2016-03-07T13:15:44.038Z</time>
      </trkpt>
      <trkpt lat="49.41659" lon="3.70106">
        <ele>232.8</ele>
        <time>2016-03-07T13:15:45.025Z</time>
      </trkpt>
      <trkpt lat="49.41655" lon="3.70102">
        <ele>233</ele>
        <time>2016-03-07T13:15:58.040Z</time>
      </trkpt>
      <trkpt lat="49.41644" lon="3.70095">
        <ele>232.5</ele>
        <time>2016-03-07T13:15:59.034Z</time>
      </trkpt>
      <trkpt lat="49.41642" lon="3.70092">
        <ele>232</ele>
        <time>2016-03-07T13:16:19.025Z</time>
      </trkpt>
      <trkpt lat="49.41624" lon="3.7008">
        <ele>234.9</ele>
        <time>2016-03-07T13:16:20.024Z</time>
      </trkpt>
      <trkpt lat="49.41621" lon="3.70078">
        <ele>235.2</ele>
        <time>2016-03-07T13:17:00.034Z</time>
      </trkpt>
      <trkpt lat="49.41589" lon="3.70053">
        <ele>235.4</ele>
        <time>2016-03-07T13:17:01.023Z</time>
      </trkpt>
      <trkpt lat="49.41586" lon="3.70051">
        <ele>235.3</ele>
        <time>2016-03-07T13:17:31.966Z</time>
      </trkpt>
      <trkpt lat="49.41554" lon="3.70024">
        <ele>235.2</ele>
        <time>2016-03-07T13:17:32.952Z</time>
      </trkpt>
      <trkpt lat="49.41552" lon="3.70022">
        <ele>234.9</ele>
        <time>2016-03-07T13:18:06.001Z</time>
      </trkpt>
      <trkpt lat="49.41519" lon="3.69999">
        <ele>232.1</ele>
        <time>2016-03-07T13:18:07.004Z</time>
      </trkpt>
      <trkpt lat="49.41516" lon="3.69997">
        <ele>231.4</ele>
        <time>2016-03-07T13:18:39.044Z</time>
      </trkpt>
      <trkpt lat="49.41483" lon="3.69975">
        <ele>229.9</ele>
        <time>2016-03-07T13:18:39.942Z</time>
      </trkpt>
      <trkpt lat="49.41479" lon="3.69973">
        <ele>229.8</ele>
        <time>2016-03-07T13:19:00.000Z</time>
      </trkpt>
      <trkpt lat="49.41457" lon="3.69965">
        <ele>230.2</ele>
        <time>2016-03-07T13:19:00.990Z</time>
      </trkpt>
      <trkpt lat="49.41452" lon="3.69963">
        <ele>229.6</ele>
        <time>2016-03-07T13:19:19.021Z</time>
      </trkpt>
      <trkpt lat="49.41433" lon="3.69957">
        <ele>229.6</ele>
        <time>2016-03-07T13:19:20.013Z</time>
      </trkpt>
      <trkpt lat="49.41429" lon="3.69955">
        <ele>228.9</ele>
        <time>2016-03-07T13:19:39.995Z</time>
      </trkpt>
      <trkpt lat="49.41409" lon="3.69947">
        <ele>228.2</ele>
        <time>2016-03-07T13:19:40.984Z</time>
      </trkpt>
      <trkpt lat="49.41406" lon="3.69947">
        <ele>228.5</ele>
        <time>2016-03-07T13:20:14.026Z</time>
      </trkpt>
      <trkpt lat="49.41371" lon="3.69936">
        <ele>227.8</ele>
        <time>2016-03-07T13:20:15.018Z</time>
      </trkpt>
      <trkpt lat="49.41368" lon="3.69935">
        <ele>227.1</ele>
        <time>2016-03-07T13:20:52.951Z</time>
      </trkpt>
      <trkpt lat="49.41332" lon="3.69922">
        <ele>227</ele>
        <time>2016-03-07T13:20:53.992Z</time>
      </trkpt>
      <trkpt lat="49.41324" lon="3.69919">
        <ele>227.2</ele>
        <time>2016-03-07T13:21:00.865Z</time>
      </trkpt>
      <trkpt lat="49.41323" lon="3.69919">
        <ele>227.3</ele>
        <time>2016-03-07T13:21:01.946Z</time>
      </trkpt>
      <trkpt lat="49.41322" lon="3.69919">
        <ele>227.3</ele>
        <time>2016-03-07T13:21:36.946Z</time>
      </trkpt>
      <trkpt lat="49.41294" lon="3.69907">
        <ele>221.3</ele>
        <time>2016-03-07T13:21:37.936Z</time>
      </trkpt>
      <trkpt lat="49.41286" lon="3.69906">
        <ele>220.3</ele>
        <time>2016-03-07T13:21:54.946Z</time>
      </trkpt>
      <trkpt lat="49.41277" lon="3.69902">
        <ele>218.8</ele>
        <time>2016-03-07T13:21:55.934Z</time>
      </trkpt>
      <trkpt lat="49.41273" lon="3.699">
        <ele>218.1</ele>
        <time>2016-03-07T13:22:11.052Z</time>
      </trkpt>
      <trkpt lat="49.41261" lon="3.69893">
        <ele>217</ele>
        <time>2016-03-07T13:22:12.050Z</time>
      </trkpt>
      <trkpt lat="49.41258" lon="3.69892">
        <ele>216.9</ele>
        <time>2016-03-07T13:22:58.951Z</time>
      </trkpt>
      <trkpt lat="49.41221" lon="3.69889">
        <ele>212.2</ele>
        <time>2016-03-07T13:22:59.992Z</time>
      </trkpt>
      <trkpt lat="49.4122" lon="3.69892">
        <ele>211.9</ele>
        <time>2016-03-07T13:23:37.953Z</time>
      </trkpt>
      <trkpt lat="49.41206" lon="3.69944">
        <ele>208.9</ele>
        <time>2016-03-07T13:23:38.934Z</time>
      </trkpt>
      <trkpt lat="49.41205" lon="3.69948">
        <ele>208.8</ele>
        <time>2016-03-07T13:24:16.046Z</time>
      </trkpt>
      <trkpt lat="49.41188" lon="3.69997">
        <ele>208.4</ele>
        <time>2016-03-07T13:24:16.936Z</time>
      </trkpt>
      <trkpt lat="49.41186" lon="3.70002">
        <ele>208.5</ele>
        <time>2016-03-07T13:24:50.017Z</time>
      </trkpt>
      <trkpt lat="49.41166" lon="3.70047">
        <ele>209</ele>
        <time>2016-03-07T13:24:51.012Z</time>
      </trkpt>
      <trkpt lat="49.41163" lon="3.70052">
        <ele>208.8</ele>
        <time>2016-03-07T13:25:23.044Z</time>
      </trkpt>
      <trkpt lat="49.41134" lon="3.70085">
        <ele>209.3</ele>
        <time>2016-03-07T13:25:24.046Z</time>
      </trkpt>
      <trkpt lat="49.41131" lon="3.70088">
        <ele>208.9</ele>
        <time>2016-03-07T13:25:57.027Z</time>
      </trkpt>
      <trkpt lat="49.41098" lon="3.70112">
        <ele>208.4</ele>
        <time>2016-03-07T13:25:58.016Z</time>
      </trkpt>
      <trkpt lat="49.41095" lon="3.70114">
        <ele>208</ele>
        <time>2016-03-07T13:26:34.978Z</time>
      </trkpt>
      <trkpt lat="49.41065" lon="3.70146">
        <ele>203.5</ele>
        <time>2016-03-07T13:26:35.981Z</time>
      </trkpt>
      <trkpt lat="49.41062" lon="3.70149">
        <ele>203.9</ele>
        <time>2016-03-07T13:26:44.014Z</time>
      </trkpt>
      <trkpt lat="49.41055" lon="3.70152">
        <ele>204.3</ele>
        <time>2016-03-07T13:26:46.342Z</time>
      </trkpt>
      <trkpt lat="49.4105" lon="3.70163">
        <ele>204.1</ele>
        <time>2016-03-07T13:26:56.058Z</time>
      </trkpt>
      <trkpt lat="49.4105" lon="3.70167">
        <ele>204</ele>
        <time>2016-03-07T13:26:57.002Z</time>
      </trkpt>
      <trkpt lat="49.4105" lon="3.70168">
        <ele>203.8</ele>
        <time>2016-03-07T13:27:00.069Z</time>
      </trkpt>
      <trkpt lat="49.41048" lon="3.70163">
        <ele>203.3</ele>
        <time>2016-03-07T13:27:00.942Z</time>
      </trkpt>
      <trkpt lat="49.41048" lon="3.70163">
        <ele>203.4</ele>
        <time>2016-03-07T13:30:13.021Z</time>
      </trkpt>
      <trkpt lat="49.41015" lon="3.70186">
        <ele>200.5</ele>
        <time>2016-03-07T13:30:14.015Z</time>
      </trkpt>
      <trkpt lat="49.41012" lon="3.70185">
        <ele>200.6</ele>
        <time>2016-03-07T13:30:48.001Z</time>
      </trkpt>
      <trkpt lat="49.40977" lon="3.70172">
        <ele>199.9</ele>
        <time>2016-03-07T13:30:48.993Z</time>
      </trkpt>
      <trkpt lat="49.40974" lon="3.7017">
        <ele>199.9</ele>
        <time>2016-03-07T13:31:20.939Z</time>
      </trkpt>
      <trkpt lat="49.40944" lon="3.70139">
        <ele>200.9</ele>
        <time>2016-03-07T13:31:21.954Z</time>
      </trkpt>
      <trkpt lat="49.40941" lon="3.70139">
        <ele>200.5</ele>
        <time>2016-03-07T13:32:04.937Z</time>
      </trkpt>
      <trkpt lat="49.40913" lon="3.70174">
        <ele>200.6</ele>
        <time>2016-03-07T13:32:05.984Z</time>
      </trkpt>
      <trkpt lat="49.40912" lon="3.70179">
        <ele>200.2</ele>
        <time>2016-03-07T13:32:37.954Z</time>
      </trkpt>
      <trkpt lat="49.40907" lon="3.70236">
        <ele>199</ele>
        <time>2016-03-07T13:32:38.922Z</time>
      </trkpt>
      <trkpt lat="49.40906" lon="3.70241">
        <ele>198.9</ele>
        <time>2016-03-07T13:33:13.083Z</time>
      </trkpt>
      <trkpt lat="49.40894" lon="3.70293">
        <ele>196.6</ele>
        <time>2016-03-07T13:33:14.029Z</time>
      </trkpt>
      <trkpt lat="49.40893" lon="3.70298">
        <ele>196.7</ele>
        <time>2016-03-07T13:33:22.000Z</time>
      </trkpt>
      <trkpt lat="49.40888" lon="3.70307">
        <ele>197</ele>
        <time>2016-03-07T13:33:23.022Z</time>
      </trkpt>
      <trkpt lat="49.40886" lon="3.7031">
        <ele>196.8</ele>
        <time>2016-03-07T13:34:19.967Z</time>
      </trkpt>
      <trkpt lat="49.40858" lon="3.70346">
        <ele>196.5</ele>
        <time>2016-03-07T13:34:20.956Z</time>
      </trkpt>
      <trkpt lat="49.40855" lon="3.70347">
        <ele>196.6</ele>
        <time>2016-03-07T13:34:56.018Z</time>
      </trkpt>
      <trkpt lat="49.4082" lon="3.70333">
        <ele>196.8</ele>
        <time>2016-03-07T13:34:57.014Z</time>
      </trkpt>
      <trkpt lat="49.40817" lon="3.70331">
        <ele>196.6</ele>
        <time>2016-03-07T13:35:28.945Z</time>
      </trkpt>
      <trkpt lat="49.40785" lon="3.70301">
        <ele>197</ele>
        <time>2016-03-07T13:35:30.045Z</time>
      </trkpt>
      <trkpt lat="49.40782" lon="3.70298">
        <ele>197.5</ele>
        <time>2016-03-07T13:36:02.004Z</time>
      </trkpt>
      <trkpt lat="49.40754" lon="3.70263">
        <ele>197</ele>
        <time>2016-03-07T13:36:03.000Z</time>
      </trkpt>
      <trkpt lat="49.40751" lon="3.7026">
        <ele>197.8</ele>
        <time>2016-03-07T13:36:34.052Z</time>
      </trkpt>
      <trkpt lat="49.40725" lon="3.70222">
        <ele>203.5</ele>
        <time>2016-03-07T13:36:34.944Z</time>
      </trkpt>
      <trkpt lat="49.40723" lon="3.70218">
        <ele>203</ele>
        <time>2016-03-07T13:37:06.959Z</time>
      </trkpt>
      <trkpt lat="49.40696" lon="3.70179">
        <ele>203</ele>
        <time>2016-03-07T13:37:07.948Z</time>
      </trkpt>
      <trkpt lat="49.4069" lon="3.7017">
        <ele>203.7</ele>
        <time>2016-03-07T13:37:14.024Z</time>
      </trkpt>
      <trkpt lat="49.40689" lon="3.70168">
        <ele>203.8</ele>
        <time>2016-03-07T13:37:15.029Z</time>
      </trkpt>
      <trkpt lat="49.40687" lon="3.70166">
        <ele>204</ele>
        <time>2016-03-07T13:37:48.960Z</time>
      </trkpt>
      <trkpt lat="49.40663" lon="3.70125">
        <ele>203.9</ele>
        <time>2016-03-07T13:37:49.950Z</time>
      </trkpt>
      <trkpt lat="49.40661" lon="3.70121">
        <ele>203.5</ele>
        <time>2016-03-07T13:38:16.256Z</time>
      </trkpt>
      <trkpt lat="49.40648" lon="3.7008">
        <ele>201</ele>
        <time>2016-03-07T13:38:16.942Z</time>
      </trkpt>
      <trkpt lat="49.40646" lon="3.70075">
        <ele>200.7</ele>
        <time>2016-03-07T13:38:48.036Z</time>
      </trkpt>
      <trkpt lat="49.40623" lon="3.70032">
        <ele>197.9</ele>
        <time>2016-03-07T13:38:49.023Z</time>
      </trkpt>
      <trkpt lat="49.40616" lon="3.70023">
        <ele>197.6</ele>
        <time>2016-03-07T13:38:56.024Z</time>
      </trkpt>
      <trkpt lat="49.40615" lon="3.70022">
        <ele>197.6</ele>
        <time>2016-03-07T13:38:57.025Z</time>
      </trkpt>
      <trkpt lat="49.40612" lon="3.7002">
        <ele>197.9</ele>
        <time>2016-03-07T13:39:00.089Z</time>
      </trkpt>
      <trkpt lat="49.40606" lon="3.70004">
        <ele>187.9</ele>
        <time>2016-03-07T13:39:14.099Z</time>
      </trkpt>
      <trkpt lat="49.40601" lon="3.69995">
        <ele>186.9</ele>
        <time>2016-03-07T13:39:20.007Z</time>
      </trkpt>
      <trkpt lat="49.40599" lon="3.69994">
        <ele>185.7</ele>
        <time>2016-03-07T13:39:21.000Z</time>
      </trkpt>
      <trkpt lat="49.40594" lon="3.69986">
        <ele>187.2</ele>
        <time>2016-03-07T13:39:25.991Z</time>
      </trkpt>
      <trkpt lat="49.40593" lon="3.69984">
        <ele>187.5</ele>
        <time>2016-03-07T13:39:26.967Z</time>
      </trkpt>
      <trkpt lat="49.40589" lon="3.69972">
        <ele>187.6</ele>
        <time>2016-03-07T13:39:32.948Z</time>
      </trkpt>
      <trkpt lat="49.40589" lon="3.6997">
        <ele>187.9</ele>
        <time>2016-03-07T13:39:33.928Z</time>
      </trkpt>
      <trkpt lat="49.40586" lon="3.69958">
        <ele>189</ele>
        <time>2016-03-07T13:39:39.931Z</time>
      </trkpt>
      <trkpt lat="49.40585" lon="3.69956">
        <ele>189.6</ele>
        <time>2016-03-07T13:39:40.918Z</time>
      </trkpt>
      <trkpt lat="49.40585" lon="3.69943">
        <ele>189.6</ele>
        <time>2016-03-07T13:39:47.983Z</time>
      </trkpt>
      <trkpt lat="49.40585" lon="3.69942">
        <ele>189.6</ele>
        <time>2016-03-07T13:39:49.044Z</time>
      </trkpt>
      <trkpt lat="49.40587" lon="3.69933">
        <ele>189.7</ele>
        <time>2016-03-07T13:39:54.964Z</time>
      </trkpt>
      <trkpt lat="49.40586" lon="3.69933">
        <ele>190</ele>
        <time>2016-03-07T13:39:55.950Z</time>
      </trkpt>
      <trkpt lat="49.40586" lon="3.69933">
        <ele>190</ele>
        <time>2016-03-07T13:39:55.970Z</time>
      </trkpt>
      <trkpt lat="49.40586" lon="3.69931">
        <ele>190.2</ele>
        <time>2016-03-07T13:39:56.961Z</time>
      </trkpt>
      <trkpt lat="49.40584" lon="3.69918">
        <ele>191</ele>
        <time>2016-03-07T13:40:02.033Z</time>
      </trkpt>
      <trkpt lat="49.40583" lon="3.69917">
        <ele>191.1</ele>
        <time>2016-03-07T13:40:02.920Z</time>
      </trkpt>
      <trkpt lat="49.40581" lon="3.69905">
        <ele>190.3</ele>
        <time>2016-03-07T13:40:09.029Z</time>
      </trkpt>
      <trkpt lat="49.4058" lon="3.69903">
        <ele>190.4</ele>
        <time>2016-03-07T13:40:10.004Z</time>
      </trkpt>
      <trkpt lat="49.40578" lon="3.6989">
        <ele>190.3</ele>
        <time>2016-03-07T13:40:17.026Z</time>
      </trkpt>
      <trkpt lat="49.40577" lon="3.69889">
        <ele>190.2</ele>
        <time>2016-03-07T13:40:18.011Z</time>
      </trkpt>
      <trkpt lat="49.40576" lon="3.69876">
        <ele>190.1</ele>
        <time>2016-03-07T13:40:24.950Z</time>
      </trkpt>
      <trkpt lat="49.40576" lon="3.69875">
        <ele>190.1</ele>
        <time>2016-03-07T13:40:25.951Z</time>
      </trkpt>
      <trkpt lat="49.40576" lon="3.69873">
        <ele>190.2</ele>
        <time>2016-03-07T13:40:29.004Z</time>
      </trkpt>
      <trkpt lat="49.40576" lon="3.69872">
        <ele>190.3</ele>
        <time>2016-03-07T13:40:29.995Z</time>
      </trkpt>
      <trkpt lat="49.40577" lon="3.69872">
        <ele>190.2</ele>
        <time>2016-03-07T13:40:31.931Z</time>
      </trkpt>
      <trkpt lat="49.40576" lon="3.69872">
        <ele>190.4</ele>
        <time>2016-03-07T13:40:32.936Z</time>
      </trkpt>
      <trkpt lat="49.40573" lon="3.69859">
        <ele>191.5</ele>
        <time>2016-03-07T13:40:43.088Z</time>
      </trkpt>
      <trkpt lat="49.40573" lon="3.69857">
        <ele>191.5</ele>
        <time>2016-03-07T13:40:43.982Z</time>
      </trkpt>
      <trkpt lat="49.40568" lon="3.69847">
        <ele>190</ele>
        <time>2016-03-07T13:41:02.028Z</time>
      </trkpt>
      <trkpt lat="49.40567" lon="3.69846">
        <ele>189.9</ele>
        <time>2016-03-07T13:41:03.014Z</time>
      </trkpt>
      <trkpt lat="49.40561" lon="3.69838">
        <ele>189.5</ele>
        <time>2016-03-07T13:41:13.138Z</time>
      </trkpt>
      <trkpt lat="49.4056" lon="3.69837">
        <ele>189.6</ele>
        <time>2016-03-07T13:41:13.927Z</time>
      </trkpt>
      <trkpt lat="49.40553" lon="3.69829">
        <ele>189.8</ele>
        <time>2016-03-07T13:41:21.964Z</time>
      </trkpt>
      <trkpt lat="49.40553" lon="3.69827">
        <ele>189.8</ele>
        <time>2016-03-07T13:41:22.926Z</time>
      </trkpt>
      <trkpt lat="49.40547" lon="3.69818">
        <ele>189.6</ele>
        <time>2016-03-07T13:41:31.034Z</time>
      </trkpt>
      <trkpt lat="49.40547" lon="3.69817">
        <ele>189.9</ele>
        <time>2016-03-07T13:41:31.929Z</time>
      </trkpt>
      <trkpt lat="49.40541" lon="3.69808">
        <ele>189.9</ele>
        <time>2016-03-07T13:41:40.024Z</time>
      </trkpt>
      <trkpt lat="49.4054" lon="3.69807">
        <ele>189.8</ele>
        <time>2016-03-07T13:41:41.004Z</time>
      </trkpt>
      <trkpt lat="49.40534" lon="3.69797">
        <ele>188.4</ele>
        <time>2016-03-07T13:41:50.973Z</time>
      </trkpt>
      <trkpt lat="49.40533" lon="3.69796">
        <ele>188.2</ele>
        <time>2016-03-07T13:41:51.952Z</time>
      </trkpt>
      <trkpt lat="49.40527" lon="3.69787">
        <ele>187.3</ele>
        <time>2016-03-07T13:41:59.285Z</time>
      </trkpt>
      <trkpt lat="49.40527" lon="3.69785">
        <ele>187.1</ele>
        <time>2016-03-07T13:42:00.307Z</time>
      </trkpt>
      <trkpt lat="49.40521" lon="3.69776">
        <ele>187.3</ele>
        <time>2016-03-07T13:42:07.012Z</time>
      </trkpt>
      <trkpt lat="49.4052" lon="3.69775">
        <ele>187.4</ele>
        <time>2016-03-07T13:42:08.076Z</time>
      </trkpt>
      <trkpt lat="49.40516" lon="3.69765">
        <ele>186.7</ele>
        <time>2016-03-07T13:42:16.037Z</time>
      </trkpt>
      <trkpt lat="49.40516" lon="3.69762">
        <ele>186.4</ele>
        <time>2016-03-07T13:42:16.921Z</time>
      </trkpt>
      <trkpt lat="49.40512" lon="3.69751">
        <ele>186.3</ele>
        <time>2016-03-07T13:42:23.198Z</time>
      </trkpt>
      <trkpt lat="49.40512" lon="3.69749">
        <ele>186.3</ele>
        <time>2016-03-07T13:42:23.951Z</time>
      </trkpt>
      <trkpt lat="49.40508" lon="3.69738">
        <ele>186.2</ele>
        <time>2016-03-07T13:42:30.044Z</time>
      </trkpt>
      <trkpt lat="49.40507" lon="3.69737">
        <ele>186.3</ele>
        <time>2016-03-07T13:42:31.034Z</time>
      </trkpt>
      <trkpt lat="49.40503" lon="3.69725">
        <ele>187.1</ele>
        <time>2016-03-07T13:42:37.998Z</time>
      </trkpt>
      <trkpt lat="49.40502" lon="3.69723">
        <ele>187</ele>
        <time>2016-03-07T13:42:38.983Z</time>
      </trkpt>
      <trkpt lat="49.40498" lon="3.6971">
        <ele>187</ele>
        <time>2016-03-07T13:42:45.984Z</time>
      </trkpt>
      <trkpt lat="49.40498" lon="3.69709">
        <ele>187</ele>
        <time>2016-03-07T13:42:46.978Z</time>
      </trkpt>
      <trkpt lat="49.40494" lon="3.69697">
        <ele>186.6</ele>
        <time>2016-03-07T13:42:53.964Z</time>
      </trkpt>
      <trkpt lat="49.40493" lon="3.69695">
        <ele>186.6</ele>
        <time>2016-03-07T13:42:54.963Z</time>
      </trkpt>
      <trkpt lat="49.40493" lon="3.69694">
        <ele>186.6</ele>
        <time>2016-03-07T13:42:56.002Z</time>
      </trkpt>
      <trkpt lat="49.40492" lon="3.69693">
        <ele>186.4</ele>
        <time>2016-03-07T13:42:56.987Z</time>
      </trkpt>
      <trkpt lat="49.40492" lon="3.69693">
        <ele>186.3</ele>
        <time>2016-03-07T13:42:58.026Z</time>
      </trkpt>
      <trkpt lat="49.40492" lon="3.69693">
        <ele>186.2</ele>
        <time>2016-03-07T13:42:59.003Z</time>
      </trkpt>
      <trkpt lat="49.40487" lon="3.69681">
        <ele>185.5</ele>
        <time>2016-03-07T13:43:07.999Z</time>
      </trkpt>
      <trkpt lat="49.40487" lon="3.69679">
        <ele>185.7</ele>
        <time>2016-03-07T13:43:08.976Z</time>
      </trkpt>
      <trkpt lat="49.40483" lon="3.69669">
        <ele>185.8</ele>
        <time>2016-03-07T13:43:16.043Z</time>
      </trkpt>
      <trkpt lat="49.40482" lon="3.69667">
        <ele>185.8</ele>
        <time>2016-03-07T13:43:17.005Z</time>
      </trkpt>
      <trkpt lat="49.40477" lon="3.69657">
        <ele>185.7</ele>
        <time>2016-03-07T13:43:23.967Z</time>
      </trkpt>
      <trkpt lat="49.40476" lon="3.69655">
        <ele>185.7</ele>
        <time>2016-03-07T13:43:24.955Z</time>
      </trkpt>
      <trkpt lat="49.40471" lon="3.69646">
        <ele>185.1</ele>
        <time>2016-03-07T13:43:31.944Z</time>
      </trkpt>
      <trkpt lat="49.4047" lon="3.69644">
        <ele>185</ele>
        <time>2016-03-07T13:43:32.937Z</time>
      </trkpt>
      <trkpt lat="49.40463" lon="3.69636">
        <ele>184.2</ele>
        <time>2016-03-07T13:43:40.044Z</time>
      </trkpt>
      <trkpt lat="49.40462" lon="3.69635">
        <ele>184.2</ele>
        <time>2016-03-07T13:43:40.940Z</time>
      </trkpt>
      <trkpt lat="49.40454" lon="3.69629">
        <ele>184.3</ele>
        <time>2016-03-07T13:43:47.988Z</time>
      </trkpt>
      <trkpt lat="49.40453" lon="3.69628">
        <ele>184.4</ele>
        <time>2016-03-07T13:43:48.984Z</time>
      </trkpt>
      <trkpt lat="49.40446" lon="3.69621">
        <ele>183.8</ele>
        <time>2016-03-07T13:43:55.944Z</time>
      </trkpt>
      <trkpt lat="49.40445" lon="3.6962">
        <ele>183.8</ele>
        <time>2016-03-07T13:43:56.925Z</time>
      </trkpt>
      <trkpt lat="49.40438" lon="3.69613">
        <ele>183.4</ele>
        <time>2016-03-07T13:44:05.018Z</time>
      </trkpt>
      <trkpt lat="49.40437" lon="3.69612">
        <ele>183.4</ele>
        <time>2016-03-07T13:44:06.006Z</time>
      </trkpt>
      <trkpt lat="49.4043" lon="3.69605">
        <ele>183</ele>
        <time>2016-03-07T13:44:12.985Z</time>
      </trkpt>
      <trkpt lat="49.40429" lon="3.69604">
        <ele>183.2</ele>
        <time>2016-03-07T13:44:13.972Z</time>
      </trkpt>
      <trkpt lat="49.40423" lon="3.69597">
        <ele>183.9</ele>
        <time>2016-03-07T13:44:20.965Z</time>
      </trkpt>
      <trkpt lat="49.40422" lon="3.69595">
        <ele>183.8</ele>
        <time>2016-03-07T13:44:21.943Z</time>
      </trkpt>
      <trkpt lat="49.40417" lon="3.69585">
        <ele>183.4</ele>
        <time>2016-03-07T13:44:29.035Z</time>
      </trkpt>
      <trkpt lat="49.40416" lon="3.69583">
        <ele>183.4</ele>
        <time>2016-03-07T13:44:30.012Z</time>
      </trkpt>
      <trkpt lat="49.40411" lon="3.69573">
        <ele>183.8</ele>
        <time>2016-03-07T13:44:38.017Z</time>
      </trkpt>
      <trkpt lat="49.4041" lon="3.69572">
        <ele>183.9</ele>
        <time>2016-03-07T13:44:38.989Z</time>
      </trkpt>
      <trkpt lat="49.40404" lon="3.69562">
        <ele>184</ele>
        <time>2016-03-07T13:44:46.981Z</time>
      </trkpt>
      <trkpt lat="49.40403" lon="3.69561">
        <ele>184</ele>
        <time>2016-03-07T13:44:47.960Z</time>
      </trkpt>
      <trkpt lat="49.40397" lon="3.69551">
        <ele>183.8</ele>
        <time>2016-03-07T13:44:55.052Z</time>
      </trkpt>
      <trkpt lat="49.40396" lon="3.6955">
        <ele>183.7</ele>
        <time>2016-03-07T13:44:55.928Z</time>
      </trkpt>
      <trkpt lat="49.40389" lon="3.69541">
        <ele>184.2</ele>
        <time>2016-03-07T13:45:04.019Z</time>
      </trkpt>
      <trkpt lat="49.40388" lon="3.6954">
        <ele>184.3</ele>
        <time>2016-03-07T13:45:05.009Z</time>
      </trkpt>
      <trkpt lat="49.40381" lon="3.69532">
        <ele>185</ele>
        <time>2016-03-07T13:45:13.004Z</time>
      </trkpt>
      <trkpt lat="49.4038" lon="3.69531">
        <ele>185</ele>
        <time>2016-03-07T13:45:13.994Z</time>
      </trkpt>
      <trkpt lat="49.40373" lon="3.69523">
        <ele>184.5</ele>
        <time>2016-03-07T13:45:21.029Z</time>
      </trkpt>
      <trkpt lat="49.40372" lon="3.69522">
        <ele>184.4</ele>
        <time>2016-03-07T13:45:22.007Z</time>
      </trkpt>
      <trkpt lat="49.40365" lon="3.69515">
        <ele>184.3</ele>
        <time>2016-03-07T13:45:29.012Z</time>
      </trkpt>
      <trkpt lat="49.40364" lon="3.69514">
        <ele>184.4</ele>
        <time>2016-03-07T13:45:30.006Z</time>
      </trkpt>
      <trkpt lat="49.40356" lon="3.69508">
        <ele>184.6</ele>
        <time>2016-03-07T13:45:37.947Z</time>
      </trkpt>
      <trkpt lat="49.40356" lon="3.69508">
        <ele>184.6</ele>
        <time>2016-03-07T13:45:38.932Z</time>
      </trkpt>
      <trkpt lat="49.40348" lon="3.69502">
        <ele>185.9</ele>
        <time>2016-03-07T13:45:46.958Z</time>
      </trkpt>
      <trkpt lat="49.40347" lon="3.69502">
        <ele>185.9</ele>
        <time>2016-03-07T13:45:47.948Z</time>
      </trkpt>
      <trkpt lat="49.4034" lon="3.69496">
        <ele>185.4</ele>
        <time>2016-03-07T13:45:56.958Z</time>
      </trkpt>
      <trkpt lat="49.40339" lon="3.69496">
        <ele>185.4</ele>
        <time>2016-03-07T13:45:57.938Z</time>
      </trkpt>
      <trkpt lat="49.40331" lon="3.69489">
        <ele>185.5</ele>
        <time>2016-03-07T13:46:07.043Z</time>
      </trkpt>
      <trkpt lat="49.4033" lon="3.69488">
        <ele>185.4</ele>
        <time>2016-03-07T13:46:07.928Z</time>
      </trkpt>
      <trkpt lat="49.40322" lon="3.69484">
        <ele>186.1</ele>
        <time>2016-03-07T13:46:16.037Z</time>
      </trkpt>
      <trkpt lat="49.40322" lon="3.69483">
        <ele>185.9</ele>
        <time>2016-03-07T13:46:16.925Z</time>
      </trkpt>
      <trkpt lat="49.40314" lon="3.69478">
        <ele>184.7</ele>
        <time>2016-03-07T13:46:26.018Z</time>
      </trkpt>
      <trkpt lat="49.40313" lon="3.69477">
        <ele>184.6</ele>
        <time>2016-03-07T13:46:26.996Z</time>
      </trkpt>
      <trkpt lat="49.40306" lon="3.69472">
        <ele>184.7</ele>
        <time>2016-03-07T13:46:33.957Z</time>
      </trkpt>
      <trkpt lat="49.40305" lon="3.69472">
        <ele>184.6</ele>
        <time>2016-03-07T13:46:34.930Z</time>
      </trkpt>
      <trkpt lat="49.40297" lon="3.69468">
        <ele>185.1</ele>
        <time>2016-03-07T13:46:42.036Z</time>
      </trkpt>
      <trkpt lat="49.40296" lon="3.69467">
        <ele>185.4</ele>
        <time>2016-03-07T13:46:43.028Z</time>
      </trkpt>
      <trkpt lat="49.40289" lon="3.69461">
        <ele>186.6</ele>
        <time>2016-03-07T13:46:50.013Z</time>
      </trkpt>
      <trkpt lat="49.40287" lon="3.6946">
        <ele>186.8</ele>
        <time>2016-03-07T13:46:50.989Z</time>
      </trkpt>
      <trkpt lat="49.4028" lon="3.69454">
        <ele>187.7</ele>
        <time>2016-03-07T13:46:58.027Z</time>
      </trkpt>
      <trkpt lat="49.40279" lon="3.69453">
        <ele>187.7</ele>
        <time>2016-03-07T13:46:59.005Z</time>
      </trkpt>
      <trkpt lat="49.40272" lon="3.69446">
        <ele>188.1</ele>
        <time>2016-03-07T13:47:05.994Z</time>
      </trkpt>
      <trkpt lat="49.40271" lon="3.69444">
        <ele>188.2</ele>
        <time>2016-03-07T13:47:06.975Z</time>
      </trkpt>
      <trkpt lat="49.40264" lon="3.69435">
        <ele>188.7</ele>
        <time>2016-03-07T13:47:13.941Z</time>
      </trkpt>
      <trkpt lat="49.40263" lon="3.69434">
        <ele>189.2</ele>
        <time>2016-03-07T13:47:14.932Z</time>
      </trkpt>
      <trkpt lat="49.40257" lon="3.69425">
        <ele>191</ele>
        <time>2016-03-07T13:47:22.938Z</time>
      </trkpt>
      <trkpt lat="49.40256" lon="3.69424">
        <ele>191.2</ele>
        <time>2016-03-07T13:47:23.948Z</time>
      </trkpt>
      <trkpt lat="49.4025" lon="3.69414">
        <ele>192.4</ele>
        <time>2016-03-07T13:47:32.029Z</time>
      </trkpt>
      <trkpt lat="49.4025" lon="3.69412">
        <ele>192.5</ele>
        <time>2016-03-07T13:47:33.021Z</time>
      </trkpt>
      <trkpt lat="49.40245" lon="3.69402">
        <ele>193.3</ele>
        <time>2016-03-07T13:47:40.020Z</time>
      </trkpt>
      <trkpt lat="49.40244" lon="3.69401">
        <ele>193.5</ele>
        <time>2016-03-07T13:47:41.005Z</time>
      </trkpt>
      <trkpt lat="49.40239" lon="3.69391">
        <ele>194.8</ele>
        <time>2016-03-07T13:47:49.009Z</time>
      </trkpt>
      <trkpt lat="49.40238" lon="3.6939">
        <ele>195.1</ele>
        <time>2016-03-07T13:47:49.988Z</time>
      </trkpt>
      <trkpt lat="49.40232" lon="3.69381">
        <ele>195.7</ele>
        <time>2016-03-07T13:48:02.025Z</time>
      </trkpt>
      <trkpt lat="49.40231" lon="3.6938">
        <ele>195.5</ele>
        <time>2016-03-07T13:48:03.003Z</time>
      </trkpt>
      <trkpt lat="49.40232" lon="3.69394">
        <ele>196.8</ele>
        <time>2016-03-07T13:49:33.085Z</time>
      </trkpt>
      <trkpt lat="49.40232" lon="3.69395">
        <ele>196.8</ele>
        <time>2016-03-07T13:49:34.006Z</time>
      </trkpt>
      <trkpt lat="49.40234" lon="3.69397">
        <ele>196.8</ele>
        <time>2016-03-07T13:49:41.026Z</time>
      </trkpt>
      <trkpt lat="49.40234" lon="3.69397">
        <ele>196.9</ele>
        <time>2016-03-07T13:49:41.998Z</time>
      </trkpt>
      <trkpt lat="49.40234" lon="3.69397">
        <ele>197.1</ele>
        <time>2016-03-07T13:50:19.265Z</time>
      </trkpt>
      <trkpt lat="49.40235" lon="3.69396">
        <ele>195.9</ele>
        <time>2016-03-07T13:50:19.931Z</time>
      </trkpt>
      <trkpt lat="49.40231" lon="3.69388">
        <ele>195.7</ele>
        <time>2016-03-07T13:50:28.014Z</time>
      </trkpt>
      <trkpt lat="49.40231" lon="3.69388">
        <ele>195.7</ele>
        <time>2016-03-07T13:50:29.002Z</time>
      </trkpt>
      <trkpt lat="49.40231" lon="3.69388">
        <ele>195.7</ele>
        <time>2016-03-07T13:50:29.023Z</time>
      </trkpt>
      <trkpt lat="49.4023" lon="3.69389">
        <ele>195.8</ele>
        <time>2016-03-07T13:50:30.011Z</time>
      </trkpt>
      <trkpt lat="49.4023" lon="3.69386">
        <ele>196.2</ele>
        <time>2016-03-07T13:50:35.985Z</time>
      </trkpt>
      <trkpt lat="49.4023" lon="3.69386">
        <ele>196.4</ele>
        <time>2016-03-07T13:50:37.001Z</time>
      </trkpt>
      <trkpt lat="49.4023" lon="3.69386">
        <ele>196.3</ele>
        <time>2016-03-07T13:50:50.939Z</time>
      </trkpt>
      <trkpt lat="49.40229" lon="3.69384">
        <ele>196</ele>
        <time>2016-03-07T13:50:51.936Z</time>
      </trkpt>
      <trkpt lat="49.40222" lon="3.69377">
        <ele>196.8</ele>
        <time>2016-03-07T13:51:04.994Z</time>
      </trkpt>
      <trkpt lat="49.40221" lon="3.69377">
        <ele>197.1</ele>
        <time>2016-03-07T13:51:06.985Z</time>
      </trkpt>
      <trkpt lat="49.40213" lon="3.69382">
        <ele>197.5</ele>
        <time>2016-03-07T13:51:19.002Z</time>
      </trkpt>
      <trkpt lat="49.40212" lon="3.69382">
        <ele>197.7</ele>
        <time>2016-03-07T13:51:19.978Z</time>
      </trkpt>
      <trkpt lat="49.40204" lon="3.69387">
        <ele>200.2</ele>
        <time>2016-03-07T13:51:30.042Z</time>
      </trkpt>
      <trkpt lat="49.40203" lon="3.69387">
        <ele>200.3</ele>
        <time>2016-03-07T13:51:31.032Z</time>
      </trkpt>
      <trkpt lat="49.40195" lon="3.69393">
        <ele>200.3</ele>
        <time>2016-03-07T13:51:39.974Z</time>
      </trkpt>
      <trkpt lat="49.40194" lon="3.69393">
        <ele>200.4</ele>
        <time>2016-03-07T13:51:41.001Z</time>
      </trkpt>
      <trkpt lat="49.40188" lon="3.69401">
        <ele>201.9</ele>
        <time>2016-03-07T13:51:49.035Z</time>
      </trkpt>
      <trkpt lat="49.40187" lon="3.69402">
        <ele>202.1</ele>
        <time>2016-03-07T13:51:49.943Z</time>
      </trkpt>
      <trkpt lat="49.40181" lon="3.69412">
        <ele>203.1</ele>
        <time>2016-03-07T13:51:58.012Z</time>
      </trkpt>
      <trkpt lat="49.40181" lon="3.69413">
        <ele>203.4</ele>
        <time>2016-03-07T13:51:59.001Z</time>
      </trkpt>
      <trkpt lat="49.40174" lon="3.69423">
        <ele>203.7</ele>
        <time>2016-03-07T13:52:08.029Z</time>
      </trkpt>
      <trkpt lat="49.40174" lon="3.69424">
        <ele>203.6</ele>
        <time>2016-03-07T13:52:09.007Z</time>
      </trkpt>
      <trkpt lat="49.40169" lon="3.69435">
        <ele>206.9</ele>
        <time>2016-03-07T13:54:39.981Z</time>
      </trkpt>
      <trkpt lat="49.40169" lon="3.69436">
        <ele>206.9</ele>
        <time>2016-03-07T13:54:40.963Z</time>
      </trkpt>
      <trkpt lat="49.40169" lon="3.6945">
        <ele>207.2</ele>
        <time>2016-03-07T13:54:55.000Z</time>
      </trkpt>
      <trkpt lat="49.40169" lon="3.69452">
        <ele>207.1</ele>
        <time>2016-03-07T13:54:55.985Z</time>
      </trkpt>
      <trkpt lat="49.40169" lon="3.69454">
        <ele>207</ele>
        <time>2016-03-07T13:54:58.033Z</time>
      </trkpt>
      <trkpt lat="49.40169" lon="3.69454">
        <ele>206.9</ele>
        <time>2016-03-07T13:54:59.009Z</time>
      </trkpt>
      <trkpt lat="49.40169" lon="3.69454">
        <ele>206.9</ele>
        <time>2016-03-07T13:55:01.957Z</time>
      </trkpt>
      <trkpt lat="49.40169" lon="3.69455">
        <ele>206.6</ele>
        <time>2016-03-07T13:55:02.937Z</time>
      </trkpt>
      <trkpt lat="49.40169" lon="3.69457">
        <ele>206.4</ele>
        <time>2016-03-07T13:55:05.210Z</time>
      </trkpt>
      <trkpt lat="49.40169" lon="3.69458">
        <ele>206.4</ele>
        <time>2016-03-07T13:55:05.979Z</time>
      </trkpt>
      <trkpt lat="49.40169" lon="3.69458">
        <ele>206.4</ele>
        <time>2016-03-07T13:55:16.156Z</time>
      </trkpt>
      <trkpt lat="49.40169" lon="3.69459">
        <ele>206.4</ele>
        <time>2016-03-07T13:55:16.967Z</time>
      </trkpt>
      <trkpt lat="49.40168" lon="3.69471">
        <ele>206.2</ele>
        <time>2016-03-07T13:55:25.233Z</time>
      </trkpt>
      <trkpt lat="49.40168" lon="3.69473">
        <ele>206.2</ele>
        <time>2016-03-07T13:55:25.989Z</time>
      </trkpt>
      <trkpt lat="49.40168" lon="3.69486">
        <ele>206.5</ele>
        <time>2016-03-07T13:55:33.964Z</time>
      </trkpt>
      <trkpt lat="49.40168" lon="3.69487">
        <ele>206.5</ele>
        <time>2016-03-07T13:55:34.956Z</time>
      </trkpt>
      <trkpt lat="49.40167" lon="3.695">
        <ele>206.6</ele>
        <time>2016-03-07T13:55:43.085Z</time>
      </trkpt>
      <trkpt lat="49.40167" lon="3.69502">
        <ele>206.6</ele>
        <time>2016-03-07T13:55:43.943Z</time>
      </trkpt>
      <trkpt lat="49.40167" lon="3.69515">
        <ele>206.5</ele>
        <time>2016-03-07T13:55:52.045Z</time>
      </trkpt>
      <trkpt lat="49.40167" lon="3.69517">
        <ele>206.5</ele>
        <time>2016-03-07T13:55:53.029Z</time>
      </trkpt>
      <trkpt lat="49.40167" lon="3.6953">
        <ele>206.4</ele>
        <time>2016-03-07T13:56:01.039Z</time>
      </trkpt>
      <trkpt lat="49.40167" lon="3.69532">
        <ele>206.5</ele>
        <time>2016-03-07T13:56:02.030Z</time>
      </trkpt>
      <trkpt lat="49.40167" lon="3.69545">
        <ele>207.1</ele>
        <time>2016-03-07T13:56:10.035Z</time>
      </trkpt>
      <trkpt lat="49.40167" lon="3.69546">
        <ele>207.1</ele>
        <time>2016-03-07T13:56:11.020Z</time>
      </trkpt>
      <trkpt lat="49.40168" lon="3.69559">
        <ele>207.9</ele>
        <time>2016-03-07T13:56:19.061Z</time>
      </trkpt>
      <trkpt lat="49.40168" lon="3.69561">
        <ele>208</ele>
        <time>2016-03-07T13:56:20.006Z</time>
      </trkpt>
      <trkpt lat="49.40167" lon="3.69573">
        <ele>207.8</ele>
        <time>2016-03-07T13:56:28.960Z</time>
      </trkpt>
      <trkpt lat="49.40167" lon="3.69575">
        <ele>207.9</ele>
        <time>2016-03-07T13:56:29.948Z</time>
      </trkpt>
      <trkpt lat="49.40167" lon="3.69582">
        <ele>207.9</ele>
        <time>2016-03-07T13:56:36.047Z</time>
      </trkpt>
      <trkpt lat="49.40167" lon="3.69582">
        <ele>207.9</ele>
        <time>2016-03-07T13:56:37.046Z</time>
      </trkpt>
      <trkpt lat="49.40167" lon="3.69582">
        <ele>207.8</ele>
        <time>2016-03-07T13:56:41.974Z</time>
      </trkpt>
      <trkpt lat="49.40167" lon="3.69582">
        <ele>207.5</ele>
        <time>2016-03-07T13:56:42.986Z</time>
      </trkpt>
      <trkpt lat="49.40166" lon="3.69595">
        <ele>207.4</ele>
        <time>2016-03-07T13:57:01.070Z</time>
      </trkpt>
      <trkpt lat="49.40166" lon="3.69596">
        <ele>207.4</ele>
        <time>2016-03-07T13:57:01.944Z</time>
      </trkpt>
      <trkpt lat="49.40166" lon="3.69599">
        <ele>207.7</ele>
        <time>2016-03-07T13:57:03.990Z</time>
      </trkpt>
      <trkpt lat="49.40166" lon="3.69599">
        <ele>207.6</ele>
        <time>2016-03-07T13:57:04.977Z</time>
      </trkpt>
      <trkpt lat="49.40166" lon="3.69599">
        <ele>207.6</ele>
        <time>2016-03-07T13:57:08.055Z</time>
      </trkpt>
      <trkpt lat="49.40166" lon="3.69599">
        <ele>207.6</ele>
        <time>2016-03-07T13:57:08.941Z</time>
      </trkpt>
      <trkpt lat="49.40167" lon="3.69608">
        <ele>207.6</ele>
        <time>2016-03-07T13:57:16.053Z</time>
      </trkpt>
      <trkpt lat="49.40166" lon="3.69608">
        <ele>207.5</ele>
        <time>2016-03-07T13:57:16.939Z</time>
      </trkpt>
      <trkpt lat="49.40166" lon="3.69608">
        <ele>207.5</ele>
        <time>2016-03-07T13:57:19.011Z</time>
      </trkpt>
      <trkpt lat="49.40166" lon="3.69609">
        <ele>207.5</ele>
        <time>2016-03-07T13:57:19.992Z</time>
      </trkpt>
      <trkpt lat="49.40167" lon="3.69622">
        <ele>208.7</ele>
        <time>2016-03-07T13:57:26.971Z</time>
      </trkpt>
      <trkpt lat="49.40167" lon="3.69624">
        <ele>208.8</ele>
        <time>2016-03-07T13:57:27.942Z</time>
      </trkpt>
      <trkpt lat="49.40167" lon="3.69636">
        <ele>208.8</ele>
        <time>2016-03-07T13:57:34.030Z</time>
      </trkpt>
      <trkpt lat="49.40167" lon="3.69638">
        <ele>208.8</ele>
        <time>2016-03-07T13:57:35.019Z</time>
      </trkpt>
      <trkpt lat="49.40168" lon="3.69651">
        <ele>208.9</ele>
        <time>2016-03-07T13:57:41.984Z</time>
      </trkpt>
      <trkpt lat="49.40168" lon="3.69652">
        <ele>208.9</ele>
        <time>2016-03-07T13:57:43.012Z</time>
      </trkpt>
      <trkpt lat="49.40169" lon="3.69665">
        <ele>208.8</ele>
        <time>2016-03-07T13:57:51.056Z</time>
      </trkpt>
      <trkpt lat="49.40168" lon="3.69668">
        <ele>208.4</ele>
        <time>2016-03-07T13:57:51.948Z</time>
      </trkpt>
      <trkpt lat="49.40168" lon="3.69681">
        <ele>208.5</ele>
        <time>2016-03-07T13:57:57.960Z</time>
      </trkpt>
      <trkpt lat="49.40168" lon="3.69683">
        <ele>208.4</ele>
        <time>2016-03-07T13:57:58.949Z</time>
      </trkpt>
      <trkpt lat="49.40162" lon="3.69694">
        <ele>207.3</ele>
        <time>2016-03-07T13:58:07.220Z</time>
      </trkpt>
      <trkpt lat="49.40161" lon="3.69693">
        <ele>207.3</ele>
        <time>2016-03-07T13:58:08.000Z</time>
      </trkpt>
      <trkpt lat="49.40153" lon="3.69693">
        <ele>206.7</ele>
        <time>2016-03-07T13:58:13.027Z</time>
      </trkpt>
      <trkpt lat="49.40152" lon="3.69692">
        <ele>206.8</ele>
        <time>2016-03-07T13:58:14.004Z</time>
      </trkpt>
      <trkpt lat="49.40144" lon="3.6969">
        <ele>206.9</ele>
        <time>2016-03-07T13:58:20.075Z</time>
      </trkpt>
      <trkpt lat="49.40142" lon="3.6969">
        <ele>206.8</ele>
        <time>2016-03-07T13:58:21.007Z</time>
      </trkpt>
      <trkpt lat="49.40133" lon="3.6969">
        <ele>206.2</ele>
        <time>2016-03-07T13:58:26.971Z</time>
      </trkpt>
      <trkpt lat="49.40132" lon="3.69691">
        <ele>206.2</ele>
        <time>2016-03-07T13:58:27.957Z</time>
      </trkpt>
      <trkpt lat="49.40124" lon="3.69694">
        <ele>206.7</ele>
        <time>2016-03-07T13:58:34.052Z</time>
      </trkpt>
      <trkpt lat="49.40122" lon="3.69695">
        <ele>206.7</ele>
        <time>2016-03-07T13:58:34.943Z</time>
      </trkpt>
      <trkpt lat="49.40115" lon="3.69702">
        <ele>206.6</ele>
        <time>2016-03-07T13:58:41.049Z</time>
      </trkpt>
      <trkpt lat="49.40114" lon="3.69703">
        <ele>206.4</ele>
        <time>2016-03-07T13:58:42.047Z</time>
      </trkpt>
      <trkpt lat="49.40108" lon="3.69712">
        <ele>206</ele>
        <time>2016-03-07T13:58:48.028Z</time>
      </trkpt>
      <trkpt lat="49.40107" lon="3.69713">
        <ele>206</ele>
        <time>2016-03-07T13:58:49.024Z</time>
      </trkpt>
      <trkpt lat="49.40102" lon="3.69724">
        <ele>205.3</ele>
        <time>2016-03-07T13:58:56.026Z</time>
      </trkpt>
      <trkpt lat="49.40101" lon="3.69726">
        <ele>205.1</ele>
        <time>2016-03-07T13:58:57.003Z</time>
      </trkpt>
      <trkpt lat="49.40099" lon="3.69739">
        <ele>203.2</ele>
        <time>2016-03-07T13:59:05.000Z</time>
      </trkpt>
      <trkpt lat="49.40098" lon="3.69741">
        <ele>203.1</ele>
        <time>2016-03-07T13:59:05.994Z</time>
      </trkpt>
      <trkpt lat="49.40097" lon="3.69753">
        <ele>202.5</ele>
        <time>2016-03-07T13:59:13.067Z</time>
      </trkpt>
      <trkpt lat="49.40097" lon="3.69755">
        <ele>202.5</ele>
        <time>2016-03-07T13:59:13.942Z</time>
      </trkpt>
      <trkpt lat="49.40096" lon="3.69767">
        <ele>202</ele>
        <time>2016-03-07T13:59:21.053Z</time>
      </trkpt>
      <trkpt lat="49.40096" lon="3.69769">
        <ele>202</ele>
        <time>2016-03-07T13:59:22.037Z</time>
      </trkpt>
      <trkpt lat="49.40097" lon="3.69783">
        <ele>202.1</ele>
        <time>2016-03-07T13:59:30.043Z</time>
      </trkpt>
      <trkpt lat="49.40097" lon="3.69784">
        <ele>202.2</ele>
        <time>2016-03-07T13:59:31.029Z</time>
      </trkpt>
      <trkpt lat="49.40097" lon="3.69784">
        <ele>202.2</ele>
        <time>2016-03-07T13:59:31.053Z</time>
      </trkpt>
      <trkpt lat="49.40097" lon="3.69784">
        <ele>202.2</ele>
        <time>2016-03-07T13:59:31.943Z</time>
      </trkpt>
      <trkpt lat="49.40097" lon="3.69784">
        <ele>202.2</ele>
        <time>2016-03-07T13:59:31.958Z</time>
      </trkpt>
      <trkpt lat="49.40097" lon="3.69785">
        <ele>202.2</ele>
        <time>2016-03-07T13:59:32.946Z</time>
      </trkpt>
      <trkpt lat="49.40097" lon="3.69797">
        <ele>201.1</ele>
        <time>2016-03-07T13:59:41.066Z</time>
      </trkpt>
      <trkpt lat="49.40098" lon="3.69798">
        <ele>200.9</ele>
        <time>2016-03-07T13:59:42.037Z</time>
      </trkpt>
      <trkpt lat="49.40099" lon="3.6981">
        <ele>200.5</ele>
        <time>2016-03-07T13:59:49.022Z</time>
      </trkpt>
      <trkpt lat="49.40099" lon="3.69812">
        <ele>200.7</ele>
        <time>2016-03-07T13:59:50.008Z</time>
      </trkpt>
      <trkpt lat="49.40099" lon="3.69825">
        <ele>200.3</ele>
        <time>2016-03-07T13:59:56.994Z</time>
      </trkpt>
      <trkpt lat="49.40099" lon="3.69827">
        <ele>200.1</ele>
        <time>2016-03-07T13:59:57.985Z</time>
      </trkpt>
      <trkpt lat="49.40098" lon="3.69839">
        <ele>199.5</ele>
        <time>2016-03-07T14:00:05.058Z</time>
      </trkpt>
      <trkpt lat="49.40098" lon="3.69841">
        <ele>199.5</ele>
        <time>2016-03-07T14:00:06.046Z</time>
      </trkpt>
      <trkpt lat="49.40098" lon="3.69853">
        <ele>198.9</ele>
        <time>2016-03-07T14:00:14.031Z</time>
      </trkpt>
      <trkpt lat="49.40098" lon="3.69855">
        <ele>198.9</ele>
        <time>2016-03-07T14:00:15.016Z</time>
      </trkpt>
      <trkpt lat="49.40095" lon="3.69867">
        <ele>199.1</ele>
        <time>2016-03-07T14:00:23.052Z</time>
      </trkpt>
      <trkpt lat="49.40094" lon="3.69868">
        <ele>199.3</ele>
        <time>2016-03-07T14:00:23.964Z</time>
      </trkpt>
      <trkpt lat="49.40089" lon="3.69876">
        <ele>199.2</ele>
        <time>2016-03-07T14:00:33.031Z</time>
      </trkpt>
      <trkpt lat="49.40089" lon="3.69877">
        <ele>199.3</ele>
        <time>2016-03-07T14:00:34.036Z</time>
      </trkpt>
      <trkpt lat="49.40089" lon="3.69878">
        <ele>199.5</ele>
        <time>2016-03-07T14:00:34.945Z</time>
      </trkpt>
      <trkpt lat="49.40089" lon="3.69878">
        <ele>199.6</ele>
        <time>2016-03-07T14:00:35.949Z</time>
      </trkpt>
      <trkpt lat="49.4008" lon="3.6988">
        <ele>197.8</ele>
        <time>2016-03-07T14:00:43.021Z</time>
      </trkpt>
      <trkpt lat="49.40078" lon="3.69881">
        <ele>197.7</ele>
        <time>2016-03-07T14:00:44.007Z</time>
      </trkpt>
      <trkpt lat="49.4007" lon="3.69879">
        <ele>197.1</ele>
        <time>2016-03-07T14:00:51.032Z</time>
      </trkpt>
      <trkpt lat="49.40068" lon="3.69879">
        <ele>197.1</ele>
        <time>2016-03-07T14:00:52.021Z</time>
      </trkpt>
      <trkpt lat="49.40066" lon="3.69866">
        <ele>194.9</ele>
        <time>2016-03-07T14:01:01.037Z</time>
      </trkpt>
      <trkpt lat="49.40066" lon="3.69865">
        <ele>194.8</ele>
        <time>2016-03-07T14:01:02.023Z</time>
      </trkpt>
      <trkpt lat="49.40064" lon="3.69853">
        <ele>194.6</ele>
        <time>2016-03-07T14:01:09.040Z</time>
      </trkpt>
      <trkpt lat="49.40064" lon="3.69851">
        <ele>194.5</ele>
        <time>2016-03-07T14:01:10.030Z</time>
      </trkpt>
      <trkpt lat="49.40062" lon="3.6984">
        <ele>193.8</ele>
        <time>2016-03-07T14:01:16.082Z</time>
      </trkpt>
      <trkpt lat="49.40062" lon="3.69838">
        <ele>193.6</ele>
        <time>2016-03-07T14:01:16.946Z</time>
      </trkpt>
      <trkpt lat="49.40059" lon="3.69825">
        <ele>192.9</ele>
        <time>2016-03-07T14:01:25.036Z</time>
      </trkpt>
      <trkpt lat="49.40058" lon="3.69823">
        <ele>192.8</ele>
        <time>2016-03-07T14:01:25.944Z</time>
      </trkpt>
      <trkpt lat="49.40056" lon="3.69811">
        <ele>192.3</ele>
        <time>2016-03-07T14:01:37.024Z</time>
      </trkpt>
      <trkpt lat="49.40056" lon="3.69809">
        <ele>192</ele>
        <time>2016-03-07T14:01:37.995Z</time>
      </trkpt>
      <trkpt lat="49.40055" lon="3.69796">
        <ele>191</ele>
        <time>2016-03-07T14:01:46.023Z</time>
      </trkpt>
      <trkpt lat="49.40055" lon="3.69795">
        <ele>190.9</ele>
        <time>2016-03-07T14:01:47.008Z</time>
      </trkpt>
      <trkpt lat="49.40055" lon="3.69782">
        <ele>191.1</ele>
        <time>2016-03-07T14:01:53.980Z</time>
      </trkpt>
      <trkpt lat="49.40055" lon="3.6978">
        <ele>190.8</ele>
        <time>2016-03-07T14:01:54.985Z</time>
      </trkpt>
      <trkpt lat="49.40056" lon="3.69767">
        <ele>189.7</ele>
        <time>2016-03-07T14:02:03.997Z</time>
      </trkpt>
      <trkpt lat="49.40056" lon="3.69766">
        <ele>189.7</ele>
        <time>2016-03-07T14:02:04.976Z</time>
      </trkpt>
      <trkpt lat="49.40058" lon="3.69752">
        <ele>189.3</ele>
        <time>2016-03-07T14:02:14.004Z</time>
      </trkpt>
      <trkpt lat="49.40059" lon="3.69751">
        <ele>189.3</ele>
        <time>2016-03-07T14:02:14.994Z</time>
      </trkpt>
      <trkpt lat="49.4006" lon="3.69738">
        <ele>188.9</ele>
        <time>2016-03-07T14:02:23.028Z</time>
      </trkpt>
      <trkpt lat="49.4006" lon="3.69736">
        <ele>188.8</ele>
        <time>2016-03-07T14:02:24.023Z</time>
      </trkpt>
      <trkpt lat="49.40061" lon="3.69723">
        <ele>189</ele>
        <time>2016-03-07T14:02:32.026Z</time>
      </trkpt>
      <trkpt lat="49.40061" lon="3.69721">
        <ele>189</ele>
        <time>2016-03-07T14:02:33.000Z</time>
      </trkpt>
      <trkpt lat="49.40063" lon="3.69709">
        <ele>189</ele>
        <time>2016-03-07T14:02:40.990Z</time>
      </trkpt>
      <trkpt lat="49.40063" lon="3.69707">
        <ele>189</ele>
        <time>2016-03-07T14:02:41.973Z</time>
      </trkpt>
      <trkpt lat="49.40064" lon="3.69694">
        <ele>189.2</ele>
        <time>2016-03-07T14:02:49.998Z</time>
      </trkpt>
      <trkpt lat="49.40064" lon="3.69692">
        <ele>189.1</ele>
        <time>2016-03-07T14:02:50.980Z</time>
      </trkpt>
      <trkpt lat="49.40066" lon="3.6968">
        <ele>188.6</ele>
        <time>2016-03-07T14:02:57.970Z</time>
      </trkpt>
      <trkpt lat="49.40066" lon="3.69679">
        <ele>188.2</ele>
        <time>2016-03-07T14:02:58.956Z</time>
      </trkpt>
      <trkpt lat="49.40068" lon="3.69666">
        <ele>187.7</ele>
        <time>2016-03-07T14:03:07.056Z</time>
      </trkpt>
      <trkpt lat="49.40068" lon="3.69665">
        <ele>187.6</ele>
        <time>2016-03-07T14:03:07.927Z</time>
      </trkpt>
      <trkpt lat="49.40069" lon="3.69653">
        <ele>188</ele>
        <time>2016-03-07T14:03:14.934Z</time>
      </trkpt>
      <trkpt lat="49.4007" lon="3.69651">
        <ele>188.1</ele>
        <time>2016-03-07T14:03:15.943Z</time>
      </trkpt>
      <trkpt lat="49.40071" lon="3.69638">
        <ele>188.3</ele>
        <time>2016-03-07T14:03:23.007Z</time>
      </trkpt>
      <trkpt lat="49.40071" lon="3.69636">
        <ele>188.2</ele>
        <time>2016-03-07T14:03:24.008Z</time>
      </trkpt>
      <trkpt lat="49.40073" lon="3.69624">
        <ele>187.4</ele>
        <time>2016-03-07T14:03:31.002Z</time>
      </trkpt>
      <trkpt lat="49.40073" lon="3.69623">
        <ele>187.5</ele>
        <time>2016-03-07T14:03:31.994Z</time>
      </trkpt>
      <trkpt lat="49.40073" lon="3.6961">
        <ele>188.2</ele>
        <time>2016-03-07T14:03:38.966Z</time>
      </trkpt>
      <trkpt lat="49.40073" lon="3.69609">
        <ele>188.4</ele>
        <time>2016-03-07T14:03:39.963Z</time>
      </trkpt>
      <trkpt lat="49.40073" lon="3.69596">
        <ele>188.1</ele>
        <time>2016-03-07T14:03:46.982Z</time>
      </trkpt>
      <trkpt lat="49.40074" lon="3.69594">
        <ele>188.1</ele>
        <time>2016-03-07T14:03:47.972Z</time>
      </trkpt>
      <trkpt lat="49.40075" lon="3.69581">
        <ele>189</ele>
        <time>2016-03-07T14:03:55.042Z</time>
      </trkpt>
      <trkpt lat="49.40075" lon="3.69579">
        <ele>189</ele>
        <time>2016-03-07T14:03:55.939Z</time>
      </trkpt>
      <trkpt lat="49.40078" lon="3.69567">
        <ele>190.3</ele>
        <time>2016-03-07T14:04:02.957Z</time>
      </trkpt>
      <trkpt lat="49.40078" lon="3.69565">
        <ele>190.9</ele>
        <time>2016-03-07T14:04:03.943Z</time>
      </trkpt>
      <trkpt lat="49.40077" lon="3.69552">
        <ele>193.4</ele>
        <time>2016-03-07T14:04:09.012Z</time>
      </trkpt>
      <trkpt lat="49.40077" lon="3.6955">
        <ele>193.5</ele>
        <time>2016-03-07T14:04:10.013Z</time>
      </trkpt>
      <trkpt lat="49.40074" lon="3.69537">
        <ele>192.9</ele>
        <time>2016-03-07T14:04:18.005Z</time>
      </trkpt>
      <trkpt lat="49.40073" lon="3.69536">
        <ele>192.9</ele>
        <time>2016-03-07T14:04:18.986Z</time>
      </trkpt>
      <trkpt lat="49.4007" lon="3.69524">
        <ele>190.8</ele>
        <time>2016-03-07T14:04:26.957Z</time>
      </trkpt>
      <trkpt lat="49.4007" lon="3.69523">
        <ele>190.4</ele>
        <time>2016-03-07T14:04:27.957Z</time>
      </trkpt>
      <trkpt lat="49.40067" lon="3.69511">
        <ele>188.6</ele>
        <time>2016-03-07T14:04:35.978Z</time>
      </trkpt>
      <trkpt lat="49.40067" lon="3.6951">
        <ele>188.4</ele>
        <time>2016-03-07T14:04:36.995Z</time>
      </trkpt>
      <trkpt lat="49.40063" lon="3.69497">
        <ele>187.7</ele>
        <time>2016-03-07T14:04:45.029Z</time>
      </trkpt>
      <trkpt lat="49.40062" lon="3.69496">
        <ele>187.7</ele>
        <time>2016-03-07T14:04:46.014Z</time>
      </trkpt>
      <trkpt lat="49.40059" lon="3.69483">
        <ele>188.2</ele>
        <time>2016-03-07T14:04:54.004Z</time>
      </trkpt>
      <trkpt lat="49.40059" lon="3.69482">
        <ele>188.3</ele>
        <time>2016-03-07T14:04:55.093Z</time>
      </trkpt>
      <trkpt lat="49.40058" lon="3.69468">
        <ele>186.6</ele>
        <time>2016-03-07T14:05:03.025Z</time>
      </trkpt>
      <trkpt lat="49.40058" lon="3.69467">
        <ele>186.7</ele>
        <time>2016-03-07T14:05:04.012Z</time>
      </trkpt>
      <trkpt lat="49.40057" lon="3.69454">
        <ele>185.2</ele>
        <time>2016-03-07T14:05:11.002Z</time>
      </trkpt>
      <trkpt lat="49.40057" lon="3.69453">
        <ele>185.1</ele>
        <time>2016-03-07T14:05:11.987Z</time>
      </trkpt>
      <trkpt lat="49.40055" lon="3.69439">
        <ele>184.3</ele>
        <time>2016-03-07T14:05:19.075Z</time>
      </trkpt>
      <trkpt lat="49.40055" lon="3.69437">
        <ele>184.3</ele>
        <time>2016-03-07T14:05:19.949Z</time>
      </trkpt>
      <trkpt lat="49.40053" lon="3.69425">
        <ele>183.6</ele>
        <time>2016-03-07T14:05:31.073Z</time>
      </trkpt>
      <trkpt lat="49.40053" lon="3.69424">
        <ele>183.6</ele>
        <time>2016-03-07T14:05:31.948Z</time>
      </trkpt>
      <trkpt lat="49.40051" lon="3.69411">
        <ele>183</ele>
        <time>2016-03-07T14:05:39.972Z</time>
      </trkpt>
      <trkpt lat="49.40051" lon="3.6941">
        <ele>182.9</ele>
        <time>2016-03-07T14:05:40.990Z</time>
      </trkpt>
      <trkpt lat="49.40049" lon="3.69396">
        <ele>182.5</ele>
        <time>2016-03-07T14:05:49.001Z</time>
      </trkpt>
      <trkpt lat="49.40049" lon="3.69395">
        <ele>182.4</ele>
        <time>2016-03-07T14:05:49.999Z</time>
      </trkpt>
      <trkpt lat="49.40048" lon="3.69381">
        <ele>181.8</ele>
        <time>2016-03-07T14:05:57.996Z</time>
      </trkpt>
      <trkpt lat="49.40048" lon="3.6938">
        <ele>181.8</ele>
        <time>2016-03-07T14:05:58.980Z</time>
      </trkpt>
      <trkpt lat="49.40046" lon="3.69367">
        <ele>180.9</ele>
        <time>2016-03-07T14:06:05.974Z</time>
      </trkpt>
      <trkpt lat="49.40046" lon="3.69366">
        <ele>180.8</ele>
        <time>2016-03-07T14:06:06.989Z</time>
      </trkpt>
      <trkpt lat="49.40045" lon="3.69352">
        <ele>180.4</ele>
        <time>2016-03-07T14:06:14.986Z</time>
      </trkpt>
      <trkpt lat="49.40045" lon="3.69351">
        <ele>180.4</ele>
        <time>2016-03-07T14:06:15.993Z</time>
      </trkpt>
      <trkpt lat="49.40042" lon="3.69338">
        <ele>180</ele>
        <time>2016-03-07T14:06:23.969Z</time>
      </trkpt>
      <trkpt lat="49.40042" lon="3.69337">
        <ele>180</ele>
        <time>2016-03-07T14:06:24.984Z</time>
      </trkpt>
      <trkpt lat="49.4004" lon="3.69324">
        <ele>180.1</ele>
        <time>2016-03-07T14:06:33.011Z</time>
      </trkpt>
      <trkpt lat="49.4004" lon="3.69323">
        <ele>180.2</ele>
        <time>2016-03-07T14:06:34.011Z</time>
      </trkpt>
      <trkpt lat="49.40038" lon="3.69311">
        <ele>180.1</ele>
        <time>2016-03-07T14:06:41.992Z</time>
      </trkpt>
      <trkpt lat="49.40038" lon="3.69309">
        <ele>180.3</ele>
        <time>2016-03-07T14:06:42.989Z</time>
      </trkpt>
      <trkpt lat="49.40036" lon="3.69296">
        <ele>180.8</ele>
        <time>2016-03-07T14:06:50.010Z</time>
      </trkpt>
      <trkpt lat="49.40036" lon="3.69295">
        <ele>180.7</ele>
        <time>2016-03-07T14:06:51.015Z</time>
      </trkpt>
      <trkpt lat="49.40033" lon="3.69281">
        <ele>181.4</ele>
        <time>2016-03-07T14:06:58.997Z</time>
      </trkpt>
      <trkpt lat="49.40033" lon="3.69279">
        <ele>181.3</ele>
        <time>2016-03-07T14:06:59.992Z</time>
      </trkpt>
      <trkpt lat="49.40032" lon="3.69268">
        <ele>182</ele>
        <time>2016-03-07T14:07:05.990Z</time>
      </trkpt>
      <trkpt lat="49.40032" lon="3.69266">
        <ele>182.1</ele>
        <time>2016-03-07T14:07:06.989Z</time>
      </trkpt>
      <trkpt lat="49.40031" lon="3.69253">
        <ele>182.6</ele>
        <time>2016-03-07T14:07:13.979Z</time>
      </trkpt>
      <trkpt lat="49.40031" lon="3.69251">
        <ele>182.9</ele>
        <time>2016-03-07T14:07:14.947Z</time>
      </trkpt>
      <trkpt lat="49.4003" lon="3.69237">
        <ele>182.2</ele>
        <time>2016-03-07T14:07:23.047Z</time>
      </trkpt>
      <trkpt lat="49.4003" lon="3.69235">
        <ele>182.1</ele>
        <time>2016-03-07T14:07:24.039Z</time>
      </trkpt>
      <trkpt lat="49.40027" lon="3.69223">
        <ele>182.4</ele>
        <time>2016-03-07T14:07:33.032Z</time>
      </trkpt>
      <trkpt lat="49.40027" lon="3.69221">
        <ele>182.3</ele>
        <time>2016-03-07T14:07:34.024Z</time>
      </trkpt>
      <trkpt lat="49.40026" lon="3.69209">
        <ele>181.7</ele>
        <time>2016-03-07T14:07:43.008Z</time>
      </trkpt>
      <trkpt lat="49.40025" lon="3.69207">
        <ele>181.7</ele>
        <time>2016-03-07T14:07:43.988Z</time>
      </trkpt>
      <trkpt lat="49.40024" lon="3.69194">
        <ele>182</ele>
        <time>2016-03-07T14:07:49.962Z</time>
      </trkpt>
      <trkpt lat="49.40023" lon="3.69192">
        <ele>181.9</ele>
        <time>2016-03-07T14:07:50.947Z</time>
      </trkpt>
      <trkpt lat="49.40021" lon="3.6918">
        <ele>181.1</ele>
        <time>2016-03-07T14:07:57.018Z</time>
      </trkpt>
      <trkpt lat="49.40021" lon="3.69178">
        <ele>180.9</ele>
        <time>2016-03-07T14:07:58.014Z</time>
      </trkpt>
      <trkpt lat="49.40019" lon="3.69166">
        <ele>179.9</ele>
        <time>2016-03-07T14:08:03.963Z</time>
      </trkpt>
      <trkpt lat="49.40019" lon="3.69164">
        <ele>180</ele>
        <time>2016-03-07T14:08:04.955Z</time>
      </trkpt>
      <trkpt lat="49.40018" lon="3.6915">
        <ele>180</ele>
        <time>2016-03-07T14:08:11.023Z</time>
      </trkpt>
      <trkpt lat="49.40018" lon="3.69148">
        <ele>180</ele>
        <time>2016-03-07T14:08:12.028Z</time>
      </trkpt>
      <trkpt lat="49.40018" lon="3.69136">
        <ele>180.8</ele>
        <time>2016-03-07T14:08:17.012Z</time>
      </trkpt>
      <trkpt lat="49.40017" lon="3.69133">
        <ele>181</ele>
        <time>2016-03-07T14:08:17.995Z</time>
      </trkpt>
      <trkpt lat="49.40016" lon="3.6912">
        <ele>182.2</ele>
        <time>2016-03-07T14:08:23.045Z</time>
      </trkpt>
      <trkpt lat="49.40016" lon="3.69119">
        <ele>182.1</ele>
        <time>2016-03-07T14:08:23.951Z</time>
      </trkpt>
      <trkpt lat="49.40015" lon="3.69105">
        <ele>181.5</ele>
        <time>2016-03-07T14:08:30.024Z</time>
      </trkpt>
      <trkpt lat="49.40015" lon="3.69103">
        <ele>181.4</ele>
        <time>2016-03-07T14:08:31.004Z</time>
      </trkpt>
      <trkpt lat="49.40013" lon="3.69092">
        <ele>181.5</ele>
        <time>2016-03-07T14:08:37.001Z</time>
      </trkpt>
      <trkpt lat="49.40012" lon="3.69089">
        <ele>181.8</ele>
        <time>2016-03-07T14:08:37.991Z</time>
      </trkpt>
      <trkpt lat="49.40011" lon="3.69076">
        <ele>181.5</ele>
        <time>2016-03-07T14:08:43.049Z</time>
      </trkpt>
      <trkpt lat="49.4001" lon="3.69074">
        <ele>181.3</ele>
        <time>2016-03-07T14:08:43.946Z</time>
      </trkpt>
      <trkpt lat="49.40009" lon="3.69062">
        <ele>180.7</ele>
        <time>2016-03-07T14:08:50.022Z</time>
      </trkpt>
      <trkpt lat="49.40008" lon="3.6906">
        <ele>180.6</ele>
        <time>2016-03-07T14:08:51.011Z</time>
      </trkpt>
      <trkpt lat="49.40007" lon="3.69048">
        <ele>180</ele>
        <time>2016-03-07T14:08:57.981Z</time>
      </trkpt>
      <trkpt lat="49.40006" lon="3.69045">
        <ele>180</ele>
        <time>2016-03-07T14:08:58.980Z</time>
      </trkpt>
      <trkpt lat="49.40004" lon="3.69032">
        <ele>179.6</ele>
        <time>2016-03-07T14:09:04.959Z</time>
      </trkpt>
      <trkpt lat="49.40004" lon="3.6903">
        <ele>179.6</ele>
        <time>2016-03-07T14:09:05.949Z</time>
      </trkpt>
      <trkpt lat="49.40001" lon="3.69018">
        <ele>180.5</ele>
        <time>2016-03-07T14:09:12.058Z</time>
      </trkpt>
      <trkpt lat="49.40001" lon="3.69016">
        <ele>180.5</ele>
        <time>2016-03-07T14:09:13.030Z</time>
      </trkpt>
      <trkpt lat="49.39999" lon="3.69004">
        <ele>179.9</ele>
        <time>2016-03-07T14:09:19.005Z</time>
      </trkpt>
      <trkpt lat="49.39999" lon="3.69002">
        <ele>179.8</ele>
        <time>2016-03-07T14:09:20.005Z</time>
      </trkpt>
      <trkpt lat="49.39998" lon="3.68989">
        <ele>178.8</ele>
        <time>2016-03-07T14:09:27.008Z</time>
      </trkpt>
      <trkpt lat="49.39998" lon="3.68986">
        <ele>178.6</ele>
        <time>2016-03-07T14:09:27.954Z</time>
      </trkpt>
      <trkpt lat="49.39995" lon="3.68974">
        <ele>178.9</ele>
        <time>2016-03-07T14:09:34.032Z</time>
      </trkpt>
      <trkpt lat="49.39995" lon="3.68972">
        <ele>178.7</ele>
        <time>2016-03-07T14:09:35.020Z</time>
      </trkpt>
      <trkpt lat="49.39994" lon="3.6896">
        <ele>178.6</ele>
        <time>2016-03-07T14:09:40.990Z</time>
      </trkpt>
      <trkpt lat="49.39993" lon="3.68958">
        <ele>178.5</ele>
        <time>2016-03-07T14:09:41.973Z</time>
      </trkpt>
      <trkpt lat="49.39992" lon="3.68946">
        <ele>179.1</ele>
        <time>2016-03-07T14:09:47.039Z</time>
      </trkpt>
      <trkpt lat="49.39992" lon="3.68943">
        <ele>179.1</ele>
        <time>2016-03-07T14:09:48.029Z</time>
      </trkpt>
      <trkpt lat="49.39989" lon="3.68931">
        <ele>179.2</ele>
        <time>2016-03-07T14:09:56.278Z</time>
      </trkpt>
      <trkpt lat="49.39989" lon="3.68929">
        <ele>179.2</ele>
        <time>2016-03-07T14:09:57.020Z</time>
      </trkpt>
      <trkpt lat="49.39986" lon="3.68916">
        <ele>178.6</ele>
        <time>2016-03-07T14:10:02.977Z</time>
      </trkpt>
      <trkpt lat="49.39985" lon="3.68913">
        <ele>178.5</ele>
        <time>2016-03-07T14:10:03.970Z</time>
      </trkpt>
      <trkpt lat="49.39983" lon="3.68901">
        <ele>178</ele>
        <time>2016-03-07T14:10:10.029Z</time>
      </trkpt>
      <trkpt lat="49.39982" lon="3.68898">
        <ele>178.1</ele>
        <time>2016-03-07T14:10:11.016Z</time>
      </trkpt>
      <trkpt lat="49.3998" lon="3.68887">
        <ele>178.8</ele>
        <time>2016-03-07T14:10:15.991Z</time>
      </trkpt>
      <trkpt lat="49.39979" lon="3.68885">
        <ele>178.8</ele>
        <time>2016-03-07T14:10:16.976Z</time>
      </trkpt>
      <trkpt lat="49.39977" lon="3.68872">
        <ele>178.8</ele>
        <time>2016-03-07T14:10:23.049Z</time>
      </trkpt>
      <trkpt lat="49.39977" lon="3.6887">
        <ele>178.6</ele>
        <time>2016-03-07T14:10:24.032Z</time>
      </trkpt>
      <trkpt lat="49.39973" lon="3.68859">
        <ele>179.2</ele>
        <time>2016-03-07T14:10:29.026Z</time>
      </trkpt>
      <trkpt lat="49.39972" lon="3.68857">
        <ele>179.1</ele>
        <time>2016-03-07T14:10:30.016Z</time>
      </trkpt>
      <trkpt lat="49.39969" lon="3.68844">
        <ele>179.1</ele>
        <time>2016-03-07T14:10:36.031Z</time>
      </trkpt>
      <trkpt lat="49.39969" lon="3.68842">
        <ele>179.2</ele>
        <time>2016-03-07T14:10:36.996Z</time>
      </trkpt>
      <trkpt lat="49.39966" lon="3.68829">
        <ele>179.1</ele>
        <time>2016-03-07T14:10:43.000Z</time>
      </trkpt>
      <trkpt lat="49.39966" lon="3.68827">
        <ele>179.2</ele>
        <time>2016-03-07T14:10:43.996Z</time>
      </trkpt>
      <trkpt lat="49.39963" lon="3.68816">
        <ele>179.6</ele>
        <time>2016-03-07T14:10:48.993Z</time>
      </trkpt>
      <trkpt lat="49.39962" lon="3.68814">
        <ele>179.7</ele>
        <time>2016-03-07T14:10:49.993Z</time>
      </trkpt>
      <trkpt lat="49.39958" lon="3.68804">
        <ele>179.8</ele>
        <time>2016-03-07T14:10:55.080Z</time>
      </trkpt>
      <trkpt lat="49.39957" lon="3.68802">
        <ele>179.8</ele>
        <time>2016-03-07T14:10:55.943Z</time>
      </trkpt>
      <trkpt lat="49.39953" lon="3.68792">
        <ele>179.6</ele>
        <time>2016-03-07T14:11:02.029Z</time>
      </trkpt>
      <trkpt lat="49.39953" lon="3.6879">
        <ele>179.5</ele>
        <time>2016-03-07T14:11:03.012Z</time>
      </trkpt>
      <trkpt lat="49.39949" lon="3.68778">
        <ele>179</ele>
        <time>2016-03-07T14:11:09.015Z</time>
      </trkpt>
      <trkpt lat="49.39949" lon="3.68776">
        <ele>178.9</ele>
        <time>2016-03-07T14:11:10.014Z</time>
      </trkpt>
      <trkpt lat="49.39945" lon="3.68765">
        <ele>179.3</ele>
        <time>2016-03-07T14:11:15.969Z</time>
      </trkpt>
      <trkpt lat="49.39945" lon="3.68763">
        <ele>179.3</ele>
        <time>2016-03-07T14:11:16.963Z</time>
      </trkpt>
      <trkpt lat="49.39942" lon="3.6875">
        <ele>179.3</ele>
        <time>2016-03-07T14:11:24.043Z</time>
      </trkpt>
      <trkpt lat="49.39942" lon="3.68748">
        <ele>179.4</ele>
        <time>2016-03-07T14:11:25.043Z</time>
      </trkpt>
      <trkpt lat="49.39941" lon="3.68736">
        <ele>180.5</ele>
        <time>2016-03-07T14:11:31.042Z</time>
      </trkpt>
      <trkpt lat="49.39941" lon="3.68734">
        <ele>180.5</ele>
        <time>2016-03-07T14:11:32.019Z</time>
      </trkpt>
      <trkpt lat="49.39941" lon="3.6872">
        <ele>181.1</ele>
        <time>2016-03-07T14:11:38.018Z</time>
      </trkpt>
      <trkpt lat="49.3994" lon="3.68718">
        <ele>181.1</ele>
        <time>2016-03-07T14:11:39.013Z</time>
      </trkpt>
      <trkpt lat="49.39939" lon="3.68706">
        <ele>181.5</ele>
        <time>2016-03-07T14:11:45.019Z</time>
      </trkpt>
      <trkpt lat="49.39939" lon="3.68704">
        <ele>181.4</ele>
        <time>2016-03-07T14:11:45.994Z</time>
      </trkpt>
      <trkpt lat="49.39936" lon="3.68691">
        <ele>181.4</ele>
        <time>2016-03-07T14:11:54.002Z</time>
      </trkpt>
      <trkpt lat="49.39936" lon="3.68689">
        <ele>181.2</ele>
        <time>2016-03-07T14:11:54.990Z</time>
      </trkpt>
      <trkpt lat="49.39933" lon="3.68677">
        <ele>180.9</ele>
        <time>2016-03-07T14:12:01.071Z</time>
      </trkpt>
      <trkpt lat="49.39933" lon="3.68675">
        <ele>180.9</ele>
        <time>2016-03-07T14:12:01.945Z</time>
      </trkpt>
      <trkpt lat="49.39929" lon="3.68662">
        <ele>181.2</ele>
        <time>2016-03-07T14:12:08.037Z</time>
      </trkpt>
      <trkpt lat="49.39929" lon="3.6866">
        <ele>181.3</ele>
        <time>2016-03-07T14:12:09.026Z</time>
      </trkpt>
      <trkpt lat="49.39925" lon="3.68649">
        <ele>181.4</ele>
        <time>2016-03-07T14:12:15.031Z</time>
      </trkpt>
      <trkpt lat="49.39925" lon="3.68647">
        <ele>181.4</ele>
        <time>2016-03-07T14:12:16.030Z</time>
      </trkpt>
      <trkpt lat="49.3992" lon="3.68636">
        <ele>181.9</ele>
        <time>2016-03-07T14:12:22.969Z</time>
      </trkpt>
      <trkpt lat="49.39919" lon="3.68634">
        <ele>181.9</ele>
        <time>2016-03-07T14:12:23.959Z</time>
      </trkpt>
      <trkpt lat="49.39916" lon="3.68624">
        <ele>182.1</ele>
        <time>2016-03-07T14:12:29.043Z</time>
      </trkpt>
      <trkpt lat="49.39915" lon="3.68622">
        <ele>182.2</ele>
        <time>2016-03-07T14:12:29.951Z</time>
      </trkpt>
      <trkpt lat="49.39911" lon="3.6861">
        <ele>182.6</ele>
        <time>2016-03-07T14:12:36.013Z</time>
      </trkpt>
      <trkpt lat="49.3991" lon="3.68608">
        <ele>182.8</ele>
        <time>2016-03-07T14:12:36.997Z</time>
      </trkpt>
      <trkpt lat="49.39904" lon="3.68597">
        <ele>183.4</ele>
        <time>2016-03-07T14:12:43.087Z</time>
      </trkpt>
      <trkpt lat="49.39904" lon="3.68595">
        <ele>183.5</ele>
        <time>2016-03-07T14:12:43.947Z</time>
      </trkpt>
      <trkpt lat="49.39899" lon="3.68583">
        <ele>184.2</ele>
        <time>2016-03-07T14:12:49.006Z</time>
      </trkpt>
      <trkpt lat="49.39899" lon="3.68581">
        <ele>184.2</ele>
        <time>2016-03-07T14:12:50.010Z</time>
      </trkpt>
      <trkpt lat="49.39893" lon="3.6857">
        <ele>184</ele>
        <time>2016-03-07T14:12:56.020Z</time>
      </trkpt>
      <trkpt lat="49.39892" lon="3.68569">
        <ele>183.9</ele>
        <time>2016-03-07T14:12:57.016Z</time>
      </trkpt>
      <trkpt lat="49.39886" lon="3.68559">
        <ele>182.8</ele>
        <time>2016-03-07T14:13:04.046Z</time>
      </trkpt>
      <trkpt lat="49.39885" lon="3.68558">
        <ele>182.6</ele>
        <time>2016-03-07T14:13:05.030Z</time>
      </trkpt>
      <trkpt lat="49.3988" lon="3.68548">
        <ele>182.3</ele>
        <time>2016-03-07T14:13:10.970Z</time>
      </trkpt>
      <trkpt lat="49.39879" lon="3.68546">
        <ele>182.3</ele>
        <time>2016-03-07T14:13:11.966Z</time>
      </trkpt>
      <trkpt lat="49.39874" lon="3.68537">
        <ele>182.7</ele>
        <time>2016-03-07T14:13:17.996Z</time>
      </trkpt>
      <trkpt lat="49.39873" lon="3.68535">
        <ele>182.9</ele>
        <time>2016-03-07T14:13:18.997Z</time>
      </trkpt>
      <trkpt lat="49.39867" lon="3.68525">
        <ele>183.7</ele>
        <time>2016-03-07T14:13:25.078Z</time>
      </trkpt>
      <trkpt lat="49.39866" lon="3.68524">
        <ele>183.8</ele>
        <time>2016-03-07T14:13:25.948Z</time>
      </trkpt>
      <trkpt lat="49.39859" lon="3.68514">
        <ele>184.9</ele>
        <time>2016-03-07T14:13:33.050Z</time>
      </trkpt>
      <trkpt lat="49.39859" lon="3.68513">
        <ele>185.2</ele>
        <time>2016-03-07T14:13:33.944Z</time>
      </trkpt>
      <trkpt lat="49.39859" lon="3.6851">
        <ele>185.5</ele>
        <time>2016-03-07T14:13:37.008Z</time>
      </trkpt>
      <trkpt lat="49.39859" lon="3.6851">
        <ele>185.4</ele>
        <time>2016-03-07T14:13:37.996Z</time>
      </trkpt>
      <trkpt lat="49.39859" lon="3.68509">
        <ele>185.5</ele>
        <time>2016-03-07T14:14:34.951Z</time>
      </trkpt>
      <trkpt lat="49.39859" lon="3.68508">
        <ele>186.2</ele>
        <time>2016-03-07T14:14:35.950Z</time>
      </trkpt>
      <trkpt lat="49.3986" lon="3.68508">
        <ele>186.2</ele>
        <time>2016-03-07T14:14:37.961Z</time>
      </trkpt>
      <trkpt lat="49.3986" lon="3.68508">
        <ele>186.2</ele>
        <time>2016-03-07T14:14:38.951Z</time>
      </trkpt>
      <trkpt lat="49.3986" lon="3.68508">
        <ele>186.2</ele>
        <time>2016-03-07T14:14:38.982Z</time>
      </trkpt>
      <trkpt lat="49.3986" lon="3.68508">
        <ele>186.1</ele>
        <time>2016-03-07T14:14:39.952Z</time>
      </trkpt>
      <trkpt lat="49.39857" lon="3.68497">
        <ele>186.7</ele>
        <time>2016-03-07T14:17:29.064Z</time>
      </trkpt>
      <trkpt lat="49.39856" lon="3.68495">
        <ele>186.7</ele>
        <time>2016-03-07T14:17:30.028Z</time>
      </trkpt>
      <trkpt lat="49.39853" lon="3.68484">
        <ele>185.9</ele>
        <time>2016-03-07T14:17:38.069Z</time>
      </trkpt>
      <trkpt lat="49.39853" lon="3.68483">
        <ele>185.9</ele>
        <time>2016-03-07T14:17:39.028Z</time>
      </trkpt>
      <trkpt lat="49.3985" lon="3.68471">
        <ele>187.2</ele>
        <time>2016-03-07T14:17:48.050Z</time>
      </trkpt>
      <trkpt lat="49.3985" lon="3.68469">
        <ele>187.3</ele>
        <time>2016-03-07T14:17:49.034Z</time>
      </trkpt>
      <trkpt lat="49.39847" lon="3.68457">
        <ele>188.1</ele>
        <time>2016-03-07T14:17:56.035Z</time>
      </trkpt>
      <trkpt lat="49.39846" lon="3.68456">
        <ele>188.1</ele>
        <time>2016-03-07T14:17:57.029Z</time>
      </trkpt>
      <trkpt lat="49.39845" lon="3.68442">
        <ele>188.7</ele>
        <time>2016-03-07T14:18:05.032Z</time>
      </trkpt>
      <trkpt lat="49.39845" lon="3.68441">
        <ele>188.7</ele>
        <time>2016-03-07T14:18:06.022Z</time>
      </trkpt>
      <trkpt lat="49.39842" lon="3.68428">
        <ele>189.4</ele>
        <time>2016-03-07T14:18:14.023Z</time>
      </trkpt>
      <trkpt lat="49.39842" lon="3.68426">
        <ele>189.3</ele>
        <time>2016-03-07T14:18:15.008Z</time>
      </trkpt>
      <trkpt lat="49.39838" lon="3.68414">
        <ele>189.2</ele>
        <time>2016-03-07T14:18:22.043Z</time>
      </trkpt>
      <trkpt lat="49.39838" lon="3.68412">
        <ele>189.1</ele>
        <time>2016-03-07T14:18:23.043Z</time>
      </trkpt>
      <trkpt lat="49.39833" lon="3.68401">
        <ele>188.9</ele>
        <time>2016-03-07T14:18:29.978Z</time>
      </trkpt>
      <trkpt lat="49.39832" lon="3.68399">
        <ele>189</ele>
        <time>2016-03-07T14:18:30.987Z</time>
      </trkpt>
      <trkpt lat="49.39828" lon="3.68388">
        <ele>189.1</ele>
        <time>2016-03-07T14:18:38.977Z</time>
      </trkpt>
      <trkpt lat="49.39827" lon="3.68387">
        <ele>189.1</ele>
        <time>2016-03-07T14:18:39.962Z</time>
      </trkpt>
      <trkpt lat="49.39823" lon="3.68375">
        <ele>188.9</ele>
        <time>2016-03-07T14:18:47.433Z</time>
      </trkpt>
      <trkpt lat="49.39823" lon="3.68374">
        <ele>188.9</ele>
        <time>2016-03-07T14:18:48.439Z</time>
      </trkpt>
      <trkpt lat="49.39818" lon="3.68363">
        <ele>188.9</ele>
        <time>2016-03-07T14:18:55.503Z</time>
      </trkpt>
      <trkpt lat="49.39817" lon="3.68361">
        <ele>188.9</ele>
        <time>2016-03-07T14:18:56.382Z</time>
      </trkpt>
      <trkpt lat="49.39812" lon="3.68351">
        <ele>188.4</ele>
        <time>2016-03-07T14:19:03.403Z</time>
      </trkpt>
      <trkpt lat="49.39812" lon="3.68349">
        <ele>188.1</ele>
        <time>2016-03-07T14:19:04.400Z</time>
      </trkpt>
      <trkpt lat="49.39807" lon="3.68339">
        <ele>187.2</ele>
        <time>2016-03-07T14:19:11.423Z</time>
      </trkpt>
      <trkpt lat="49.39807" lon="3.68337">
        <ele>187.2</ele>
        <time>2016-03-07T14:19:12.409Z</time>
      </trkpt>
      <trkpt lat="49.39803" lon="3.68326">
        <ele>186.9</ele>
        <time>2016-03-07T14:19:19.557Z</time>
      </trkpt>
      <trkpt lat="49.39802" lon="3.68325">
        <ele>186.9</ele>
        <time>2016-03-07T14:19:20.395Z</time>
      </trkpt>
      <trkpt lat="49.39798" lon="3.68314">
        <ele>186.4</ele>
        <time>2016-03-07T14:19:27.480Z</time>
      </trkpt>
      <trkpt lat="49.39798" lon="3.68312">
        <ele>186.3</ele>
        <time>2016-03-07T14:19:28.382Z</time>
      </trkpt>
      <trkpt lat="49.39794" lon="3.68301">
        <ele>186.1</ele>
        <time>2016-03-07T14:19:35.397Z</time>
      </trkpt>
      <trkpt lat="49.39794" lon="3.68299">
        <ele>186.2</ele>
        <time>2016-03-07T14:19:36.406Z</time>
      </trkpt>
      <trkpt lat="49.39791" lon="3.68287">
        <ele>185.9</ele>
        <time>2016-03-07T14:19:43.509Z</time>
      </trkpt>
      <trkpt lat="49.39791" lon="3.68286">
        <ele>185.9</ele>
        <time>2016-03-07T14:19:44.387Z</time>
      </trkpt>
      <trkpt lat="49.39789" lon="3.68274">
        <ele>185.4</ele>
        <time>2016-03-07T14:19:51.409Z</time>
      </trkpt>
      <trkpt lat="49.39789" lon="3.68272">
        <ele>185.3</ele>
        <time>2016-03-07T14:19:52.380Z</time>
      </trkpt>
      <trkpt lat="49.39788" lon="3.6826">
        <ele>185.2</ele>
        <time>2016-03-07T14:19:59.432Z</time>
      </trkpt>
      <trkpt lat="49.39788" lon="3.68258">
        <ele>185.3</ele>
        <time>2016-03-07T14:20:00.380Z</time>
      </trkpt>
      <trkpt lat="49.39788" lon="3.68245">
        <ele>185</ele>
        <time>2016-03-07T14:20:07.426Z</time>
      </trkpt>
      <trkpt lat="49.39788" lon="3.68244">
        <ele>184.9</ele>
        <time>2016-03-07T14:20:08.434Z</time>
      </trkpt>
      <trkpt lat="49.39788" lon="3.68232">
        <ele>184.4</ele>
        <time>2016-03-07T14:20:15.452Z</time>
      </trkpt>
      <trkpt lat="49.39788" lon="3.6823">
        <ele>184.4</ele>
        <time>2016-03-07T14:20:16.452Z</time>
      </trkpt>
      <trkpt lat="49.39788" lon="3.68217">
        <ele>183.6</ele>
        <time>2016-03-07T14:20:23.398Z</time>
      </trkpt>
      <trkpt lat="49.39788" lon="3.68215">
        <ele>183.4</ele>
        <time>2016-03-07T14:20:24.391Z</time>
      </trkpt>
      <trkpt lat="49.39787" lon="3.68203">
        <ele>183.3</ele>
        <time>2016-03-07T14:20:31.491Z</time>
      </trkpt>
      <trkpt lat="49.39787" lon="3.68202">
        <ele>183.2</ele>
        <time>2016-03-07T14:20:32.379Z</time>
      </trkpt>
      <trkpt lat="49.39785" lon="3.68189">
        <ele>182.9</ele>
        <time>2016-03-07T14:20:39.456Z</time>
      </trkpt>
      <trkpt lat="49.39785" lon="3.68187">
        <ele>182.8</ele>
        <time>2016-03-07T14:20:40.449Z</time>
      </trkpt>
      <trkpt lat="49.39782" lon="3.68176">
        <ele>182.1</ele>
        <time>2016-03-07T14:20:47.482Z</time>
      </trkpt>
      <trkpt lat="49.39781" lon="3.68174">
        <ele>182.2</ele>
        <time>2016-03-07T14:20:48.381Z</time>
      </trkpt>
      <trkpt lat="49.39778" lon="3.68163">
        <ele>181.6</ele>
        <time>2016-03-07T14:20:55.439Z</time>
      </trkpt>
      <trkpt lat="49.39777" lon="3.68161">
        <ele>181.6</ele>
        <time>2016-03-07T14:20:56.616Z</time>
      </trkpt>
      <trkpt lat="49.39775" lon="3.6815">
        <ele>181.3</ele>
        <time>2016-03-07T14:21:02.463Z</time>
      </trkpt>
      <trkpt lat="49.39773" lon="3.68148">
        <ele>181.3</ele>
        <time>2016-03-07T14:21:03.452Z</time>
      </trkpt>
      <trkpt lat="49.3977" lon="3.68137">
        <ele>181.7</ele>
        <time>2016-03-07T14:21:08.442Z</time>
      </trkpt>
      <trkpt lat="49.3977" lon="3.68135">
        <ele>181.8</ele>
        <time>2016-03-07T14:21:09.437Z</time>
      </trkpt>
      <trkpt lat="49.39766" lon="3.68125">
        <ele>182.9</ele>
        <time>2016-03-07T14:21:14.395Z</time>
      </trkpt>
      <trkpt lat="49.39765" lon="3.68123">
        <ele>182.9</ele>
        <time>2016-03-07T14:21:15.386Z</time>
      </trkpt>
      <trkpt lat="49.39761" lon="3.68111">
        <ele>182.5</ele>
        <time>2016-03-07T14:21:22.472Z</time>
      </trkpt>
      <trkpt lat="49.3976" lon="3.6811">
        <ele>182.1</ele>
        <time>2016-03-07T14:21:23.459Z</time>
      </trkpt>
      <trkpt lat="49.39756" lon="3.68098">
        <ele>181</ele>
        <time>2016-03-07T14:21:32.446Z</time>
      </trkpt>
      <trkpt lat="49.39756" lon="3.68096">
        <ele>181</ele>
        <time>2016-03-07T14:21:33.438Z</time>
      </trkpt>
      <trkpt lat="49.39753" lon="3.68084">
        <ele>180.8</ele>
        <time>2016-03-07T14:21:41.424Z</time>
      </trkpt>
      <trkpt lat="49.39753" lon="3.68083">
        <ele>180.7</ele>
        <time>2016-03-07T14:21:42.418Z</time>
      </trkpt>
      <trkpt lat="49.39751" lon="3.68071">
        <ele>180.5</ele>
        <time>2016-03-07T14:21:49.470Z</time>
      </trkpt>
      <trkpt lat="49.39751" lon="3.68069">
        <ele>180.3</ele>
        <time>2016-03-07T14:21:50.461Z</time>
      </trkpt>
      <trkpt lat="49.39749" lon="3.68056">
        <ele>179.5</ele>
        <time>2016-03-07T14:21:56.484Z</time>
      </trkpt>
      <trkpt lat="49.39749" lon="3.68054">
        <ele>179.5</ele>
        <time>2016-03-07T14:21:57.395Z</time>
      </trkpt>
      <trkpt lat="49.39747" lon="3.68041">
        <ele>179.7</ele>
        <time>2016-03-07T14:22:06.381Z</time>
      </trkpt>
      <trkpt lat="49.39747" lon="3.68039">
        <ele>179.6</ele>
        <time>2016-03-07T14:22:07.427Z</time>
      </trkpt>
      <trkpt lat="49.39747" lon="3.68036">
        <ele>179.5</ele>
        <time>2016-03-07T14:22:10.400Z</time>
      </trkpt>
      <trkpt lat="49.39747" lon="3.68035">
        <ele>179.5</ele>
        <time>2016-03-07T14:22:11.391Z</time>
      </trkpt>
      <trkpt lat="49.39747" lon="3.68035">
        <ele>179.5</ele>
        <time>2016-03-07T14:22:11.411Z</time>
      </trkpt>
      <trkpt lat="49.39747" lon="3.68033">
        <ele>179.4</ele>
        <time>2016-03-07T14:22:12.408Z</time>
      </trkpt>
      <trkpt lat="49.39747" lon="3.68021">
        <ele>179.1</ele>
        <time>2016-03-07T14:22:18.391Z</time>
      </trkpt>
      <trkpt lat="49.39747" lon="3.68018">
        <ele>179.2</ele>
        <time>2016-03-07T14:22:19.414Z</time>
      </trkpt>
      <trkpt lat="49.39746" lon="3.68007">
        <ele>179.1</ele>
        <time>2016-03-07T14:22:24.419Z</time>
      </trkpt>
      <trkpt lat="49.39746" lon="3.68004">
        <ele>179.2</ele>
        <time>2016-03-07T14:22:25.428Z</time>
      </trkpt>
      <trkpt lat="49.39744" lon="3.67992">
        <ele>178.9</ele>
        <time>2016-03-07T14:22:30.481Z</time>
      </trkpt>
      <trkpt lat="49.39744" lon="3.6799">
        <ele>179</ele>
        <time>2016-03-07T14:22:31.471Z</time>
      </trkpt>
      <trkpt lat="49.39741" lon="3.67976">
        <ele>178.5</ele>
        <time>2016-03-07T14:22:37.464Z</time>
      </trkpt>
      <trkpt lat="49.39741" lon="3.67974">
        <ele>178.5</ele>
        <time>2016-03-07T14:22:38.445Z</time>
      </trkpt>
      <trkpt lat="49.3974" lon="3.67961">
        <ele>177.7</ele>
        <time>2016-03-07T14:22:44.449Z</time>
      </trkpt>
      <trkpt lat="49.39739" lon="3.67958">
        <ele>177.6</ele>
        <time>2016-03-07T14:22:45.424Z</time>
      </trkpt>
      <trkpt lat="49.39736" lon="3.67946">
        <ele>177.7</ele>
        <time>2016-03-07T14:22:50.388Z</time>
      </trkpt>
      <trkpt lat="49.39735" lon="3.67944">
        <ele>177.9</ele>
        <time>2016-03-07T14:22:51.401Z</time>
      </trkpt>
      <trkpt lat="49.39733" lon="3.67931">
        <ele>178.7</ele>
        <time>2016-03-07T14:22:57.383Z</time>
      </trkpt>
      <trkpt lat="49.39733" lon="3.67929">
        <ele>178.7</ele>
        <time>2016-03-07T14:22:58.377Z</time>
      </trkpt>
      <trkpt lat="49.3973" lon="3.67918">
        <ele>178</ele>
        <time>2016-03-07T14:23:04.475Z</time>
      </trkpt>
      <trkpt lat="49.39729" lon="3.67916">
        <ele>178</ele>
        <time>2016-03-07T14:23:05.458Z</time>
      </trkpt>
      <trkpt lat="49.39725" lon="3.67904">
        <ele>176.4</ele>
        <time>2016-03-07T14:23:12.442Z</time>
      </trkpt>
      <trkpt lat="49.39724" lon="3.67902">
        <ele>176.2</ele>
        <time>2016-03-07T14:23:13.426Z</time>
      </trkpt>
      <trkpt lat="49.39721" lon="3.6789">
        <ele>175.2</ele>
        <time>2016-03-07T14:23:19.437Z</time>
      </trkpt>
      <trkpt lat="49.3972" lon="3.67888">
        <ele>175</ele>
        <time>2016-03-07T14:23:20.418Z</time>
      </trkpt>
      <trkpt lat="49.39716" lon="3.67875">
        <ele>173.9</ele>
        <time>2016-03-07T14:23:27.418Z</time>
      </trkpt>
      <trkpt lat="49.39715" lon="3.67874">
        <ele>173.6</ele>
        <time>2016-03-07T14:23:28.402Z</time>
      </trkpt>
      <trkpt lat="49.39711" lon="3.67862">
        <ele>171.7</ele>
        <time>2016-03-07T14:23:36.420Z</time>
      </trkpt>
      <trkpt lat="49.39711" lon="3.6786">
        <ele>171.4</ele>
        <time>2016-03-07T14:23:37.424Z</time>
      </trkpt>
      <trkpt lat="49.39708" lon="3.67848">
        <ele>170.4</ele>
        <time>2016-03-07T14:23:43.443Z</time>
      </trkpt>
      <trkpt lat="49.39707" lon="3.67847">
        <ele>170.5</ele>
        <time>2016-03-07T14:23:44.439Z</time>
      </trkpt>
      <trkpt lat="49.39704" lon="3.67835">
        <ele>169.8</ele>
        <time>2016-03-07T14:23:51.460Z</time>
      </trkpt>
      <trkpt lat="49.39703" lon="3.67834">
        <ele>169.8</ele>
        <time>2016-03-07T14:23:52.449Z</time>
      </trkpt>
      <trkpt lat="49.39699" lon="3.67822">
        <ele>169.1</ele>
        <time>2016-03-07T14:23:59.362Z</time>
      </trkpt>
      <trkpt lat="49.39699" lon="3.67821">
        <ele>168.9</ele>
        <time>2016-03-07T14:24:00.372Z</time>
      </trkpt>
      <trkpt lat="49.39695" lon="3.67809">
        <ele>167.7</ele>
        <time>2016-03-07T14:24:07.579Z</time>
      </trkpt>
      <trkpt lat="49.39694" lon="3.67807">
        <ele>167.8</ele>
        <time>2016-03-07T14:24:08.363Z</time>
      </trkpt>
      <trkpt lat="49.39691" lon="3.67797">
        <ele>167.4</ele>
        <time>2016-03-07T14:24:14.467Z</time>
      </trkpt>
      <trkpt lat="49.3969" lon="3.67795">
        <ele>167.3</ele>
        <time>2016-03-07T14:24:15.444Z</time>
      </trkpt>
      <trkpt lat="49.39686" lon="3.67783">
        <ele>166.5</ele>
        <time>2016-03-07T14:24:22.454Z</time>
      </trkpt>
      <trkpt lat="49.39685" lon="3.67782">
        <ele>166.6</ele>
        <time>2016-03-07T14:24:23.437Z</time>
      </trkpt>
      <trkpt lat="49.3968" lon="3.67771">
        <ele>166.3</ele>
        <time>2016-03-07T14:24:30.444Z</time>
      </trkpt>
      <trkpt lat="49.39679" lon="3.6777">
        <ele>166.2</ele>
        <time>2016-03-07T14:24:31.410Z</time>
      </trkpt>
      <trkpt lat="49.39673" lon="3.67763">
        <ele>166.8</ele>
        <time>2016-03-07T14:24:37.507Z</time>
      </trkpt>
      <trkpt lat="49.39672" lon="3.67761">
        <ele>166.9</ele>
        <time>2016-03-07T14:24:38.367Z</time>
      </trkpt>
      <trkpt lat="49.39665" lon="3.67755">
        <ele>166.8</ele>
        <time>2016-03-07T14:24:45.466Z</time>
      </trkpt>
      <trkpt lat="49.39664" lon="3.67754">
        <ele>166.6</ele>
        <time>2016-03-07T14:24:46.370Z</time>
      </trkpt>
      <trkpt lat="49.39656" lon="3.67748">
        <ele>165.7</ele>
        <time>2016-03-07T14:24:54.474Z</time>
      </trkpt>
      <trkpt lat="49.39656" lon="3.67747">
        <ele>165.9</ele>
        <time>2016-03-07T14:24:55.464Z</time>
      </trkpt>
      <trkpt lat="49.39655" lon="3.67746">
        <ele>166</ele>
        <time>2016-03-07T14:24:57.392Z</time>
      </trkpt>
      <trkpt lat="49.39655" lon="3.67745">
        <ele>166.2</ele>
        <time>2016-03-07T14:24:58.382Z</time>
      </trkpt>
      <trkpt lat="49.39655" lon="3.67745">
        <ele>166.2</ele>
        <time>2016-03-07T14:24:58.406Z</time>
      </trkpt>
      <trkpt lat="49.39655" lon="3.67745">
        <ele>166.3</ele>
        <time>2016-03-07T14:24:59.398Z</time>
      </trkpt>
      <trkpt lat="49.39653" lon="3.67745">
        <ele>166.3</ele>
        <time>2016-03-07T14:25:01.474Z</time>
      </trkpt>
      <trkpt lat="49.39653" lon="3.67745">
        <ele>166.7</ele>
        <time>2016-03-07T14:25:02.454Z</time>
      </trkpt>
      <trkpt lat="49.39653" lon="3.67745">
        <ele>166.7</ele>
        <time>2016-03-07T14:25:02.472Z</time>
      </trkpt>
      <trkpt lat="49.39653" lon="3.67746">
        <ele>165.8</ele>
        <time>2016-03-07T14:25:03.366Z</time>
      </trkpt>
      <trkpt lat="49.39654" lon="3.67747">
        <ele>165.1</ele>
        <time>2016-03-07T14:25:38.459Z</time>
      </trkpt>
      <trkpt lat="49.39654" lon="3.67747">
        <ele>164.9</ele>
        <time>2016-03-07T14:25:39.455Z</time>
      </trkpt>
      <trkpt lat="49.39654" lon="3.67747">
        <ele>164.9</ele>
        <time>2016-03-07T14:25:39.496Z</time>
      </trkpt>
      <trkpt lat="49.39654" lon="3.67746">
        <ele>165</ele>
        <time>2016-03-07T14:25:40.490Z</time>
      </trkpt>
      <trkpt lat="49.39646" lon="3.67744">
        <ele>162.3</ele>
        <time>2016-03-07T14:26:19.472Z</time>
      </trkpt>
      <trkpt lat="49.39645" lon="3.67744">
        <ele>162.3</ele>
        <time>2016-03-07T14:26:20.375Z</time>
      </trkpt>
      <trkpt lat="49.39645" lon="3.67744">
        <ele>162.3</ele>
        <time>2016-03-07T14:26:20.400Z</time>
      </trkpt>
      <trkpt lat="49.39645" lon="3.67744">
        <ele>162.5</ele>
        <time>2016-03-07T14:26:21.371Z</time>
      </trkpt>
      <trkpt lat="49.39645" lon="3.67743">
        <ele>162.4</ele>
        <time>2016-03-07T14:27:20.426Z</time>
      </trkpt>
      <trkpt lat="49.39648" lon="3.67739">
        <ele>164.5</ele>
        <time>2016-03-07T14:27:21.426Z</time>
      </trkpt>
      <trkpt lat="49.39648" lon="3.67739">
        <ele>164.5</ele>
        <time>2016-03-07T14:27:21.458Z</time>
      </trkpt>
      <trkpt lat="49.39647" lon="3.67738">
        <ele>164.4</ele>
        <time>2016-03-07T14:27:22.456Z</time>
      </trkpt>
      <trkpt lat="49.39647" lon="3.67737">
        <ele>164.2</ele>
        <time>2016-03-07T14:27:47.420Z</time>
      </trkpt>
      <trkpt lat="49.39647" lon="3.67734">
        <ele>164.6</ele>
        <time>2016-03-07T14:27:48.409Z</time>
      </trkpt>
      <trkpt lat="49.3964" lon="3.67727">
        <ele>162.9</ele>
        <time>2016-03-07T14:27:59.416Z</time>
      </trkpt>
      <trkpt lat="49.39639" lon="3.67726">
        <ele>162.8</ele>
        <time>2016-03-07T14:28:00.403Z</time>
      </trkpt>
      <trkpt lat="49.39646" lon="3.67734">
        <ele>161.6</ele>
        <time>2016-03-07T14:29:00.384Z</time>
      </trkpt>
      <trkpt lat="49.39646" lon="3.67736">
        <ele>161.8</ele>
        <time>2016-03-07T14:29:01.414Z</time>
      </trkpt>
      <trkpt lat="49.3965" lon="3.6774">
        <ele>161.5</ele>
        <time>2016-03-07T14:29:06.387Z</time>
      </trkpt>
      <trkpt lat="49.39649" lon="3.6774">
        <ele>160.8</ele>
        <time>2016-03-07T14:29:07.422Z</time>
      </trkpt>
      <trkpt lat="49.3965" lon="3.6774">
        <ele>160.8</ele>
        <time>2016-03-07T14:35:31.476Z</time>
      </trkpt>
      <trkpt lat="49.39648" lon="3.6774">
        <ele>162.1</ele>
        <time>2016-03-07T14:35:32.371Z</time>
      </trkpt>
      <trkpt lat="49.39641" lon="3.67737">
        <ele>162</ele>
        <time>2016-03-07T14:35:40.422Z</time>
      </trkpt>
      <trkpt lat="49.3964" lon="3.67736">
        <ele>161.9</ele>
        <time>2016-03-07T14:35:41.392Z</time>
      </trkpt>
      <trkpt lat="49.39632" lon="3.67731">
        <ele>162.2</ele>
        <time>2016-03-07T14:35:48.601Z</time>
      </trkpt>
      <trkpt lat="49.3963" lon="3.6773">
        <ele>162.3</ele>
        <time>2016-03-07T14:35:49.415Z</time>
      </trkpt>
      <trkpt lat="49.39622" lon="3.67725">
        <ele>163</ele>
        <time>2016-03-07T14:35:56.444Z</time>
      </trkpt>
      <trkpt lat="49.39621" lon="3.67724">
        <ele>163.2</ele>
        <time>2016-03-07T14:35:57.439Z</time>
      </trkpt>
      <trkpt lat="49.39613" lon="3.6772">
        <ele>163.4</ele>
        <time>2016-03-07T14:36:04.475Z</time>
      </trkpt>
      <trkpt lat="49.39612" lon="3.6772">
        <ele>163.3</ele>
        <time>2016-03-07T14:36:05.453Z</time>
      </trkpt>
      <trkpt lat="49.39604" lon="3.67714">
        <ele>162.9</ele>
        <time>2016-03-07T14:36:13.434Z</time>
      </trkpt>
      <trkpt lat="49.39603" lon="3.67713">
        <ele>162.8</ele>
        <time>2016-03-07T14:36:14.428Z</time>
      </trkpt>
      <trkpt lat="49.39596" lon="3.67709">
        <ele>162.7</ele>
        <time>2016-03-07T14:36:21.436Z</time>
      </trkpt>
      <trkpt lat="49.39594" lon="3.67708">
        <ele>162.9</ele>
        <time>2016-03-07T14:36:22.433Z</time>
      </trkpt>
      <trkpt lat="49.39587" lon="3.67702">
        <ele>162.1</ele>
        <time>2016-03-07T14:36:29.458Z</time>
      </trkpt>
      <trkpt lat="49.39585" lon="3.67701">
        <ele>161.9</ele>
        <time>2016-03-07T14:36:30.469Z</time>
      </trkpt>
      <trkpt lat="49.39578" lon="3.67696">
        <ele>161.3</ele>
        <time>2016-03-07T14:36:37.459Z</time>
      </trkpt>
      <trkpt lat="49.39577" lon="3.67695">
        <ele>161.3</ele>
        <time>2016-03-07T14:36:38.424Z</time>
      </trkpt>
      <trkpt lat="49.39569" lon="3.67692">
        <ele>159.8</ele>
        <time>2016-03-07T14:36:46.515Z</time>
      </trkpt>
      <trkpt lat="49.39568" lon="3.67691">
        <ele>159.5</ele>
        <time>2016-03-07T14:36:47.362Z</time>
      </trkpt>
      <trkpt lat="49.39559" lon="3.67687">
        <ele>158.6</ele>
        <time>2016-03-07T14:36:54.386Z</time>
      </trkpt>
      <trkpt lat="49.39558" lon="3.67685">
        <ele>158.6</ele>
        <time>2016-03-07T14:36:55.480Z</time>
      </trkpt>
      <trkpt lat="49.39549" lon="3.67683">
        <ele>157.3</ele>
        <time>2016-03-07T14:37:04.386Z</time>
      </trkpt>
      <trkpt lat="49.39549" lon="3.67683">
        <ele>157.2</ele>
        <time>2016-03-07T14:37:05.383Z</time>
      </trkpt>
      <trkpt lat="49.39542" lon="3.67674">
        <ele>157.2</ele>
        <time>2016-03-07T14:37:11.532Z</time>
      </trkpt>
      <trkpt lat="49.39541" lon="3.67673">
        <ele>157.2</ele>
        <time>2016-03-07T14:37:12.354Z</time>
      </trkpt>
      <trkpt lat="49.39535" lon="3.67666">
        <ele>156.6</ele>
        <time>2016-03-07T14:37:19.428Z</time>
      </trkpt>
      <trkpt lat="49.39533" lon="3.67665">
        <ele>156.3</ele>
        <time>2016-03-07T14:37:20.422Z</time>
      </trkpt>
      <trkpt lat="49.39528" lon="3.67657">
        <ele>156.1</ele>
        <time>2016-03-07T14:37:26.460Z</time>
      </trkpt>
      <trkpt lat="49.39527" lon="3.67655">
        <ele>156.4</ele>
        <time>2016-03-07T14:37:27.437Z</time>
      </trkpt>
      <trkpt lat="49.39522" lon="3.67645">
        <ele>158</ele>
        <time>2016-03-07T14:37:32.476Z</time>
      </trkpt>
      <trkpt lat="49.3952" lon="3.67643">
        <ele>158.4</ele>
        <time>2016-03-07T14:37:33.440Z</time>
      </trkpt>
      <trkpt lat="49.39515" lon="3.67633">
        <ele>159.3</ele>
        <time>2016-03-07T14:37:38.517Z</time>
      </trkpt>
      <trkpt lat="49.39514" lon="3.67632">
        <ele>159.3</ele>
        <time>2016-03-07T14:37:39.456Z</time>
      </trkpt>
      <trkpt lat="49.3951" lon="3.67626">
        <ele>158.9</ele>
        <time>2016-03-07T14:37:49.408Z</time>
      </trkpt>
      <trkpt lat="49.3951" lon="3.67626">
        <ele>158.8</ele>
        <time>2016-03-07T14:37:50.407Z</time>
      </trkpt>
      <trkpt lat="49.3951" lon="3.67626">
        <ele>158.7</ele>
        <time>2016-03-07T14:37:57.381Z</time>
      </trkpt>
      <trkpt lat="49.3951" lon="3.67625">
        <ele>158.4</ele>
        <time>2016-03-07T14:37:58.363Z</time>
      </trkpt>
      <trkpt lat="49.39504" lon="3.67616">
        <ele>156.4</ele>
        <time>2016-03-07T14:38:08.442Z</time>
      </trkpt>
      <trkpt lat="49.39503" lon="3.67615">
        <ele>156.2</ele>
        <time>2016-03-07T14:38:09.434Z</time>
      </trkpt>
      <trkpt lat="49.39508" lon="3.67625">
        <ele>152.9</ele>
        <time>2016-03-07T14:40:35.442Z</time>
      </trkpt>
      <trkpt lat="49.39508" lon="3.67626">
        <ele>152.9</ele>
        <time>2016-03-07T14:40:36.448Z</time>
      </trkpt>
      <trkpt lat="49.39514" lon="3.67635">
        <ele>154.3</ele>
        <time>2016-03-07T14:40:46.368Z</time>
      </trkpt>
      <trkpt lat="49.39515" lon="3.67636">
        <ele>154.3</ele>
        <time>2016-03-07T14:40:47.369Z</time>
      </trkpt>
      <trkpt lat="49.3952" lon="3.67645">
        <ele>155.3</ele>
        <time>2016-03-07T14:40:56.469Z</time>
      </trkpt>
      <trkpt lat="49.39521" lon="3.67646">
        <ele>155.5</ele>
        <time>2016-03-07T14:40:57.436Z</time>
      </trkpt>
      <trkpt lat="49.39528" lon="3.67655">
        <ele>156</ele>
        <time>2016-03-07T14:41:04.416Z</time>
      </trkpt>
      <trkpt lat="49.39529" lon="3.67656">
        <ele>156.1</ele>
        <time>2016-03-07T14:41:05.390Z</time>
      </trkpt>
      <trkpt lat="49.39536" lon="3.67663">
        <ele>156.8</ele>
        <time>2016-03-07T14:41:12.384Z</time>
      </trkpt>
      <trkpt lat="49.39537" lon="3.67664">
        <ele>156.9</ele>
        <time>2016-03-07T14:41:13.481Z</time>
      </trkpt>
      <trkpt lat="49.39544" lon="3.6767">
        <ele>159.3</ele>
        <time>2016-03-07T14:41:28.410Z</time>
      </trkpt>
      <trkpt lat="49.39545" lon="3.67671">
        <ele>159.5</ele>
        <time>2016-03-07T14:41:29.392Z</time>
      </trkpt>
      <trkpt lat="49.39553" lon="3.67676">
        <ele>160.7</ele>
        <time>2016-03-07T14:41:40.477Z</time>
      </trkpt>
      <trkpt lat="49.39553" lon="3.67677">
        <ele>160.6</ele>
        <time>2016-03-07T14:41:41.466Z</time>
      </trkpt>
      <trkpt lat="49.39553" lon="3.67677">
        <ele>160.7</ele>
        <time>2016-03-07T14:41:45.429Z</time>
      </trkpt>
      <trkpt lat="49.39554" lon="3.67678">
        <ele>160.5</ele>
        <time>2016-03-07T14:41:46.418Z</time>
      </trkpt>
      <trkpt lat="49.39562" lon="3.67683">
        <ele>160.8</ele>
        <time>2016-03-07T14:41:55.429Z</time>
      </trkpt>
      <trkpt lat="49.39563" lon="3.67684">
        <ele>160.8</ele>
        <time>2016-03-07T14:41:56.424Z</time>
      </trkpt>
      <trkpt lat="49.3957" lon="3.6769">
        <ele>161.6</ele>
        <time>2016-03-07T14:42:02.389Z</time>
      </trkpt>
      <trkpt lat="49.39571" lon="3.67691">
        <ele>161.8</ele>
        <time>2016-03-07T14:42:03.368Z</time>
      </trkpt>
      <trkpt lat="49.39579" lon="3.67698">
        <ele>162</ele>
        <time>2016-03-07T14:42:13.425Z</time>
      </trkpt>
      <trkpt lat="49.3958" lon="3.67699">
        <ele>162.1</ele>
        <time>2016-03-07T14:42:14.420Z</time>
      </trkpt>
      <trkpt lat="49.39587" lon="3.67705">
        <ele>161.5</ele>
        <time>2016-03-07T14:42:22.421Z</time>
      </trkpt>
      <trkpt lat="49.39588" lon="3.67706">
        <ele>161.5</ele>
        <time>2016-03-07T14:42:23.402Z</time>
      </trkpt>
      <trkpt lat="49.39596" lon="3.67711">
        <ele>161.6</ele>
        <time>2016-03-07T14:42:30.379Z</time>
      </trkpt>
      <trkpt lat="49.39598" lon="3.67711">
        <ele>162</ele>
        <time>2016-03-07T14:42:31.412Z</time>
      </trkpt>
      <trkpt lat="49.39606" lon="3.67716">
        <ele>162.8</ele>
        <time>2016-03-07T14:42:38.433Z</time>
      </trkpt>
      <trkpt lat="49.39607" lon="3.67717">
        <ele>163</ele>
        <time>2016-03-07T14:42:39.425Z</time>
      </trkpt>
      <trkpt lat="49.39614" lon="3.67724">
        <ele>163</ele>
        <time>2016-03-07T14:42:45.448Z</time>
      </trkpt>
      <trkpt lat="49.39615" lon="3.67724">
        <ele>163.1</ele>
        <time>2016-03-07T14:42:46.394Z</time>
      </trkpt>
      <trkpt lat="49.39622" lon="3.67729">
        <ele>163.8</ele>
        <time>2016-03-07T14:42:53.373Z</time>
      </trkpt>
      <trkpt lat="49.39623" lon="3.6773">
        <ele>163.6</ele>
        <time>2016-03-07T14:42:54.377Z</time>
      </trkpt>
      <trkpt lat="49.39631" lon="3.67736">
        <ele>163.9</ele>
        <time>2016-03-07T14:43:02.398Z</time>
      </trkpt>
      <trkpt lat="49.39632" lon="3.67737">
        <ele>164.1</ele>
        <time>2016-03-07T14:43:03.387Z</time>
      </trkpt>
      <trkpt lat="49.39639" lon="3.67741">
        <ele>164.9</ele>
        <time>2016-03-07T14:43:09.481Z</time>
      </trkpt>
      <trkpt lat="49.3964" lon="3.67741">
        <ele>164.9</ele>
        <time>2016-03-07T14:43:10.373Z</time>
      </trkpt>
      <trkpt lat="49.39648" lon="3.67747">
        <ele>165.8</ele>
        <time>2016-03-07T14:43:18.391Z</time>
      </trkpt>
      <trkpt lat="49.39649" lon="3.67748">
        <ele>165.7</ele>
        <time>2016-03-07T14:43:19.451Z</time>
      </trkpt>
      <trkpt lat="49.39656" lon="3.67754">
        <ele>166.4</ele>
        <time>2016-03-07T14:43:26.446Z</time>
      </trkpt>
      <trkpt lat="49.39657" lon="3.67754">
        <ele>166.5</ele>
        <time>2016-03-07T14:43:27.437Z</time>
      </trkpt>
      <trkpt lat="49.39665" lon="3.6776">
        <ele>166.3</ele>
        <time>2016-03-07T14:43:34.461Z</time>
      </trkpt>
      <trkpt lat="49.39666" lon="3.67761">
        <ele>166.4</ele>
        <time>2016-03-07T14:43:35.454Z</time>
      </trkpt>
      <trkpt lat="49.39672" lon="3.67767">
        <ele>167.2</ele>
        <time>2016-03-07T14:43:41.479Z</time>
      </trkpt>
      <trkpt lat="49.39673" lon="3.67768">
        <ele>167.2</ele>
        <time>2016-03-07T14:43:42.362Z</time>
      </trkpt>
      <trkpt lat="49.39681" lon="3.67774">
        <ele>167</ele>
        <time>2016-03-07T14:43:49.435Z</time>
      </trkpt>
      <trkpt lat="49.39682" lon="3.67775">
        <ele>167.1</ele>
        <time>2016-03-07T14:43:50.424Z</time>
      </trkpt>
      <trkpt lat="49.39685" lon="3.67779">
        <ele>167</ele>
        <time>2016-03-07T14:43:55.431Z</time>
      </trkpt>
      <trkpt lat="49.39686" lon="3.6778">
        <ele>167</ele>
        <time>2016-03-07T14:43:56.431Z</time>
      </trkpt>
      <trkpt lat="49.39686" lon="3.6778">
        <ele>167</ele>
        <time>2016-03-07T14:43:56.450Z</time>
      </trkpt>
      <trkpt lat="49.39686" lon="3.67781">
        <ele>166.6</ele>
        <time>2016-03-07T14:43:57.441Z</time>
      </trkpt>
      <trkpt lat="49.39692" lon="3.6779">
        <ele>166</ele>
        <time>2016-03-07T14:44:08.375Z</time>
      </trkpt>
      <trkpt lat="49.39692" lon="3.67791">
        <ele>165.9</ele>
        <time>2016-03-07T14:44:09.365Z</time>
      </trkpt>
      <trkpt lat="49.39692" lon="3.67791">
        <ele>165.9</ele>
        <time>2016-03-07T14:44:16.364Z</time>
      </trkpt>
      <trkpt lat="49.39692" lon="3.67791">
        <ele>167.3</ele>
        <time>2016-03-07T14:44:17.365Z</time>
      </trkpt>
      <trkpt lat="49.39696" lon="3.67803">
        <ele>167.7</ele>
        <time>2016-03-07T14:44:27.454Z</time>
      </trkpt>
      <trkpt lat="49.39696" lon="3.67804">
        <ele>167.7</ele>
        <time>2016-03-07T14:44:28.434Z</time>
      </trkpt>
      <trkpt lat="49.39699" lon="3.67817">
        <ele>167.6</ele>
        <time>2016-03-07T14:44:36.440Z</time>
      </trkpt>
      <trkpt lat="49.39699" lon="3.67818">
        <ele>167.6</ele>
        <time>2016-03-07T14:44:37.418Z</time>
      </trkpt>
      <trkpt lat="49.39703" lon="3.6783">
        <ele>167.4</ele>
        <time>2016-03-07T14:44:46.497Z</time>
      </trkpt>
      <trkpt lat="49.39704" lon="3.67831">
        <ele>167.4</ele>
        <time>2016-03-07T14:44:47.365Z</time>
      </trkpt>
      <trkpt lat="49.39708" lon="3.67843">
        <ele>168.2</ele>
        <time>2016-03-07T14:44:55.441Z</time>
      </trkpt>
      <trkpt lat="49.39708" lon="3.67845">
        <ele>168.4</ele>
        <time>2016-03-07T14:44:56.414Z</time>
      </trkpt>
      <trkpt lat="49.39711" lon="3.67857">
        <ele>169.1</ele>
        <time>2016-03-07T14:45:02.413Z</time>
      </trkpt>
      <trkpt lat="49.39711" lon="3.67859">
        <ele>169.3</ele>
        <time>2016-03-07T14:45:03.364Z</time>
      </trkpt>
      <trkpt lat="49.39715" lon="3.67871">
        <ele>169.8</ele>
        <time>2016-03-07T14:45:10.461Z</time>
      </trkpt>
      <trkpt lat="49.39716" lon="3.67873">
        <ele>169.9</ele>
        <time>2016-03-07T14:45:11.354Z</time>
      </trkpt>
      <trkpt lat="49.39719" lon="3.67883">
        <ele>170.2</ele>
        <time>2016-03-07T14:45:17.470Z</time>
      </trkpt>
      <trkpt lat="49.39719" lon="3.67885">
        <ele>170.3</ele>
        <time>2016-03-07T14:45:18.366Z</time>
      </trkpt>
      <trkpt lat="49.39722" lon="3.67898">
        <ele>171.1</ele>
        <time>2016-03-07T14:45:25.444Z</time>
      </trkpt>
      <trkpt lat="49.39723" lon="3.679">
        <ele>171.2</ele>
        <time>2016-03-07T14:45:26.435Z</time>
      </trkpt>
      <trkpt lat="49.39728" lon="3.6791">
        <ele>171.6</ele>
        <time>2016-03-07T14:45:33.442Z</time>
      </trkpt>
      <trkpt lat="49.39729" lon="3.67912">
        <ele>171.5</ele>
        <time>2016-03-07T14:45:34.428Z</time>
      </trkpt>
      <trkpt lat="49.39733" lon="3.67924">
        <ele>172.1</ele>
        <time>2016-03-07T14:45:41.403Z</time>
      </trkpt>
      <trkpt lat="49.39733" lon="3.67926">
        <ele>172</ele>
        <time>2016-03-07T14:45:42.396Z</time>
      </trkpt>
      <trkpt lat="49.39735" lon="3.67938">
        <ele>172.5</ele>
        <time>2016-03-07T14:45:48.379Z</time>
      </trkpt>
      <trkpt lat="49.39736" lon="3.6794">
        <ele>172.4</ele>
        <time>2016-03-07T14:45:49.415Z</time>
      </trkpt>
      <trkpt lat="49.39739" lon="3.67951">
        <ele>172</ele>
        <time>2016-03-07T14:45:56.387Z</time>
      </trkpt>
      <trkpt lat="49.39739" lon="3.67954">
        <ele>172.2</ele>
        <time>2016-03-07T14:45:57.375Z</time>
      </trkpt>
      <trkpt lat="49.39741" lon="3.67966">
        <ele>172.8</ele>
        <time>2016-03-07T14:46:03.448Z</time>
      </trkpt>
      <trkpt lat="49.39742" lon="3.67968">
        <ele>172.8</ele>
        <time>2016-03-07T14:46:04.445Z</time>
      </trkpt>
      <trkpt lat="49.39743" lon="3.6798">
        <ele>173.9</ele>
        <time>2016-03-07T14:46:10.409Z</time>
      </trkpt>
      <trkpt lat="49.39744" lon="3.67982">
        <ele>173.9</ele>
        <time>2016-03-07T14:46:11.402Z</time>
      </trkpt>
      <trkpt lat="49.39745" lon="3.67993">
        <ele>173.8</ele>
        <time>2016-03-07T14:46:17.474Z</time>
      </trkpt>
      <trkpt lat="49.39745" lon="3.67996">
        <ele>173.8</ele>
        <time>2016-03-07T14:46:18.374Z</time>
      </trkpt>
      <trkpt lat="49.39746" lon="3.68008">
        <ele>173.8</ele>
        <time>2016-03-07T14:46:24.475Z</time>
      </trkpt>
      <trkpt lat="49.39746" lon="3.6801">
        <ele>173.9</ele>
        <time>2016-03-07T14:46:25.470Z</time>
      </trkpt>
      <trkpt lat="49.39747" lon="3.68023">
        <ele>175</ele>
        <time>2016-03-07T14:46:33.462Z</time>
      </trkpt>
      <trkpt lat="49.39746" lon="3.68025">
        <ele>175.1</ele>
        <time>2016-03-07T14:46:34.448Z</time>
      </trkpt>
      <trkpt lat="49.39748" lon="3.68037">
        <ele>176.1</ele>
        <time>2016-03-07T14:46:42.382Z</time>
      </trkpt>
      <trkpt lat="49.39748" lon="3.68038">
        <ele>176.1</ele>
        <time>2016-03-07T14:46:43.414Z</time>
      </trkpt>
      <trkpt lat="49.39749" lon="3.68051">
        <ele>176.1</ele>
        <time>2016-03-07T14:46:51.475Z</time>
      </trkpt>
      <trkpt lat="49.39749" lon="3.68052">
        <ele>176.1</ele>
        <time>2016-03-07T14:46:52.456Z</time>
      </trkpt>
      <trkpt lat="49.39751" lon="3.68065">
        <ele>175.6</ele>
        <time>2016-03-07T14:47:00.388Z</time>
      </trkpt>
      <trkpt lat="49.39751" lon="3.68067">
        <ele>175.7</ele>
        <time>2016-03-07T14:47:01.418Z</time>
      </trkpt>
      <trkpt lat="49.39753" lon="3.6808">
        <ele>175.2</ele>
        <time>2016-03-07T14:47:09.468Z</time>
      </trkpt>
      <trkpt lat="49.39754" lon="3.68082">
        <ele>175</ele>
        <time>2016-03-07T14:47:10.370Z</time>
      </trkpt>
      <trkpt lat="49.39755" lon="3.68085">
        <ele>175.3</ele>
        <time>2016-03-07T14:47:14.436Z</time>
      </trkpt>
      <trkpt lat="49.39755" lon="3.68085">
        <ele>175.7</ele>
        <time>2016-03-07T14:47:15.431Z</time>
      </trkpt>
      <trkpt lat="49.39755" lon="3.68085">
        <ele>176.1</ele>
        <time>2016-03-07T14:47:31.475Z</time>
      </trkpt>
      <trkpt lat="49.39756" lon="3.68087">
        <ele>176</ele>
        <time>2016-03-07T14:47:32.379Z</time>
      </trkpt>
      <trkpt lat="49.39759" lon="3.681">
        <ele>176</ele>
        <time>2016-03-07T14:47:40.531Z</time>
      </trkpt>
      <trkpt lat="49.39759" lon="3.68102">
        <ele>176</ele>
        <time>2016-03-07T14:47:41.367Z</time>
      </trkpt>
      <trkpt lat="49.39763" lon="3.68113">
        <ele>176.2</ele>
        <time>2016-03-07T14:47:49.440Z</time>
      </trkpt>
      <trkpt lat="49.39764" lon="3.68114">
        <ele>176.2</ele>
        <time>2016-03-07T14:47:50.422Z</time>
      </trkpt>
      <trkpt lat="49.39768" lon="3.68126">
        <ele>175.9</ele>
        <time>2016-03-07T14:47:57.454Z</time>
      </trkpt>
      <trkpt lat="49.39768" lon="3.68128">
        <ele>176</ele>
        <time>2016-03-07T14:47:58.446Z</time>
      </trkpt>
      <trkpt lat="49.39772" lon="3.68139">
        <ele>176.9</ele>
        <time>2016-03-07T14:48:04.427Z</time>
      </trkpt>
      <trkpt lat="49.39772" lon="3.68141">
        <ele>177</ele>
        <time>2016-03-07T14:48:05.398Z</time>
      </trkpt>
      <trkpt lat="49.39775" lon="3.68153">
        <ele>177.8</ele>
        <time>2016-03-07T14:48:11.387Z</time>
      </trkpt>
      <trkpt lat="49.39776" lon="3.68154">
        <ele>178</ele>
        <time>2016-03-07T14:48:12.373Z</time>
      </trkpt>
      <trkpt lat="49.3978" lon="3.68166">
        <ele>178.4</ele>
        <time>2016-03-07T14:48:19.424Z</time>
      </trkpt>
      <trkpt lat="49.3978" lon="3.68168">
        <ele>178.2</ele>
        <time>2016-03-07T14:48:20.413Z</time>
      </trkpt>
      <trkpt lat="49.39784" lon="3.68178">
        <ele>178.6</ele>
        <time>2016-03-07T14:48:27.404Z</time>
      </trkpt>
      <trkpt lat="49.39784" lon="3.6818">
        <ele>178.9</ele>
        <time>2016-03-07T14:48:28.379Z</time>
      </trkpt>
      <trkpt lat="49.39787" lon="3.68192">
        <ele>180</ele>
        <time>2016-03-07T14:48:35.473Z</time>
      </trkpt>
      <trkpt lat="49.39787" lon="3.68193">
        <ele>180.2</ele>
        <time>2016-03-07T14:48:36.374Z</time>
      </trkpt>
      <trkpt lat="49.39789" lon="3.68206">
        <ele>181.6</ele>
        <time>2016-03-07T14:48:44.461Z</time>
      </trkpt>
      <trkpt lat="49.3979" lon="3.68208">
        <ele>181.7</ele>
        <time>2016-03-07T14:48:45.450Z</time>
      </trkpt>
      <trkpt lat="49.39789" lon="3.6822">
        <ele>181.8</ele>
        <time>2016-03-07T14:48:51.471Z</time>
      </trkpt>
      <trkpt lat="49.39789" lon="3.68222">
        <ele>181.8</ele>
        <time>2016-03-07T14:48:52.455Z</time>
      </trkpt>
      <trkpt lat="49.39788" lon="3.68236">
        <ele>182.9</ele>
        <time>2016-03-07T14:48:59.449Z</time>
      </trkpt>
      <trkpt lat="49.39788" lon="3.68238">
        <ele>183.1</ele>
        <time>2016-03-07T14:49:00.452Z</time>
      </trkpt>
      <trkpt lat="49.39788" lon="3.68251">
        <ele>183.3</ele>
        <time>2016-03-07T14:49:07.425Z</time>
      </trkpt>
      <trkpt lat="49.39788" lon="3.68253">
        <ele>183.4</ele>
        <time>2016-03-07T14:49:08.427Z</time>
      </trkpt>
      <trkpt lat="49.39788" lon="3.68266">
        <ele>184</ele>
        <time>2016-03-07T14:49:15.461Z</time>
      </trkpt>
      <trkpt lat="49.39788" lon="3.68268">
        <ele>184.1</ele>
        <time>2016-03-07T14:49:16.457Z</time>
      </trkpt>
      <trkpt lat="49.39789" lon="3.6828">
        <ele>184.1</ele>
        <time>2016-03-07T14:49:23.385Z</time>
      </trkpt>
      <trkpt lat="49.39789" lon="3.68282">
        <ele>184</ele>
        <time>2016-03-07T14:49:24.381Z</time>
      </trkpt>
      <trkpt lat="49.39792" lon="3.68294">
        <ele>184.1</ele>
        <time>2016-03-07T14:49:32.393Z</time>
      </trkpt>
      <trkpt lat="49.39792" lon="3.68296">
        <ele>184.2</ele>
        <time>2016-03-07T14:49:33.577Z</time>
      </trkpt>
      <trkpt lat="49.39796" lon="3.68308">
        <ele>185.3</ele>
        <time>2016-03-07T14:49:40.463Z</time>
      </trkpt>
      <trkpt lat="49.39796" lon="3.6831">
        <ele>185.5</ele>
        <time>2016-03-07T14:49:41.454Z</time>
      </trkpt>
      <trkpt lat="49.398" lon="3.68322">
        <ele>186.5</ele>
        <time>2016-03-07T14:49:51.382Z</time>
      </trkpt>
      <trkpt lat="49.39801" lon="3.68323">
        <ele>186.7</ele>
        <time>2016-03-07T14:49:52.380Z</time>
      </trkpt>
      <trkpt lat="49.39805" lon="3.68335">
        <ele>187.8</ele>
        <time>2016-03-07T14:49:59.487Z</time>
      </trkpt>
      <trkpt lat="49.39806" lon="3.68336">
        <ele>187.9</ele>
        <time>2016-03-07T14:50:00.373Z</time>
      </trkpt>
      <trkpt lat="49.3981" lon="3.68347">
        <ele>188.3</ele>
        <time>2016-03-07T14:50:07.478Z</time>
      </trkpt>
      <trkpt lat="49.3981" lon="3.68348">
        <ele>188.3</ele>
        <time>2016-03-07T14:50:08.376Z</time>
      </trkpt>
      <trkpt lat="49.39815" lon="3.68359">
        <ele>188.7</ele>
        <time>2016-03-07T14:50:15.470Z</time>
      </trkpt>
      <trkpt lat="49.39816" lon="3.68361">
        <ele>188.7</ele>
        <time>2016-03-07T14:50:16.445Z</time>
      </trkpt>
      <trkpt lat="49.3982" lon="3.68371">
        <ele>188.4</ele>
        <time>2016-03-07T14:50:23.380Z</time>
      </trkpt>
      <trkpt lat="49.39821" lon="3.68372">
        <ele>188.6</ele>
        <time>2016-03-07T14:50:24.391Z</time>
      </trkpt>
      <trkpt lat="49.39826" lon="3.68382">
        <ele>188.5</ele>
        <time>2016-03-07T14:50:32.392Z</time>
      </trkpt>
      <trkpt lat="49.39827" lon="3.68383">
        <ele>188.5</ele>
        <time>2016-03-07T14:50:33.372Z</time>
      </trkpt>
      <trkpt lat="49.39832" lon="3.68394">
        <ele>189</ele>
        <time>2016-03-07T14:50:40.447Z</time>
      </trkpt>
      <trkpt lat="49.39832" lon="3.68396">
        <ele>189.1</ele>
        <time>2016-03-07T14:50:41.431Z</time>
      </trkpt>
      <trkpt lat="49.39836" lon="3.68406">
        <ele>189.2</ele>
        <time>2016-03-07T14:50:47.421Z</time>
      </trkpt>
      <trkpt lat="49.39837" lon="3.68408">
        <ele>189.1</ele>
        <time>2016-03-07T14:50:48.405Z</time>
      </trkpt>
      <trkpt lat="49.3984" lon="3.6842">
        <ele>189.7</ele>
        <time>2016-03-07T14:50:55.492Z</time>
      </trkpt>
      <trkpt lat="49.39841" lon="3.68421">
        <ele>189.7</ele>
        <time>2016-03-07T14:50:56.368Z</time>
      </trkpt>
      <trkpt lat="49.39842" lon="3.68426">
        <ele>190</ele>
        <time>2016-03-07T14:51:00.425Z</time>
      </trkpt>
      <trkpt lat="49.39842" lon="3.68426">
        <ele>190</ele>
        <time>2016-03-07T14:51:01.415Z</time>
      </trkpt>
      <trkpt lat="49.39842" lon="3.68426">
        <ele>189.9</ele>
        <time>2016-03-07T14:51:09.458Z</time>
      </trkpt>
      <trkpt lat="49.39842" lon="3.68427">
        <ele>189.6</ele>
        <time>2016-03-07T14:51:10.443Z</time>
      </trkpt>
      <trkpt lat="49.39843" lon="3.68429">
        <ele>189.5</ele>
        <time>2016-03-07T14:51:12.474Z</time>
      </trkpt>
      <trkpt lat="49.39843" lon="3.68429">
        <ele>189.5</ele>
        <time>2016-03-07T14:51:13.463Z</time>
      </trkpt>
      <trkpt lat="49.39843" lon="3.68429">
        <ele>189.6</ele>
        <time>2016-03-07T14:51:18.446Z</time>
      </trkpt>
      <trkpt lat="49.39843" lon="3.68429">
        <ele>189.6</ele>
        <time>2016-03-07T14:51:19.434Z</time>
      </trkpt>
      <trkpt lat="49.39845" lon="3.68442">
        <ele>189.8</ele>
        <time>2016-03-07T14:51:27.446Z</time>
      </trkpt>
      <trkpt lat="49.39845" lon="3.68443">
        <ele>189.8</ele>
        <time>2016-03-07T14:51:28.435Z</time>
      </trkpt>
      <trkpt lat="49.39848" lon="3.68455">
        <ele>190.3</ele>
        <time>2016-03-07T14:51:35.460Z</time>
      </trkpt>
      <trkpt lat="49.39849" lon="3.68457">
        <ele>190.4</ele>
        <time>2016-03-07T14:51:36.460Z</time>
      </trkpt>
      <trkpt lat="49.3985" lon="3.68471">
        <ele>190.9</ele>
        <time>2016-03-07T14:51:42.449Z</time>
      </trkpt>
      <trkpt lat="49.39851" lon="3.68473">
        <ele>190.9</ele>
        <time>2016-03-07T14:51:43.409Z</time>
      </trkpt>
      <trkpt lat="49.39853" lon="3.68484">
        <ele>190.9</ele>
        <time>2016-03-07T14:51:49.508Z</time>
      </trkpt>
      <trkpt lat="49.39854" lon="3.68486">
        <ele>190.8</ele>
        <time>2016-03-07T14:51:50.363Z</time>
      </trkpt>
      <trkpt lat="49.39857" lon="3.68497">
        <ele>190.6</ele>
        <time>2016-03-07T14:51:56.449Z</time>
      </trkpt>
      <trkpt lat="49.39857" lon="3.68499">
        <ele>190.7</ele>
        <time>2016-03-07T14:51:57.452Z</time>
      </trkpt>
      <trkpt lat="49.39861" lon="3.6851">
        <ele>190.5</ele>
        <time>2016-03-07T14:52:04.481Z</time>
      </trkpt>
      <trkpt lat="49.39862" lon="3.68512">
        <ele>190.5</ele>
        <time>2016-03-07T14:52:05.458Z</time>
      </trkpt>
      <trkpt lat="49.39866" lon="3.68522">
        <ele>190.8</ele>
        <time>2016-03-07T14:52:11.422Z</time>
      </trkpt>
      <trkpt lat="49.39867" lon="3.68523">
        <ele>190.8</ele>
        <time>2016-03-07T14:52:12.394Z</time>
      </trkpt>
      <trkpt lat="49.39873" lon="3.68533">
        <ele>190.2</ele>
        <time>2016-03-07T14:52:19.439Z</time>
      </trkpt>
      <trkpt lat="49.39874" lon="3.68534">
        <ele>190.1</ele>
        <time>2016-03-07T14:52:20.428Z</time>
      </trkpt>
      <trkpt lat="49.39879" lon="3.68544">
        <ele>189.7</ele>
        <time>2016-03-07T14:52:26.431Z</time>
      </trkpt>
      <trkpt lat="49.3988" lon="3.68546">
        <ele>189.5</ele>
        <time>2016-03-07T14:52:27.423Z</time>
      </trkpt>
      <trkpt lat="49.39884" lon="3.68555">
        <ele>189.2</ele>
        <time>2016-03-07T14:52:33.394Z</time>
      </trkpt>
      <trkpt lat="49.39885" lon="3.68557">
        <ele>189.2</ele>
        <time>2016-03-07T14:52:34.382Z</time>
      </trkpt>
      <trkpt lat="49.39891" lon="3.68567">
        <ele>189.7</ele>
        <time>2016-03-07T14:52:41.519Z</time>
      </trkpt>
      <trkpt lat="49.39892" lon="3.68568">
        <ele>189.7</ele>
        <time>2016-03-07T14:52:42.363Z</time>
      </trkpt>
      <trkpt lat="49.39897" lon="3.68578">
        <ele>189.9</ele>
        <time>2016-03-07T14:52:49.490Z</time>
      </trkpt>
      <trkpt lat="49.39898" lon="3.68579">
        <ele>190</ele>
        <time>2016-03-07T14:52:50.368Z</time>
      </trkpt>
      <trkpt lat="49.39903" lon="3.6859">
        <ele>190</ele>
        <time>2016-03-07T14:52:57.453Z</time>
      </trkpt>
      <trkpt lat="49.39904" lon="3.68591">
        <ele>190.2</ele>
        <time>2016-03-07T14:52:58.451Z</time>
      </trkpt>
      <trkpt lat="49.39908" lon="3.68603">
        <ele>190.2</ele>
        <time>2016-03-07T14:53:05.390Z</time>
      </trkpt>
      <trkpt lat="49.39909" lon="3.68605">
        <ele>190.3</ele>
        <time>2016-03-07T14:53:06.378Z</time>
      </trkpt>
      <trkpt lat="49.39914" lon="3.68615">
        <ele>190.3</ele>
        <time>2016-03-07T14:53:14.382Z</time>
      </trkpt>
      <trkpt lat="49.39915" lon="3.68615">
        <ele>190.1</ele>
        <time>2016-03-07T14:53:15.364Z</time>
      </trkpt>
      <trkpt lat="49.3992" lon="3.68626">
        <ele>189.4</ele>
        <time>2016-03-07T14:53:23.383Z</time>
      </trkpt>
      <trkpt lat="49.3992" lon="3.68627">
        <ele>189.2</ele>
        <time>2016-03-07T14:53:24.367Z</time>
      </trkpt>
      <trkpt lat="49.39925" lon="3.68637">
        <ele>188.4</ele>
        <time>2016-03-07T14:53:31.447Z</time>
      </trkpt>
      <trkpt lat="49.39926" lon="3.68639">
        <ele>188.4</ele>
        <time>2016-03-07T14:53:32.417Z</time>
      </trkpt>
      <trkpt lat="49.39929" lon="3.6865">
        <ele>188.7</ele>
        <time>2016-03-07T14:53:38.380Z</time>
      </trkpt>
      <trkpt lat="49.3993" lon="3.68652">
        <ele>188.7</ele>
        <time>2016-03-07T14:53:39.391Z</time>
      </trkpt>
      <trkpt lat="49.39932" lon="3.68663">
        <ele>189.2</ele>
        <time>2016-03-07T14:53:45.383Z</time>
      </trkpt>
      <trkpt lat="49.39932" lon="3.68665">
        <ele>189.1</ele>
        <time>2016-03-07T14:53:46.368Z</time>
      </trkpt>
      <trkpt lat="49.39934" lon="3.68678">
        <ele>188.6</ele>
        <time>2016-03-07T14:53:53.377Z</time>
      </trkpt>
      <trkpt lat="49.39935" lon="3.6868">
        <ele>188.5</ele>
        <time>2016-03-07T14:53:54.368Z</time>
      </trkpt>
      <trkpt lat="49.39937" lon="3.68692">
        <ele>188.2</ele>
        <time>2016-03-07T14:54:03.383Z</time>
      </trkpt>
      <trkpt lat="49.39938" lon="3.68694">
        <ele>188.3</ele>
        <time>2016-03-07T14:54:04.375Z</time>
      </trkpt>
      <trkpt lat="49.3994" lon="3.68706">
        <ele>188.2</ele>
        <time>2016-03-07T14:54:12.391Z</time>
      </trkpt>
      <trkpt lat="49.3994" lon="3.68708">
        <ele>188.1</ele>
        <time>2016-03-07T14:54:13.401Z</time>
      </trkpt>
      <trkpt lat="49.3994" lon="3.68722">
        <ele>187.3</ele>
        <time>2016-03-07T14:54:20.374Z</time>
      </trkpt>
      <trkpt lat="49.3994" lon="3.68723">
        <ele>187.3</ele>
        <time>2016-03-07T14:54:21.374Z</time>
      </trkpt>
      <trkpt lat="49.39941" lon="3.68736">
        <ele>186.8</ele>
        <time>2016-03-07T14:54:28.455Z</time>
      </trkpt>
      <trkpt lat="49.39942" lon="3.68738">
        <ele>186.7</ele>
        <time>2016-03-07T14:54:29.572Z</time>
      </trkpt>
      <trkpt lat="49.39943" lon="3.68751">
        <ele>186</ele>
        <time>2016-03-07T14:54:37.452Z</time>
      </trkpt>
      <trkpt lat="49.39943" lon="3.68753">
        <ele>185.9</ele>
        <time>2016-03-07T14:54:38.446Z</time>
      </trkpt>
      <trkpt lat="49.39947" lon="3.68766">
        <ele>185.4</ele>
        <time>2016-03-07T14:54:45.483Z</time>
      </trkpt>
      <trkpt lat="49.39947" lon="3.68768">
        <ele>185.3</ele>
        <time>2016-03-07T14:54:46.363Z</time>
      </trkpt>
      <trkpt lat="49.39951" lon="3.68779">
        <ele>184.8</ele>
        <time>2016-03-07T14:54:53.428Z</time>
      </trkpt>
      <trkpt lat="49.39951" lon="3.68781">
        <ele>184.8</ele>
        <time>2016-03-07T14:54:54.364Z</time>
      </trkpt>
      <trkpt lat="49.39955" lon="3.68792">
        <ele>185</ele>
        <time>2016-03-07T14:55:01.496Z</time>
      </trkpt>
      <trkpt lat="49.39956" lon="3.68794">
        <ele>184.9</ele>
        <time>2016-03-07T14:55:02.367Z</time>
      </trkpt>
      <trkpt lat="49.3996" lon="3.68806">
        <ele>183.6</ele>
        <time>2016-03-07T14:55:09.457Z</time>
      </trkpt>
      <trkpt lat="49.39961" lon="3.68807">
        <ele>183.6</ele>
        <time>2016-03-07T14:55:10.440Z</time>
      </trkpt>
      <trkpt lat="49.39965" lon="3.68818">
        <ele>183.9</ele>
        <time>2016-03-07T14:55:17.453Z</time>
      </trkpt>
      <trkpt lat="49.39966" lon="3.6882">
        <ele>183.9</ele>
        <time>2016-03-07T14:55:18.445Z</time>
      </trkpt>
      <trkpt lat="49.39968" lon="3.68832">
        <ele>184</ele>
        <time>2016-03-07T14:55:25.422Z</time>
      </trkpt>
      <trkpt lat="49.39968" lon="3.68834">
        <ele>184.1</ele>
        <time>2016-03-07T14:55:26.431Z</time>
      </trkpt>
      <trkpt lat="49.39971" lon="3.68846">
        <ele>183.8</ele>
        <time>2016-03-07T14:55:33.425Z</time>
      </trkpt>
      <trkpt lat="49.39971" lon="3.68848">
        <ele>183.9</ele>
        <time>2016-03-07T14:55:34.426Z</time>
      </trkpt>
      <trkpt lat="49.39974" lon="3.68859">
        <ele>183.8</ele>
        <time>2016-03-07T14:55:41.466Z</time>
      </trkpt>
      <trkpt lat="49.39974" lon="3.68861">
        <ele>183.8</ele>
        <time>2016-03-07T14:55:42.449Z</time>
      </trkpt>
      <trkpt lat="49.39977" lon="3.68873">
        <ele>183.9</ele>
        <time>2016-03-07T14:55:48.403Z</time>
      </trkpt>
      <trkpt lat="49.39977" lon="3.68875">
        <ele>183.9</ele>
        <time>2016-03-07T14:55:49.421Z</time>
      </trkpt>
      <trkpt lat="49.39979" lon="3.68886">
        <ele>184.1</ele>
        <time>2016-03-07T14:55:55.426Z</time>
      </trkpt>
      <trkpt lat="49.3998" lon="3.68888">
        <ele>183.9</ele>
        <time>2016-03-07T14:55:56.417Z</time>
      </trkpt>
      <trkpt lat="49.39983" lon="3.68901">
        <ele>184.4</ele>
        <time>2016-03-07T14:56:03.371Z</time>
      </trkpt>
      <trkpt lat="49.39983" lon="3.68903">
        <ele>184.5</ele>
        <time>2016-03-07T14:56:04.364Z</time>
      </trkpt>
      <trkpt lat="49.39985" lon="3.68915">
        <ele>184.8</ele>
        <time>2016-03-07T14:56:11.391Z</time>
      </trkpt>
      <trkpt lat="49.39986" lon="3.68917">
        <ele>184.8</ele>
        <time>2016-03-07T14:56:12.370Z</time>
      </trkpt>
      <trkpt lat="49.39987" lon="3.68923">
        <ele>184.7</ele>
        <time>2016-03-07T14:56:16.443Z</time>
      </trkpt>
      <trkpt lat="49.39988" lon="3.68924">
        <ele>184.7</ele>
        <time>2016-03-07T14:56:17.455Z</time>
      </trkpt>
      <trkpt lat="49.39988" lon="3.68924">
        <ele>185</ele>
        <time>2016-03-07T14:56:20.376Z</time>
      </trkpt>
      <trkpt lat="49.39988" lon="3.68925">
        <ele>185.1</ele>
        <time>2016-03-07T14:56:21.370Z</time>
      </trkpt>
      <trkpt lat="49.3999" lon="3.68937">
        <ele>185.7</ele>
        <time>2016-03-07T14:56:29.379Z</time>
      </trkpt>
      <trkpt lat="49.3999" lon="3.68939">
        <ele>185.7</ele>
        <time>2016-03-07T14:56:30.378Z</time>
      </trkpt>
      <trkpt lat="49.39993" lon="3.68952">
        <ele>185</ele>
        <time>2016-03-07T14:56:37.500Z</time>
      </trkpt>
      <trkpt lat="49.39993" lon="3.68954">
        <ele>185</ele>
        <time>2016-03-07T14:56:38.362Z</time>
      </trkpt>
      <trkpt lat="49.39995" lon="3.68967">
        <ele>184.5</ele>
        <time>2016-03-07T14:56:45.381Z</time>
      </trkpt>
      <trkpt lat="49.39995" lon="3.68969">
        <ele>184.4</ele>
        <time>2016-03-07T14:56:46.381Z</time>
      </trkpt>
      <trkpt lat="49.39996" lon="3.6898">
        <ele>184.9</ele>
        <time>2016-03-07T14:56:52.467Z</time>
      </trkpt>
      <trkpt lat="49.39996" lon="3.68983">
        <ele>185</ele>
        <time>2016-03-07T14:56:53.454Z</time>
      </trkpt>
      <trkpt lat="49.39997" lon="3.68995">
        <ele>185</ele>
        <time>2016-03-07T14:56:59.418Z</time>
      </trkpt>
      <trkpt lat="49.39997" lon="3.68996">
        <ele>185.2</ele>
        <time>2016-03-07T14:57:00.401Z</time>
      </trkpt>
      <trkpt lat="49.39999" lon="3.69008">
        <ele>185.3</ele>
        <time>2016-03-07T14:57:06.601Z</time>
      </trkpt>
      <trkpt lat="49.39999" lon="3.6901">
        <ele>185.3</ele>
        <time>2016-03-07T14:57:07.416Z</time>
      </trkpt>
      <trkpt lat="49.4" lon="3.69022">
        <ele>185.3</ele>
        <time>2016-03-07T14:57:13.521Z</time>
      </trkpt>
      <trkpt lat="49.4" lon="3.69025">
        <ele>185.2</ele>
        <time>2016-03-07T14:57:14.367Z</time>
      </trkpt>
      <trkpt lat="49.4" lon="3.69038">
        <ele>185</ele>
        <time>2016-03-07T14:57:20.458Z</time>
      </trkpt>
      <trkpt lat="49.4" lon="3.69039">
        <ele>185</ele>
        <time>2016-03-07T14:57:21.454Z</time>
      </trkpt>
      <trkpt lat="49.40003" lon="3.69051">
        <ele>185.4</ele>
        <time>2016-03-07T14:57:28.452Z</time>
      </trkpt>
      <trkpt lat="49.40004" lon="3.69052">
        <ele>185.3</ele>
        <time>2016-03-07T14:57:29.439Z</time>
      </trkpt>
      <trkpt lat="49.40007" lon="3.69063">
        <ele>184.2</ele>
        <time>2016-03-07T14:57:36.419Z</time>
      </trkpt>
      <trkpt lat="49.40007" lon="3.69065">
        <ele>184.1</ele>
        <time>2016-03-07T14:57:37.416Z</time>
      </trkpt>
      <trkpt lat="49.40012" lon="3.69076">
        <ele>183.4</ele>
        <time>2016-03-07T14:57:46.399Z</time>
      </trkpt>
      <trkpt lat="49.40012" lon="3.69077">
        <ele>183.4</ele>
        <time>2016-03-07T14:57:47.389Z</time>
      </trkpt>
      <trkpt lat="49.40015" lon="3.6909">
        <ele>183.7</ele>
        <time>2016-03-07T14:58:04.390Z</time>
      </trkpt>
      <trkpt lat="49.40016" lon="3.6909">
        <ele>183.7</ele>
        <time>2016-03-07T14:58:05.380Z</time>
      </trkpt>
      <trkpt lat="49.40018" lon="3.6909">
        <ele>183.4</ele>
        <time>2016-03-07T14:58:08.461Z</time>
      </trkpt>
      <trkpt lat="49.40018" lon="3.6909">
        <ele>183.4</ele>
        <time>2016-03-07T14:58:09.442Z</time>
      </trkpt>
      <trkpt lat="49.40018" lon="3.6909">
        <ele>183.3</ele>
        <time>2016-03-07T14:58:15.387Z</time>
      </trkpt>
      <trkpt lat="49.40018" lon="3.6909">
        <ele>182.8</ele>
        <time>2016-03-07T14:58:16.385Z</time>
      </trkpt>
      <trkpt lat="49.40026" lon="3.69085">
        <ele>184</ele>
        <time>2016-03-07T14:58:28.455Z</time>
      </trkpt>
      <trkpt lat="49.40026" lon="3.69084">
        <ele>184.2</ele>
        <time>2016-03-07T14:58:29.442Z</time>
      </trkpt>
      <trkpt lat="49.40034" lon="3.69077">
        <ele>185.2</ele>
        <time>2016-03-07T14:58:38.430Z</time>
      </trkpt>
      <trkpt lat="49.40035" lon="3.69076">
        <ele>185.7</ele>
        <time>2016-03-07T14:58:39.427Z</time>
      </trkpt>
      <trkpt lat="49.40039" lon="3.69075">
        <ele>186.4</ele>
        <time>2016-03-07T14:58:44.380Z</time>
      </trkpt>
      <trkpt lat="49.40039" lon="3.69075">
        <ele>186.6</ele>
        <time>2016-03-07T14:58:45.376Z</time>
      </trkpt>
      <trkpt lat="49.4004" lon="3.69076">
        <ele>187.1</ele>
        <time>2016-03-07T14:58:48.419Z</time>
      </trkpt>
      <trkpt lat="49.40042" lon="3.69075">
        <ele>186.6</ele>
        <time>2016-03-07T14:58:49.415Z</time>
      </trkpt>
      <trkpt lat="49.40051" lon="3.69071">
        <ele>187.2</ele>
        <time>2016-03-07T14:59:02.385Z</time>
      </trkpt>
      <trkpt lat="49.40051" lon="3.69071">
        <ele>187.3</ele>
        <time>2016-03-07T14:59:03.387Z</time>
      </trkpt>
      <trkpt lat="49.40059" lon="3.69067">
        <ele>189.9</ele>
        <time>2016-03-07T14:59:25.464Z</time>
      </trkpt>
      <trkpt lat="49.4006" lon="3.69067">
        <ele>190.2</ele>
        <time>2016-03-07T14:59:26.449Z</time>
      </trkpt>
      <trkpt lat="49.40068" lon="3.69066">
        <ele>191.8</ele>
        <time>2016-03-07T14:59:34.392Z</time>
      </trkpt>
      <trkpt lat="49.40069" lon="3.69067">
        <ele>192</ele>
        <time>2016-03-07T14:59:35.385Z</time>
      </trkpt>
      <trkpt lat="49.40078" lon="3.69064">
        <ele>193.2</ele>
        <time>2016-03-07T14:59:44.383Z</time>
      </trkpt>
      <trkpt lat="49.40079" lon="3.69063">
        <ele>193.3</ele>
        <time>2016-03-07T14:59:45.384Z</time>
      </trkpt>
      <trkpt lat="49.40087" lon="3.6906">
        <ele>194.3</ele>
        <time>2016-03-07T14:59:54.402Z</time>
      </trkpt>
      <trkpt lat="49.40088" lon="3.6906">
        <ele>194.3</ele>
        <time>2016-03-07T14:59:55.436Z</time>
      </trkpt>
      <trkpt lat="49.40097" lon="3.69055">
        <ele>194.3</ele>
        <time>2016-03-07T15:00:05.490Z</time>
      </trkpt>
      <trkpt lat="49.40098" lon="3.69055">
        <ele>194.3</ele>
        <time>2016-03-07T15:00:06.380Z</time>
      </trkpt>
      <trkpt lat="49.40106" lon="3.6905">
        <ele>194.8</ele>
        <time>2016-03-07T15:00:14.393Z</time>
      </trkpt>
      <trkpt lat="49.40107" lon="3.6905">
        <ele>194.9</ele>
        <time>2016-03-07T15:00:15.392Z</time>
      </trkpt>
      <trkpt lat="49.40115" lon="3.69045">
        <ele>195</ele>
        <time>2016-03-07T15:00:23.395Z</time>
      </trkpt>
      <trkpt lat="49.40116" lon="3.69044">
        <ele>195.1</ele>
        <time>2016-03-07T15:00:24.388Z</time>
      </trkpt>
      <trkpt lat="49.40123" lon="3.6904">
        <ele>195.3</ele>
        <time>2016-03-07T15:00:31.483Z</time>
      </trkpt>
      <trkpt lat="49.40124" lon="3.69039">
        <ele>195.3</ele>
        <time>2016-03-07T15:00:32.367Z</time>
      </trkpt>
      <trkpt lat="49.40133" lon="3.69036">
        <ele>195.4</ele>
        <time>2016-03-07T15:00:40.394Z</time>
      </trkpt>
      <trkpt lat="49.40134" lon="3.69037">
        <ele>195.6</ele>
        <time>2016-03-07T15:00:41.372Z</time>
      </trkpt>
      <trkpt lat="49.40139" lon="3.69048">
        <ele>195.4</ele>
        <time>2016-03-07T15:00:50.408Z</time>
      </trkpt>
      <trkpt lat="49.40139" lon="3.69049">
        <ele>195.4</ele>
        <time>2016-03-07T15:00:51.385Z</time>
      </trkpt>
      <trkpt lat="49.40142" lon="3.6906">
        <ele>195.4</ele>
        <time>2016-03-07T15:00:58.492Z</time>
      </trkpt>
      <trkpt lat="49.40143" lon="3.69062">
        <ele>195.5</ele>
        <time>2016-03-07T15:00:59.478Z</time>
      </trkpt>
      <trkpt lat="49.40146" lon="3.69074">
        <ele>195.4</ele>
        <time>2016-03-07T15:01:07.464Z</time>
      </trkpt>
      <trkpt lat="49.40146" lon="3.69076">
        <ele>195.2</ele>
        <time>2016-03-07T15:01:08.456Z</time>
      </trkpt>
      <trkpt lat="49.40148" lon="3.69088">
        <ele>196.6</ele>
        <time>2016-03-07T15:01:16.473Z</time>
      </trkpt>
      <trkpt lat="49.40148" lon="3.6909">
        <ele>196.8</ele>
        <time>2016-03-07T15:01:17.378Z</time>
      </trkpt>
      <trkpt lat="49.40152" lon="3.69102">
        <ele>196.8</ele>
        <time>2016-03-07T15:01:27.671Z</time>
      </trkpt>
      <trkpt lat="49.40153" lon="3.69102">
        <ele>196.8</ele>
        <time>2016-03-07T15:01:28.436Z</time>
      </trkpt>
      <trkpt lat="49.40154" lon="3.69105">
        <ele>197</ele>
        <time>2016-03-07T15:01:31.482Z</time>
      </trkpt>
      <trkpt lat="49.40154" lon="3.69105">
        <ele>197</ele>
        <time>2016-03-07T15:01:32.380Z</time>
      </trkpt>
      <trkpt lat="49.40154" lon="3.69105">
        <ele>197</ele>
        <time>2016-03-07T15:01:32.395Z</time>
      </trkpt>
      <trkpt lat="49.40154" lon="3.69105">
        <ele>197.1</ele>
        <time>2016-03-07T15:01:33.388Z</time>
      </trkpt>
      <trkpt lat="49.40159" lon="3.69116">
        <ele>197</ele>
        <time>2016-03-07T15:01:46.499Z</time>
      </trkpt>
      <trkpt lat="49.4016" lon="3.69117">
        <ele>196.9</ele>
        <time>2016-03-07T15:01:47.459Z</time>
      </trkpt>
      <trkpt lat="49.40167" lon="3.69123">
        <ele>196.6</ele>
        <time>2016-03-07T15:01:58.487Z</time>
      </trkpt>
      <trkpt lat="49.40168" lon="3.69124">
        <ele>196.6</ele>
        <time>2016-03-07T15:01:59.379Z</time>
      </trkpt>
      <trkpt lat="49.40175" lon="3.69131">
        <ele>197</ele>
        <time>2016-03-07T15:02:07.443Z</time>
      </trkpt>
      <trkpt lat="49.40176" lon="3.69132">
        <ele>197.1</ele>
        <time>2016-03-07T15:02:08.435Z</time>
      </trkpt>
      <trkpt lat="49.40182" lon="3.6914">
        <ele>197</ele>
        <time>2016-03-07T15:02:15.413Z</time>
      </trkpt>
      <trkpt lat="49.40183" lon="3.69142">
        <ele>197.3</ele>
        <time>2016-03-07T15:02:16.398Z</time>
      </trkpt>
      <trkpt lat="49.40189" lon="3.69151">
        <ele>196.8</ele>
        <time>2016-03-07T15:02:24.398Z</time>
      </trkpt>
      <trkpt lat="49.4019" lon="3.69152">
        <ele>196.9</ele>
        <time>2016-03-07T15:02:25.429Z</time>
      </trkpt>
      <trkpt lat="49.40196" lon="3.69161">
        <ele>196.7</ele>
        <time>2016-03-07T15:02:36.455Z</time>
      </trkpt>
      <trkpt lat="49.40197" lon="3.69161">
        <ele>196.8</ele>
        <time>2016-03-07T15:02:37.436Z</time>
      </trkpt>
      <trkpt lat="49.40198" lon="3.69175">
        <ele>197.7</ele>
        <time>2016-03-07T15:02:47.479Z</time>
      </trkpt>
      <trkpt lat="49.40198" lon="3.69177">
        <ele>197.8</ele>
        <time>2016-03-07T15:02:48.463Z</time>
      </trkpt>
      <trkpt lat="49.40199" lon="3.69189">
        <ele>198</ele>
        <time>2016-03-07T15:02:56.476Z</time>
      </trkpt>
      <trkpt lat="49.40199" lon="3.6919">
        <ele>197.9</ele>
        <time>2016-03-07T15:02:57.461Z</time>
      </trkpt>
      <trkpt lat="49.40202" lon="3.69203">
        <ele>197.3</ele>
        <time>2016-03-07T15:03:07.448Z</time>
      </trkpt>
      <trkpt lat="49.40203" lon="3.69205">
        <ele>197.1</ele>
        <time>2016-03-07T15:03:08.447Z</time>
      </trkpt>
      <trkpt lat="49.40206" lon="3.69216">
        <ele>197.1</ele>
        <time>2016-03-07T15:03:14.437Z</time>
      </trkpt>
      <trkpt lat="49.40207" lon="3.69217">
        <ele>197.1</ele>
        <time>2016-03-07T15:03:15.440Z</time>
      </trkpt>
      <trkpt lat="49.40209" lon="3.69229">
        <ele>196.3</ele>
        <time>2016-03-07T15:03:22.415Z</time>
      </trkpt>
      <trkpt lat="49.4021" lon="3.69231">
        <ele>196.2</ele>
        <time>2016-03-07T15:03:23.407Z</time>
      </trkpt>
      <trkpt lat="49.40214" lon="3.69242">
        <ele>196.7</ele>
        <time>2016-03-07T15:03:30.394Z</time>
      </trkpt>
      <trkpt lat="49.40215" lon="3.69244">
        <ele>197.1</ele>
        <time>2016-03-07T15:03:31.436Z</time>
      </trkpt>
      <trkpt lat="49.40218" lon="3.69255">
        <ele>197</ele>
        <time>2016-03-07T15:03:37.508Z</time>
      </trkpt>
      <trkpt lat="49.40218" lon="3.69257">
        <ele>196.9</ele>
        <time>2016-03-07T15:03:38.400Z</time>
      </trkpt>
      <trkpt lat="49.40222" lon="3.69269">
        <ele>197</ele>
        <time>2016-03-07T15:03:45.455Z</time>
      </trkpt>
      <trkpt lat="49.40222" lon="3.69271">
        <ele>197.1</ele>
        <time>2016-03-07T15:03:46.444Z</time>
      </trkpt>
      <trkpt lat="49.40224" lon="3.69284">
        <ele>197.5</ele>
        <time>2016-03-07T15:03:54.482Z</time>
      </trkpt>
      <trkpt lat="49.40224" lon="3.69285">
        <ele>197.5</ele>
        <time>2016-03-07T15:03:55.478Z</time>
      </trkpt>
      <trkpt lat="49.40226" lon="3.69298">
        <ele>197.1</ele>
        <time>2016-03-07T15:04:03.389Z</time>
      </trkpt>
      <trkpt lat="49.40226" lon="3.69299">
        <ele>196.9</ele>
        <time>2016-03-07T15:04:04.386Z</time>
      </trkpt>
      <trkpt lat="49.40228" lon="3.69311">
        <ele>196.8</ele>
        <time>2016-03-07T15:04:12.411Z</time>
      </trkpt>
      <trkpt lat="49.40228" lon="3.69313">
        <ele>197</ele>
        <time>2016-03-07T15:04:13.445Z</time>
      </trkpt>
      <trkpt lat="49.40229" lon="3.69326">
        <ele>196.8</ele>
        <time>2016-03-07T15:04:21.671Z</time>
      </trkpt>
      <trkpt lat="49.40229" lon="3.69327">
        <ele>197</ele>
        <time>2016-03-07T15:04:22.449Z</time>
      </trkpt>
      <trkpt lat="49.40231" lon="3.69341">
        <ele>197.1</ele>
        <time>2016-03-07T15:04:31.444Z</time>
      </trkpt>
      <trkpt lat="49.40231" lon="3.69342">
        <ele>197.4</ele>
        <time>2016-03-07T15:04:32.440Z</time>
      </trkpt>
      <trkpt lat="49.4023" lon="3.69355">
        <ele>195.7</ele>
        <time>2016-03-07T15:04:42.397Z</time>
      </trkpt>
      <trkpt lat="49.40231" lon="3.69356">
        <ele>195.9</ele>
        <time>2016-03-07T15:04:43.451Z</time>
      </trkpt>
      <trkpt lat="49.40231" lon="3.69358">
        <ele>196.3</ele>
        <time>2016-03-07T15:04:45.494Z</time>
      </trkpt>
      <trkpt lat="49.40231" lon="3.69359">
        <ele>196.4</ele>
        <time>2016-03-07T15:04:46.371Z</time>
      </trkpt>
      <trkpt lat="49.40231" lon="3.69359">
        <ele>196.3</ele>
        <time>2016-03-07T15:06:03.462Z</time>
      </trkpt>
      <trkpt lat="49.4023" lon="3.69362">
        <ele>198</ele>
        <time>2016-03-07T15:06:04.450Z</time>
      </trkpt>
      <trkpt lat="49.40231" lon="3.69364">
        <ele>197.7</ele>
        <time>2016-03-07T15:06:10.420Z</time>
      </trkpt>
      <trkpt lat="49.40232" lon="3.69365">
        <ele>197.3</ele>
        <time>2016-03-07T15:06:11.408Z</time>
      </trkpt>
      <trkpt lat="49.40232" lon="3.69365">
        <ele>197.2</ele>
        <time>2016-03-07T15:06:19.435Z</time>
      </trkpt>
      <trkpt lat="49.40231" lon="3.69367">
        <ele>197.2</ele>
        <time>2016-03-07T15:06:20.432Z</time>
      </trkpt>
      <trkpt lat="49.40233" lon="3.69379">
        <ele>196.8</ele>
        <time>2016-03-07T15:06:32.465Z</time>
      </trkpt>
      <trkpt lat="49.40234" lon="3.6938">
        <ele>196.7</ele>
        <time>2016-03-07T15:06:33.450Z</time>
      </trkpt>
      <trkpt lat="49.4024" lon="3.6939">
        <ele>196.6</ele>
        <time>2016-03-07T15:06:42.486Z</time>
      </trkpt>
      <trkpt lat="49.40241" lon="3.69391">
        <ele>196.3</ele>
        <time>2016-03-07T15:06:43.434Z</time>
      </trkpt>
      <trkpt lat="49.40246" lon="3.694">
        <ele>196.4</ele>
        <time>2016-03-07T15:06:50.474Z</time>
      </trkpt>
      <trkpt lat="49.40247" lon="3.69401">
        <ele>196.6</ele>
        <time>2016-03-07T15:06:51.452Z</time>
      </trkpt>
      <trkpt lat="49.40254" lon="3.6941">
        <ele>197.7</ele>
        <time>2016-03-07T15:07:00.392Z</time>
      </trkpt>
      <trkpt lat="49.40255" lon="3.69411">
        <ele>197.9</ele>
        <time>2016-03-07T15:07:01.491Z</time>
      </trkpt>
      <trkpt lat="49.40261" lon="3.6942">
        <ele>197.7</ele>
        <time>2016-03-07T15:07:10.367Z</time>
      </trkpt>
      <trkpt lat="49.40261" lon="3.69422">
        <ele>197.5</ele>
        <time>2016-03-07T15:07:11.368Z</time>
      </trkpt>
      <trkpt lat="49.40266" lon="3.69432">
        <ele>196.7</ele>
        <time>2016-03-07T15:07:19.425Z</time>
      </trkpt>
      <trkpt lat="49.40267" lon="3.69433">
        <ele>196.6</ele>
        <time>2016-03-07T15:07:20.422Z</time>
      </trkpt>
      <trkpt lat="49.40272" lon="3.69443">
        <ele>195.8</ele>
        <time>2016-03-07T15:07:28.409Z</time>
      </trkpt>
      <trkpt lat="49.40273" lon="3.69444">
        <ele>195.6</ele>
        <time>2016-03-07T15:07:29.395Z</time>
      </trkpt>
      <trkpt lat="49.4028" lon="3.69452">
        <ele>194.3</ele>
        <time>2016-03-07T15:07:38.449Z</time>
      </trkpt>
      <trkpt lat="49.40281" lon="3.69453">
        <ele>194.1</ele>
        <time>2016-03-07T15:07:39.450Z</time>
      </trkpt>
      <trkpt lat="49.40288" lon="3.69459">
        <ele>194.5</ele>
        <time>2016-03-07T15:07:47.474Z</time>
      </trkpt>
      <trkpt lat="49.40289" lon="3.69459">
        <ele>194.6</ele>
        <time>2016-03-07T15:07:48.369Z</time>
      </trkpt>
      <trkpt lat="49.40297" lon="3.69465">
        <ele>194.9</ele>
        <time>2016-03-07T15:07:56.428Z</time>
      </trkpt>
      <trkpt lat="49.40298" lon="3.69465">
        <ele>195.1</ele>
        <time>2016-03-07T15:07:57.430Z</time>
      </trkpt>
      <trkpt lat="49.40306" lon="3.6947">
        <ele>196</ele>
        <time>2016-03-07T15:08:06.423Z</time>
      </trkpt>
      <trkpt lat="49.40306" lon="3.6947">
        <ele>196.1</ele>
        <time>2016-03-07T15:08:07.415Z</time>
      </trkpt>
      <trkpt lat="49.40314" lon="3.69476">
        <ele>195.1</ele>
        <time>2016-03-07T15:08:18.389Z</time>
      </trkpt>
      <trkpt lat="49.40315" lon="3.69476">
        <ele>195.1</ele>
        <time>2016-03-07T15:08:19.422Z</time>
      </trkpt>
      <trkpt lat="49.40323" lon="3.69481">
        <ele>194.7</ele>
        <time>2016-03-07T15:08:27.406Z</time>
      </trkpt>
      <trkpt lat="49.40324" lon="3.69482">
        <ele>194.8</ele>
        <time>2016-03-07T15:08:28.404Z</time>
      </trkpt>
      <trkpt lat="49.40332" lon="3.69486">
        <ele>194.9</ele>
        <time>2016-03-07T15:08:36.394Z</time>
      </trkpt>
      <trkpt lat="49.40333" lon="3.69487">
        <ele>194.9</ele>
        <time>2016-03-07T15:08:37.430Z</time>
      </trkpt>
      <trkpt lat="49.40342" lon="3.69492">
        <ele>194.7</ele>
        <time>2016-03-07T15:08:47.402Z</time>
      </trkpt>
      <trkpt lat="49.40342" lon="3.69493">
        <ele>194.8</ele>
        <time>2016-03-07T15:08:48.395Z</time>
      </trkpt>
      <trkpt lat="49.4035" lon="3.69499">
        <ele>194.2</ele>
        <time>2016-03-07T15:08:59.376Z</time>
      </trkpt>
      <trkpt lat="49.4035" lon="3.695">
        <ele>194</ele>
        <time>2016-03-07T15:09:00.371Z</time>
      </trkpt>
      <trkpt lat="49.40357" lon="3.69506">
        <ele>193.9</ele>
        <time>2016-03-07T15:09:08.381Z</time>
      </trkpt>
      <trkpt lat="49.40358" lon="3.69506">
        <ele>193.9</ele>
        <time>2016-03-07T15:09:09.383Z</time>
      </trkpt>
      <trkpt lat="49.40365" lon="3.69513">
        <ele>193.8</ele>
        <time>2016-03-07T15:09:17.385Z</time>
      </trkpt>
      <trkpt lat="49.40366" lon="3.69514">
        <ele>193.8</ele>
        <time>2016-03-07T15:09:18.366Z</time>
      </trkpt>
      <trkpt lat="49.40374" lon="3.6952">
        <ele>193.1</ele>
        <time>2016-03-07T15:09:27.454Z</time>
      </trkpt>
      <trkpt lat="49.40375" lon="3.69521">
        <ele>193</ele>
        <time>2016-03-07T15:09:28.437Z</time>
      </trkpt>
      <trkpt lat="49.40382" lon="3.69528">
        <ele>192</ele>
        <time>2016-03-07T15:09:36.466Z</time>
      </trkpt>
      <trkpt lat="49.40382" lon="3.69529">
        <ele>191.7</ele>
        <time>2016-03-07T15:09:37.459Z</time>
      </trkpt>
      <trkpt lat="49.40389" lon="3.69536">
        <ele>191.4</ele>
        <time>2016-03-07T15:09:44.455Z</time>
      </trkpt>
      <trkpt lat="49.4039" lon="3.69538">
        <ele>191.4</ele>
        <time>2016-03-07T15:09:45.437Z</time>
      </trkpt>
      <trkpt lat="49.40397" lon="3.69546">
        <ele>191.7</ele>
        <time>2016-03-07T15:09:53.421Z</time>
      </trkpt>
      <trkpt lat="49.40397" lon="3.69547">
        <ele>191.8</ele>
        <time>2016-03-07T15:09:54.419Z</time>
      </trkpt>
      <trkpt lat="49.40404" lon="3.69556">
        <ele>191.5</ele>
        <time>2016-03-07T15:10:02.454Z</time>
      </trkpt>
      <trkpt lat="49.40404" lon="3.69557">
        <ele>191.4</ele>
        <time>2016-03-07T15:10:03.433Z</time>
      </trkpt>
      <trkpt lat="49.40411" lon="3.69566">
        <ele>191.7</ele>
        <time>2016-03-07T15:10:11.464Z</time>
      </trkpt>
      <trkpt lat="49.40411" lon="3.69567">
        <ele>191.8</ele>
        <time>2016-03-07T15:10:12.460Z</time>
      </trkpt>
      <trkpt lat="49.40417" lon="3.69576">
        <ele>191</ele>
        <time>2016-03-07T15:10:20.470Z</time>
      </trkpt>
      <trkpt lat="49.40418" lon="3.69577">
        <ele>190.9</ele>
        <time>2016-03-07T15:10:21.463Z</time>
      </trkpt>
      <trkpt lat="49.40423" lon="3.69586">
        <ele>190.6</ele>
        <time>2016-03-07T15:10:28.379Z</time>
      </trkpt>
      <trkpt lat="49.40424" lon="3.69588">
        <ele>190.5</ele>
        <time>2016-03-07T15:10:29.400Z</time>
      </trkpt>
      <trkpt lat="49.4043" lon="3.69596">
        <ele>190.2</ele>
        <time>2016-03-07T15:10:36.605Z</time>
      </trkpt>
      <trkpt lat="49.40431" lon="3.69597">
        <ele>190.2</ele>
        <time>2016-03-07T15:10:37.421Z</time>
      </trkpt>
      <trkpt lat="49.40437" lon="3.69606">
        <ele>190.5</ele>
        <time>2016-03-07T15:10:45.447Z</time>
      </trkpt>
      <trkpt lat="49.40438" lon="3.69607">
        <ele>190.5</ele>
        <time>2016-03-07T15:10:46.427Z</time>
      </trkpt>
      <trkpt lat="49.40444" lon="3.69615">
        <ele>190.6</ele>
        <time>2016-03-07T15:10:53.401Z</time>
      </trkpt>
      <trkpt lat="49.40445" lon="3.69616">
        <ele>190.7</ele>
        <time>2016-03-07T15:10:54.399Z</time>
      </trkpt>
      <trkpt lat="49.40452" lon="3.69623">
        <ele>190.8</ele>
        <time>2016-03-07T15:11:02.468Z</time>
      </trkpt>
      <trkpt lat="49.40453" lon="3.69624">
        <ele>190.8</ele>
        <time>2016-03-07T15:11:03.437Z</time>
      </trkpt>
      <trkpt lat="49.40461" lon="3.6963">
        <ele>190.4</ele>
        <time>2016-03-07T15:11:13.714Z</time>
      </trkpt>
      <trkpt lat="49.40462" lon="3.69631">
        <ele>190.5</ele>
        <time>2016-03-07T15:11:14.395Z</time>
      </trkpt>
      <trkpt lat="49.4047" lon="3.69638">
        <ele>190.7</ele>
        <time>2016-03-07T15:11:23.403Z</time>
      </trkpt>
      <trkpt lat="49.40471" lon="3.69639">
        <ele>190.9</ele>
        <time>2016-03-07T15:11:24.394Z</time>
      </trkpt>
      <trkpt lat="49.40477" lon="3.69647">
        <ele>191.2</ele>
        <time>2016-03-07T15:11:32.417Z</time>
      </trkpt>
      <trkpt lat="49.40478" lon="3.69648">
        <ele>191.2</ele>
        <time>2016-03-07T15:11:33.407Z</time>
      </trkpt>
      <trkpt lat="49.40484" lon="3.69658">
        <ele>189.7</ele>
        <time>2016-03-07T15:11:43.443Z</time>
      </trkpt>
      <trkpt lat="49.40484" lon="3.69659">
        <ele>189.6</ele>
        <time>2016-03-07T15:11:44.442Z</time>
      </trkpt>
      <trkpt lat="49.40489" lon="3.69671">
        <ele>189.2</ele>
        <time>2016-03-07T15:11:52.407Z</time>
      </trkpt>
      <trkpt lat="49.40489" lon="3.69672">
        <ele>189.1</ele>
        <time>2016-03-07T15:11:53.422Z</time>
      </trkpt>
      <trkpt lat="49.40493" lon="3.69683">
        <ele>188.3</ele>
        <time>2016-03-07T15:12:01.445Z</time>
      </trkpt>
      <trkpt lat="49.40493" lon="3.69685">
        <ele>188.3</ele>
        <time>2016-03-07T15:12:02.434Z</time>
      </trkpt>
      <trkpt lat="49.40497" lon="3.69696">
        <ele>188</ele>
        <time>2016-03-07T15:12:10.443Z</time>
      </trkpt>
      <trkpt lat="49.40498" lon="3.69697">
        <ele>187.8</ele>
        <time>2016-03-07T15:12:11.446Z</time>
      </trkpt>
      <trkpt lat="49.40501" lon="3.69708">
        <ele>187</ele>
        <time>2016-03-07T15:12:19.446Z</time>
      </trkpt>
      <trkpt lat="49.40502" lon="3.6971">
        <ele>187</ele>
        <time>2016-03-07T15:12:20.427Z</time>
      </trkpt>
      <trkpt lat="49.40505" lon="3.69722">
        <ele>186.9</ele>
        <time>2016-03-07T15:12:28.411Z</time>
      </trkpt>
      <trkpt lat="49.40505" lon="3.69723">
        <ele>186.9</ele>
        <time>2016-03-07T15:12:29.382Z</time>
      </trkpt>
      <trkpt lat="49.40509" lon="3.69735">
        <ele>187.3</ele>
        <time>2016-03-07T15:12:37.495Z</time>
      </trkpt>
      <trkpt lat="49.40509" lon="3.69737">
        <ele>187.3</ele>
        <time>2016-03-07T15:12:38.400Z</time>
      </trkpt>
      <trkpt lat="49.40513" lon="3.69747">
        <ele>187.9</ele>
        <time>2016-03-07T15:12:46.615Z</time>
      </trkpt>
      <trkpt lat="49.40513" lon="3.69749">
        <ele>187.5</ele>
        <time>2016-03-07T15:12:47.408Z</time>
      </trkpt>
      <trkpt lat="49.40518" lon="3.69759">
        <ele>186.4</ele>
        <time>2016-03-07T15:12:55.465Z</time>
      </trkpt>
      <trkpt lat="49.40518" lon="3.6976">
        <ele>186.2</ele>
        <time>2016-03-07T15:12:56.443Z</time>
      </trkpt>
      <trkpt lat="49.40522" lon="3.69771">
        <ele>187.2</ele>
        <time>2016-03-07T15:13:04.421Z</time>
      </trkpt>
      <trkpt lat="49.40523" lon="3.69772">
        <ele>187.1</ele>
        <time>2016-03-07T15:13:05.405Z</time>
      </trkpt>
      <trkpt lat="49.40527" lon="3.69783">
        <ele>186.9</ele>
        <time>2016-03-07T15:13:12.408Z</time>
      </trkpt>
      <trkpt lat="49.40528" lon="3.69785">
        <ele>187</ele>
        <time>2016-03-07T15:13:13.446Z</time>
      </trkpt>
      <trkpt lat="49.40534" lon="3.69792">
        <ele>187.1</ele>
        <time>2016-03-07T15:13:20.452Z</time>
      </trkpt>
      <trkpt lat="49.40535" lon="3.69793">
        <ele>187.4</ele>
        <time>2016-03-07T15:13:21.455Z</time>
      </trkpt>
      <trkpt lat="49.40542" lon="3.69802">
        <ele>188.7</ele>
        <time>2016-03-07T15:13:29.415Z</time>
      </trkpt>
      <trkpt lat="49.40542" lon="3.69803">
        <ele>188.9</ele>
        <time>2016-03-07T15:13:30.402Z</time>
      </trkpt>
      <trkpt lat="49.40548" lon="3.69811">
        <ele>189.1</ele>
        <time>2016-03-07T15:13:38.460Z</time>
      </trkpt>
      <trkpt lat="49.40548" lon="3.69812">
        <ele>189</ele>
        <time>2016-03-07T15:13:39.437Z</time>
      </trkpt>
      <trkpt lat="49.40554" lon="3.69822">
        <ele>188.7</ele>
        <time>2016-03-07T15:13:47.419Z</time>
      </trkpt>
      <trkpt lat="49.40554" lon="3.69823">
        <ele>188.8</ele>
        <time>2016-03-07T15:13:48.402Z</time>
      </trkpt>
      <trkpt lat="49.4056" lon="3.69833">
        <ele>189.9</ele>
        <time>2016-03-07T15:13:57.422Z</time>
      </trkpt>
      <trkpt lat="49.4056" lon="3.69834">
        <ele>189.7</ele>
        <time>2016-03-07T15:13:58.396Z</time>
      </trkpt>
      <trkpt lat="49.40566" lon="3.69842">
        <ele>189.7</ele>
        <time>2016-03-07T15:14:06.403Z</time>
      </trkpt>
      <trkpt lat="49.40567" lon="3.69844">
        <ele>189.9</ele>
        <time>2016-03-07T15:14:07.442Z</time>
      </trkpt>
      <trkpt lat="49.40573" lon="3.69852">
        <ele>190.6</ele>
        <time>2016-03-07T15:14:15.405Z</time>
      </trkpt>
      <trkpt lat="49.40574" lon="3.69854">
        <ele>190.6</ele>
        <time>2016-03-07T15:14:16.409Z</time>
      </trkpt>
      <trkpt lat="49.40578" lon="3.69865">
        <ele>190.5</ele>
        <time>2016-03-07T15:14:25.457Z</time>
      </trkpt>
      <trkpt lat="49.40579" lon="3.69866">
        <ele>190.7</ele>
        <time>2016-03-07T15:14:26.434Z</time>
      </trkpt>
      <trkpt lat="49.40581" lon="3.69878">
        <ele>191.5</ele>
        <time>2016-03-07T15:14:35.474Z</time>
      </trkpt>
      <trkpt lat="49.40581" lon="3.6988">
        <ele>191.6</ele>
        <time>2016-03-07T15:14:36.472Z</time>
      </trkpt>
      <trkpt lat="49.4058" lon="3.69893">
        <ele>190.9</ele>
        <time>2016-03-07T15:14:44.471Z</time>
      </trkpt>
      <trkpt lat="49.4058" lon="3.69894">
        <ele>191</ele>
        <time>2016-03-07T15:14:45.459Z</time>
      </trkpt>
      <trkpt lat="49.40582" lon="3.69907">
        <ele>191.2</ele>
        <time>2016-03-07T15:14:53.493Z</time>
      </trkpt>
      <trkpt lat="49.40582" lon="3.69908">
        <ele>191.3</ele>
        <time>2016-03-07T15:14:54.474Z</time>
      </trkpt>
      <trkpt lat="49.40585" lon="3.6992">
        <ele>191</ele>
        <time>2016-03-07T15:15:03.473Z</time>
      </trkpt>
      <trkpt lat="49.40586" lon="3.69921">
        <ele>190.7</ele>
        <time>2016-03-07T15:15:04.382Z</time>
      </trkpt>
      <trkpt lat="49.40587" lon="3.69934">
        <ele>189.7</ele>
        <time>2016-03-07T15:15:12.603Z</time>
      </trkpt>
      <trkpt lat="49.40587" lon="3.69937">
        <ele>189.7</ele>
        <time>2016-03-07T15:15:13.474Z</time>
      </trkpt>
      <trkpt lat="49.40588" lon="3.6995">
        <ele>190.2</ele>
        <time>2016-03-07T15:15:20.456Z</time>
      </trkpt>
      <trkpt lat="49.40588" lon="3.69952">
        <ele>190.3</ele>
        <time>2016-03-07T15:15:21.443Z</time>
      </trkpt>
      <trkpt lat="49.40589" lon="3.69965">
        <ele>191.2</ele>
        <time>2016-03-07T15:15:27.431Z</time>
      </trkpt>
      <trkpt lat="49.40589" lon="3.69967">
        <ele>191.3</ele>
        <time>2016-03-07T15:15:28.406Z</time>
      </trkpt>
      <trkpt lat="49.40592" lon="3.69978">
        <ele>190.7</ele>
        <time>2016-03-07T15:15:35.406Z</time>
      </trkpt>
      <trkpt lat="49.40593" lon="3.6998">
        <ele>190.7</ele>
        <time>2016-03-07T15:15:36.404Z</time>
      </trkpt>
      <trkpt lat="49.40597" lon="3.69991">
        <ele>191.5</ele>
        <time>2016-03-07T15:15:43.454Z</time>
      </trkpt>
      <trkpt lat="49.40598" lon="3.69993">
        <ele>191.4</ele>
        <time>2016-03-07T15:15:44.429Z</time>
      </trkpt>
      <trkpt lat="49.40604" lon="3.70002">
        <ele>190.8</ele>
        <time>2016-03-07T15:15:52.517Z</time>
      </trkpt>
      <trkpt lat="49.40605" lon="3.70003">
        <ele>190.7</ele>
        <time>2016-03-07T15:15:53.375Z</time>
      </trkpt>
      <trkpt lat="49.40611" lon="3.70012">
        <ele>189.7</ele>
        <time>2016-03-07T15:16:01.709Z</time>
      </trkpt>
      <trkpt lat="49.40612" lon="3.70013">
        <ele>189.4</ele>
        <time>2016-03-07T15:16:02.369Z</time>
      </trkpt>
      <trkpt lat="49.40618" lon="3.70021">
        <ele>189.6</ele>
        <time>2016-03-07T15:16:10.471Z</time>
      </trkpt>
      <trkpt lat="49.40619" lon="3.70022">
        <ele>189.6</ele>
        <time>2016-03-07T15:16:11.370Z</time>
      </trkpt>
      <trkpt lat="49.40625" lon="3.70032">
        <ele>189.9</ele>
        <time>2016-03-07T15:16:19.455Z</time>
      </trkpt>
      <trkpt lat="49.40626" lon="3.70033">
        <ele>189.8</ele>
        <time>2016-03-07T15:16:20.443Z</time>
      </trkpt>
      <trkpt lat="49.40632" lon="3.70042">
        <ele>190</ele>
        <time>2016-03-07T15:16:29.476Z</time>
      </trkpt>
      <trkpt lat="49.40633" lon="3.70043">
        <ele>189.9</ele>
        <time>2016-03-07T15:16:30.386Z</time>
      </trkpt>
      <trkpt lat="49.40639" lon="3.70052">
        <ele>189.2</ele>
        <time>2016-03-07T15:16:38.450Z</time>
      </trkpt>
      <trkpt lat="49.4064" lon="3.70053">
        <ele>189.3</ele>
        <time>2016-03-07T15:16:39.435Z</time>
      </trkpt>
      <trkpt lat="49.40644" lon="3.70065">
        <ele>189.2</ele>
        <time>2016-03-07T15:16:47.426Z</time>
      </trkpt>
      <trkpt lat="49.40644" lon="3.70067">
        <ele>189.1</ele>
        <time>2016-03-07T15:16:48.595Z</time>
      </trkpt>
      <trkpt lat="49.40649" lon="3.70077">
        <ele>189.6</ele>
        <time>2016-03-07T15:16:56.485Z</time>
      </trkpt>
      <trkpt lat="49.40649" lon="3.70079">
        <ele>189.8</ele>
        <time>2016-03-07T15:16:57.468Z</time>
      </trkpt>
      <trkpt lat="49.40652" lon="3.70091">
        <ele>190.4</ele>
        <time>2016-03-07T15:17:05.408Z</time>
      </trkpt>
      <trkpt lat="49.40653" lon="3.70092">
        <ele>190.4</ele>
        <time>2016-03-07T15:17:06.384Z</time>
      </trkpt>
      <trkpt lat="49.40657" lon="3.70103">
        <ele>190.8</ele>
        <time>2016-03-07T15:17:14.395Z</time>
      </trkpt>
      <trkpt lat="49.40658" lon="3.70104">
        <ele>191</ele>
        <time>2016-03-07T15:17:15.380Z</time>
      </trkpt>
      <trkpt lat="49.40663" lon="3.70116">
        <ele>192.1</ele>
        <time>2016-03-07T15:17:23.465Z</time>
      </trkpt>
      <trkpt lat="49.40663" lon="3.70117">
        <ele>192.1</ele>
        <time>2016-03-07T15:17:24.458Z</time>
      </trkpt>
      <trkpt lat="49.40667" lon="3.70128">
        <ele>192.7</ele>
        <time>2016-03-07T15:17:32.745Z</time>
      </trkpt>
      <trkpt lat="49.40668" lon="3.7013">
        <ele>192.8</ele>
        <time>2016-03-07T15:17:33.467Z</time>
      </trkpt>
      <trkpt lat="49.40672" lon="3.70141">
        <ele>192.2</ele>
        <time>2016-03-07T15:17:41.502Z</time>
      </trkpt>
      <trkpt lat="49.40673" lon="3.70142">
        <ele>192.2</ele>
        <time>2016-03-07T15:17:42.396Z</time>
      </trkpt>
      <trkpt lat="49.40679" lon="3.70151">
        <ele>192.7</ele>
        <time>2016-03-07T15:17:50.404Z</time>
      </trkpt>
      <trkpt lat="49.4068" lon="3.70152">
        <ele>192.8</ele>
        <time>2016-03-07T15:17:51.399Z</time>
      </trkpt>
      <trkpt lat="49.40685" lon="3.70162">
        <ele>194.4</ele>
        <time>2016-03-07T15:18:00.392Z</time>
      </trkpt>
      <trkpt lat="49.40686" lon="3.70163">
        <ele>194.4</ele>
        <time>2016-03-07T15:18:01.419Z</time>
      </trkpt>
      <trkpt lat="49.40692" lon="3.70173">
        <ele>195.1</ele>
        <time>2016-03-07T15:18:09.398Z</time>
      </trkpt>
      <trkpt lat="49.40693" lon="3.70174">
        <ele>195.3</ele>
        <time>2016-03-07T15:18:10.381Z</time>
      </trkpt>
      <trkpt lat="49.40699" lon="3.70182">
        <ele>195.6</ele>
        <time>2016-03-07T15:18:16.476Z</time>
      </trkpt>
      <trkpt lat="49.407" lon="3.70183">
        <ele>195.6</ele>
        <time>2016-03-07T15:18:17.459Z</time>
      </trkpt>
      <trkpt lat="49.40706" lon="3.70193">
        <ele>195.7</ele>
        <time>2016-03-07T15:18:24.417Z</time>
      </trkpt>
      <trkpt lat="49.40707" lon="3.70194">
        <ele>195.7</ele>
        <time>2016-03-07T15:18:25.437Z</time>
      </trkpt>
      <trkpt lat="49.40707" lon="3.70194">
        <ele>195.7</ele>
        <time>2016-03-07T15:18:25.457Z</time>
      </trkpt>
      <trkpt lat="49.40707" lon="3.70194">
        <ele>195.7</ele>
        <time>2016-03-07T15:18:26.471Z</time>
      </trkpt>
      <trkpt lat="49.40707" lon="3.70194">
        <ele>195.7</ele>
        <time>2016-03-07T15:18:26.492Z</time>
      </trkpt>
      <trkpt lat="49.40707" lon="3.70194">
        <ele>195.3</ele>
        <time>2016-03-07T15:18:27.382Z</time>
      </trkpt>
      <trkpt lat="49.40713" lon="3.70203">
        <ele>195.7</ele>
        <time>2016-03-07T15:18:34.500Z</time>
      </trkpt>
      <trkpt lat="49.40713" lon="3.70204">
        <ele>195.7</ele>
        <time>2016-03-07T15:18:35.382Z</time>
      </trkpt>
      <trkpt lat="49.40721" lon="3.70212">
        <ele>195.8</ele>
        <time>2016-03-07T15:18:41.398Z</time>
      </trkpt>
      <trkpt lat="49.40722" lon="3.70213">
        <ele>195.7</ele>
        <time>2016-03-07T15:18:42.378Z</time>
      </trkpt>
      <trkpt lat="49.40727" lon="3.70221">
        <ele>196.4</ele>
        <time>2016-03-07T15:18:47.502Z</time>
      </trkpt>
      <trkpt lat="49.40728" lon="3.70223">
        <ele>196.6</ele>
        <time>2016-03-07T15:18:48.384Z</time>
      </trkpt>
      <trkpt lat="49.40734" lon="3.70232">
        <ele>196.7</ele>
        <time>2016-03-07T15:18:54.440Z</time>
      </trkpt>
      <trkpt lat="49.40735" lon="3.70234">
        <ele>196.9</ele>
        <time>2016-03-07T15:18:55.428Z</time>
      </trkpt>
      <trkpt lat="49.40741" lon="3.70241">
        <ele>197</ele>
        <time>2016-03-07T15:19:01.453Z</time>
      </trkpt>
      <trkpt lat="49.40742" lon="3.70242">
        <ele>197.1</ele>
        <time>2016-03-07T15:19:02.436Z</time>
      </trkpt>
      <trkpt lat="49.40748" lon="3.70251">
        <ele>197</ele>
        <time>2016-03-07T15:19:09.408Z</time>
      </trkpt>
      <trkpt lat="49.40749" lon="3.70253">
        <ele>196.9</ele>
        <time>2016-03-07T15:19:10.386Z</time>
      </trkpt>
      <trkpt lat="49.40755" lon="3.70262">
        <ele>196.7</ele>
        <time>2016-03-07T15:19:17.484Z</time>
      </trkpt>
      <trkpt lat="49.40756" lon="3.70264">
        <ele>196.5</ele>
        <time>2016-03-07T15:19:18.379Z</time>
      </trkpt>
      <trkpt lat="49.40762" lon="3.70273">
        <ele>196.1</ele>
        <time>2016-03-07T15:19:27.478Z</time>
      </trkpt>
      <trkpt lat="49.40763" lon="3.70274">
        <ele>196.1</ele>
        <time>2016-03-07T15:19:28.465Z</time>
      </trkpt>
      <trkpt lat="49.4077" lon="3.70283">
        <ele>195.9</ele>
        <time>2016-03-07T15:19:36.495Z</time>
      </trkpt>
      <trkpt lat="49.4077" lon="3.70284">
        <ele>196</ele>
        <time>2016-03-07T15:19:37.452Z</time>
      </trkpt>
      <trkpt lat="49.40777" lon="3.70291">
        <ele>195.9</ele>
        <time>2016-03-07T15:19:44.520Z</time>
      </trkpt>
      <trkpt lat="49.40778" lon="3.70291">
        <ele>195.8</ele>
        <time>2016-03-07T15:19:45.480Z</time>
      </trkpt>
      <trkpt lat="49.40786" lon="3.70298">
        <ele>195.6</ele>
        <time>2016-03-07T15:19:54.603Z</time>
      </trkpt>
      <trkpt lat="49.40787" lon="3.70299">
        <ele>195.6</ele>
        <time>2016-03-07T15:19:55.421Z</time>
      </trkpt>
      <trkpt lat="49.40794" lon="3.70305">
        <ele>195.2</ele>
        <time>2016-03-07T15:20:03.462Z</time>
      </trkpt>
      <trkpt lat="49.40795" lon="3.70306">
        <ele>195.2</ele>
        <time>2016-03-07T15:20:04.480Z</time>
      </trkpt>
      <trkpt lat="49.40802" lon="3.70313">
        <ele>195.1</ele>
        <time>2016-03-07T15:20:14.436Z</time>
      </trkpt>
      <trkpt lat="49.40803" lon="3.70314">
        <ele>195</ele>
        <time>2016-03-07T15:20:15.434Z</time>
      </trkpt>
      <trkpt lat="49.4081" lon="3.7032">
        <ele>194.8</ele>
        <time>2016-03-07T15:20:22.411Z</time>
      </trkpt>
      <trkpt lat="49.40811" lon="3.70321">
        <ele>194.8</ele>
        <time>2016-03-07T15:20:23.399Z</time>
      </trkpt>
      <trkpt lat="49.40818" lon="3.70329">
        <ele>194</ele>
        <time>2016-03-07T15:20:31.442Z</time>
      </trkpt>
      <trkpt lat="49.40819" lon="3.70329">
        <ele>193.9</ele>
        <time>2016-03-07T15:20:32.441Z</time>
      </trkpt>
      <trkpt lat="49.40826" lon="3.70336">
        <ele>193.1</ele>
        <time>2016-03-07T15:20:40.688Z</time>
      </trkpt>
      <trkpt lat="49.40827" lon="3.70336">
        <ele>193</ele>
        <time>2016-03-07T15:20:41.468Z</time>
      </trkpt>
      <trkpt lat="49.40835" lon="3.70341">
        <ele>192.4</ele>
        <time>2016-03-07T15:20:49.454Z</time>
      </trkpt>
      <trkpt lat="49.40836" lon="3.70342">
        <ele>192.4</ele>
        <time>2016-03-07T15:20:50.444Z</time>
      </trkpt>
      <trkpt lat="49.40844" lon="3.70345">
        <ele>192.1</ele>
        <time>2016-03-07T15:20:58.469Z</time>
      </trkpt>
      <trkpt lat="49.40845" lon="3.70346">
        <ele>192.1</ele>
        <time>2016-03-07T15:20:59.455Z</time>
      </trkpt>
      <trkpt lat="49.40853" lon="3.70345">
        <ele>191.8</ele>
        <time>2016-03-07T15:21:07.453Z</time>
      </trkpt>
      <trkpt lat="49.40854" lon="3.70344">
        <ele>191.8</ele>
        <time>2016-03-07T15:21:08.426Z</time>
      </trkpt>
      <trkpt lat="49.40863" lon="3.70339">
        <ele>192.3</ele>
        <time>2016-03-07T15:21:17.432Z</time>
      </trkpt>
      <trkpt lat="49.40863" lon="3.70338">
        <ele>192.1</ele>
        <time>2016-03-07T15:21:18.414Z</time>
      </trkpt>
      <trkpt lat="49.40869" lon="3.7033">
        <ele>191.6</ele>
        <time>2016-03-07T15:21:28.404Z</time>
      </trkpt>
      <trkpt lat="49.40869" lon="3.7033">
        <ele>191.6</ele>
        <time>2016-03-07T15:21:29.386Z</time>
      </trkpt>
      <trkpt lat="49.40869" lon="3.70329">
        <ele>191.7</ele>
        <time>2016-03-07T15:21:34.488Z</time>
      </trkpt>
      <trkpt lat="49.4087" lon="3.70328">
        <ele>191.7</ele>
        <time>2016-03-07T15:21:35.474Z</time>
      </trkpt>
      <trkpt lat="49.40871" lon="3.70327">
        <ele>191.6</ele>
        <time>2016-03-07T15:21:37.430Z</time>
      </trkpt>
      <trkpt lat="49.40871" lon="3.70327">
        <ele>191.6</ele>
        <time>2016-03-07T15:21:38.435Z</time>
      </trkpt>
      <trkpt lat="49.40871" lon="3.70326">
        <ele>191.7</ele>
        <time>2016-03-07T15:21:40.471Z</time>
      </trkpt>
      <trkpt lat="49.40871" lon="3.70326">
        <ele>191.7</ele>
        <time>2016-03-07T15:21:41.455Z</time>
      </trkpt>
      <trkpt lat="49.40873" lon="3.70319">
        <ele>190.1</ele>
        <time>2016-03-07T15:21:56.410Z</time>
      </trkpt>
      <trkpt lat="49.40873" lon="3.7032">
        <ele>190</ele>
        <time>2016-03-07T15:21:57.364Z</time>
      </trkpt>
      <trkpt lat="49.40873" lon="3.7032">
        <ele>189.8</ele>
        <time>2016-03-07T15:22:01.413Z</time>
      </trkpt>
      <trkpt lat="49.40873" lon="3.70319">
        <ele>189.8</ele>
        <time>2016-03-07T15:22:02.410Z</time>
      </trkpt>
      <trkpt lat="49.40874" lon="3.70317">
        <ele>189.9</ele>
        <time>2016-03-07T15:22:05.390Z</time>
      </trkpt>
      <trkpt lat="49.40874" lon="3.70317">
        <ele>189.9</ele>
        <time>2016-03-07T15:22:06.383Z</time>
      </trkpt>
      <trkpt lat="49.40874" lon="3.70317">
        <ele>190</ele>
        <time>2016-03-07T15:22:31.428Z</time>
      </trkpt>
      <trkpt lat="49.40876" lon="3.70316">
        <ele>190</ele>
        <time>2016-03-07T15:22:32.419Z</time>
      </trkpt>
      <trkpt lat="49.40879" lon="3.70315">
        <ele>189.9</ele>
        <time>2016-03-07T15:22:37.440Z</time>
      </trkpt>
      <trkpt lat="49.40879" lon="3.70315">
        <ele>189.9</ele>
        <time>2016-03-07T15:22:38.434Z</time>
      </trkpt>
      <trkpt lat="49.40879" lon="3.70315">
        <ele>190</ele>
        <time>2016-03-07T15:22:47.398Z</time>
      </trkpt>
      <trkpt lat="49.40879" lon="3.70315">
        <ele>189.9</ele>
        <time>2016-03-07T15:22:48.358Z</time>
      </trkpt>
      <trkpt lat="49.40885" lon="3.70306">
        <ele>189.6</ele>
        <time>2016-03-07T15:23:07.562Z</time>
      </trkpt>
      <trkpt lat="49.40885" lon="3.70305">
        <ele>189.5</ele>
        <time>2016-03-07T15:23:08.423Z</time>
      </trkpt>
      <trkpt lat="49.40886" lon="3.70303">
        <ele>189.6</ele>
        <time>2016-03-07T15:23:09.453Z</time>
      </trkpt>
      <trkpt lat="49.40886" lon="3.70303">
        <ele>189.6</ele>
        <time>2016-03-07T15:23:10.437Z</time>
      </trkpt>
      <trkpt lat="49.40886" lon="3.70303">
        <ele>189.6</ele>
        <time>2016-03-07T15:23:16.401Z</time>
      </trkpt>
      <trkpt lat="49.40886" lon="3.70303">
        <ele>189.6</ele>
        <time>2016-03-07T15:23:17.395Z</time>
      </trkpt>
      <trkpt lat="49.4089" lon="3.70291">
        <ele>190</ele>
        <time>2016-03-07T15:23:26.469Z</time>
      </trkpt>
      <trkpt lat="49.4089" lon="3.7029">
        <ele>190.1</ele>
        <time>2016-03-07T15:23:27.377Z</time>
      </trkpt>
      <trkpt lat="49.40893" lon="3.70281">
        <ele>190.2</ele>
        <time>2016-03-07T15:23:33.480Z</time>
      </trkpt>
      <trkpt lat="49.40894" lon="3.7028">
        <ele>190.2</ele>
        <time>2016-03-07T15:23:34.588Z</time>
      </trkpt>
      <trkpt lat="49.40894" lon="3.7028">
        <ele>190.1</ele>
        <time>2016-03-07T15:25:33.385Z</time>
      </trkpt>
      <trkpt lat="49.40894" lon="3.70282">
        <ele>189.5</ele>
        <time>2016-03-07T15:25:34.370Z</time>
      </trkpt>
      <trkpt lat="49.40894" lon="3.70281">
        <ele>189.4</ele>
        <time>2016-03-07T15:25:35.423Z</time>
      </trkpt>
      <trkpt lat="49.40893" lon="3.7028">
        <ele>189.5</ele>
        <time>2016-03-07T15:25:36.403Z</time>
      </trkpt>
      <trkpt lat="49.40893" lon="3.70279">
        <ele>189.5</ele>
        <time>2016-03-07T15:25:39.456Z</time>
      </trkpt>
      <trkpt lat="49.40893" lon="3.70279">
        <ele>189.5</ele>
        <time>2016-03-07T15:25:40.449Z</time>
      </trkpt>
      <trkpt lat="49.40896" lon="3.70268">
        <ele>189.3</ele>
        <time>2016-03-07T15:25:47.424Z</time>
      </trkpt>
      <trkpt lat="49.40897" lon="3.70266">
        <ele>189.4</ele>
        <time>2016-03-07T15:25:48.427Z</time>
      </trkpt>
      <trkpt lat="49.409" lon="3.70254">
        <ele>189.6</ele>
        <time>2016-03-07T15:25:54.420Z</time>
      </trkpt>
      <trkpt lat="49.40901" lon="3.70253">
        <ele>189.8</ele>
        <time>2016-03-07T15:25:55.427Z</time>
      </trkpt>
      <trkpt lat="49.40904" lon="3.70241">
        <ele>190</ele>
        <time>2016-03-07T15:26:01.441Z</time>
      </trkpt>
      <trkpt lat="49.40905" lon="3.70239">
        <ele>190.2</ele>
        <time>2016-03-07T15:26:02.438Z</time>
      </trkpt>
      <trkpt lat="49.40908" lon="3.70227">
        <ele>191.3</ele>
        <time>2016-03-07T15:26:08.439Z</time>
      </trkpt>
      <trkpt lat="49.40908" lon="3.70225">
        <ele>191.5</ele>
        <time>2016-03-07T15:26:09.431Z</time>
      </trkpt>
      <trkpt lat="49.40908" lon="3.70221">
        <ele>191.8</ele>
        <time>2016-03-07T15:26:11.385Z</time>
      </trkpt>
      <trkpt lat="49.40908" lon="3.70222">
        <ele>191.7</ele>
        <time>2016-03-07T15:26:12.363Z</time>
      </trkpt>
      <trkpt lat="49.40908" lon="3.70222">
        <ele>191.6</ele>
        <time>2016-03-07T15:26:13.440Z</time>
      </trkpt>
      <trkpt lat="49.40908" lon="3.70221">
        <ele>191.7</ele>
        <time>2016-03-07T15:26:14.418Z</time>
      </trkpt>
      <trkpt lat="49.4091" lon="3.70209">
        <ele>191.5</ele>
        <time>2016-03-07T15:26:21.413Z</time>
      </trkpt>
      <trkpt lat="49.4091" lon="3.70207">
        <ele>191.6</ele>
        <time>2016-03-07T15:26:22.395Z</time>
      </trkpt>
      <trkpt lat="49.4091" lon="3.70198">
        <ele>191.7</ele>
        <time>2016-03-07T15:26:26.473Z</time>
      </trkpt>
      <trkpt lat="49.4091" lon="3.70198">
        <ele>191.7</ele>
        <time>2016-03-07T15:26:27.463Z</time>
      </trkpt>
      <trkpt lat="49.40911" lon="3.70198">
        <ele>191.2</ele>
        <time>2016-03-07T15:26:30.405Z</time>
      </trkpt>
      <trkpt lat="49.40911" lon="3.70197">
        <ele>191</ele>
        <time>2016-03-07T15:26:31.448Z</time>
      </trkpt>
      <trkpt lat="49.40911" lon="3.70184">
        <ele>191</ele>
        <time>2016-03-07T15:26:38.464Z</time>
      </trkpt>
      <trkpt lat="49.40911" lon="3.70182">
        <ele>191.1</ele>
        <time>2016-03-07T15:26:39.447Z</time>
      </trkpt>
      <trkpt lat="49.40911" lon="3.70171">
        <ele>192.1</ele>
        <time>2016-03-07T15:26:45.385Z</time>
      </trkpt>
      <trkpt lat="49.40911" lon="3.70169">
        <ele>192.1</ele>
        <time>2016-03-07T15:26:46.382Z</time>
      </trkpt>
      <trkpt lat="49.40913" lon="3.70156">
        <ele>192.3</ele>
        <time>2016-03-07T15:26:52.469Z</time>
      </trkpt>
      <trkpt lat="49.40914" lon="3.70153">
        <ele>192.4</ele>
        <time>2016-03-07T15:26:53.453Z</time>
      </trkpt>
      <trkpt lat="49.40918" lon="3.70143">
        <ele>192</ele>
        <time>2016-03-07T15:26:59.443Z</time>
      </trkpt>
      <trkpt lat="49.4092" lon="3.70142">
        <ele>192</ele>
        <time>2016-03-07T15:27:00.443Z</time>
      </trkpt>
      <trkpt lat="49.40928" lon="3.70137">
        <ele>191.6</ele>
        <time>2016-03-07T15:27:07.454Z</time>
      </trkpt>
      <trkpt lat="49.40929" lon="3.70137">
        <ele>191.4</ele>
        <time>2016-03-07T15:27:08.456Z</time>
      </trkpt>
      <trkpt lat="49.40937" lon="3.70138">
        <ele>191.9</ele>
        <time>2016-03-07T15:27:15.468Z</time>
      </trkpt>
      <trkpt lat="49.40939" lon="3.70139">
        <ele>191.7</ele>
        <time>2016-03-07T15:27:16.462Z</time>
      </trkpt>
      <trkpt lat="49.40946" lon="3.70144">
        <ele>191.5</ele>
        <time>2016-03-07T15:27:21.406Z</time>
      </trkpt>
      <trkpt lat="49.40948" lon="3.70145">
        <ele>191.6</ele>
        <time>2016-03-07T15:27:22.399Z</time>
      </trkpt>
      <trkpt lat="49.40956" lon="3.70149">
        <ele>191.3</ele>
        <time>2016-03-07T15:27:28.501Z</time>
      </trkpt>
      <trkpt lat="49.40956" lon="3.7015">
        <ele>191.4</ele>
        <time>2016-03-07T15:27:29.472Z</time>
      </trkpt>
      <trkpt lat="49.40963" lon="3.70156">
        <ele>191.8</ele>
        <time>2016-03-07T15:27:35.416Z</time>
      </trkpt>
      <trkpt lat="49.40965" lon="3.70158">
        <ele>191.8</ele>
        <time>2016-03-07T15:27:36.408Z</time>
      </trkpt>
      <trkpt lat="49.40971" lon="3.70165">
        <ele>193</ele>
        <time>2016-03-07T15:27:41.406Z</time>
      </trkpt>
      <trkpt lat="49.40972" lon="3.70166">
        <ele>193</ele>
        <time>2016-03-07T15:27:42.401Z</time>
      </trkpt>
      <trkpt lat="49.40978" lon="3.70173">
        <ele>193.9</ele>
        <time>2016-03-07T15:27:48.422Z</time>
      </trkpt>
      <trkpt lat="49.40979" lon="3.70174">
        <ele>194</ele>
        <time>2016-03-07T15:27:49.490Z</time>
      </trkpt>
      <trkpt lat="49.40987" lon="3.70179">
        <ele>194.3</ele>
        <time>2016-03-07T15:27:55.465Z</time>
      </trkpt>
      <trkpt lat="49.40988" lon="3.7018">
        <ele>194.4</ele>
        <time>2016-03-07T15:27:56.469Z</time>
      </trkpt>
      <trkpt lat="49.40995" lon="3.70184">
        <ele>195</ele>
        <time>2016-03-07T15:28:02.461Z</time>
      </trkpt>
      <trkpt lat="49.40996" lon="3.70185">
        <ele>195.1</ele>
        <time>2016-03-07T15:28:03.449Z</time>
      </trkpt>
      <trkpt lat="49.41005" lon="3.70186">
        <ele>195</ele>
        <time>2016-03-07T15:28:09.492Z</time>
      </trkpt>
      <trkpt lat="49.41006" lon="3.70186">
        <ele>195</ele>
        <time>2016-03-07T15:28:10.484Z</time>
      </trkpt>
      <trkpt lat="49.41014" lon="3.70185">
        <ele>195.2</ele>
        <time>2016-03-07T15:28:18.513Z</time>
      </trkpt>
      <trkpt lat="49.41015" lon="3.70185">
        <ele>195.2</ele>
        <time>2016-03-07T15:28:19.481Z</time>
      </trkpt>
      <trkpt lat="49.41023" lon="3.70185">
        <ele>195.4</ele>
        <time>2016-03-07T15:28:24.463Z</time>
      </trkpt>
      <trkpt lat="49.41025" lon="3.70185">
        <ele>195.5</ele>
        <time>2016-03-07T15:28:25.444Z</time>
      </trkpt>
      <trkpt lat="49.41033" lon="3.70184">
        <ele>196.4</ele>
        <time>2016-03-07T15:28:30.406Z</time>
      </trkpt>
      <trkpt lat="49.41034" lon="3.70184">
        <ele>196.6</ele>
        <time>2016-03-07T15:28:31.445Z</time>
      </trkpt>
      <trkpt lat="49.41041" lon="3.70178">
        <ele>196.3</ele>
        <time>2016-03-07T15:28:37.453Z</time>
      </trkpt>
      <trkpt lat="49.41042" lon="3.70177">
        <ele>196.3</ele>
        <time>2016-03-07T15:28:38.453Z</time>
      </trkpt>
      <trkpt lat="49.41049" lon="3.7017">
        <ele>195.9</ele>
        <time>2016-03-07T15:28:44.400Z</time>
      </trkpt>
      <trkpt lat="49.4105" lon="3.70169">
        <ele>195.9</ele>
        <time>2016-03-07T15:28:45.391Z</time>
      </trkpt>
      <trkpt lat="49.41057" lon="3.70162">
        <ele>196.3</ele>
        <time>2016-03-07T15:28:52.380Z</time>
      </trkpt>
      <trkpt lat="49.41058" lon="3.70161">
        <ele>196.1</ele>
        <time>2016-03-07T15:28:53.378Z</time>
      </trkpt>
      <trkpt lat="49.41065" lon="3.70152">
        <ele>196</ele>
        <time>2016-03-07T15:29:00.474Z</time>
      </trkpt>
      <trkpt lat="49.41066" lon="3.70151">
        <ele>195.9</ele>
        <time>2016-03-07T15:29:01.462Z</time>
      </trkpt>
      <trkpt lat="49.41072" lon="3.70142">
        <ele>196</ele>
        <time>2016-03-07T15:29:09.468Z</time>
      </trkpt>
      <trkpt lat="49.41073" lon="3.7014">
        <ele>195.9</ele>
        <time>2016-03-07T15:29:10.363Z</time>
      </trkpt>
      <trkpt lat="49.41079" lon="3.70131">
        <ele>195.9</ele>
        <time>2016-03-07T15:29:18.477Z</time>
      </trkpt>
      <trkpt lat="49.4108" lon="3.7013">
        <ele>195.9</ele>
        <time>2016-03-07T15:29:19.468Z</time>
      </trkpt>
      <trkpt lat="49.41086" lon="3.70122">
        <ele>196.8</ele>
        <time>2016-03-07T15:29:26.392Z</time>
      </trkpt>
      <trkpt lat="49.41087" lon="3.70121">
        <ele>196.8</ele>
        <time>2016-03-07T15:29:27.370Z</time>
      </trkpt>
      <trkpt lat="49.41094" lon="3.70114">
        <ele>198.1</ele>
        <time>2016-03-07T15:29:34.449Z</time>
      </trkpt>
      <trkpt lat="49.41095" lon="3.70113">
        <ele>198.3</ele>
        <time>2016-03-07T15:29:35.442Z</time>
      </trkpt>
      <trkpt lat="49.41102" lon="3.70105">
        <ele>199.8</ele>
        <time>2016-03-07T15:29:43.472Z</time>
      </trkpt>
      <trkpt lat="49.41102" lon="3.70104">
        <ele>200.1</ele>
        <time>2016-03-07T15:29:44.381Z</time>
      </trkpt>
      <trkpt lat="49.41109" lon="3.70098">
        <ele>200.6</ele>
        <time>2016-03-07T15:29:52.390Z</time>
      </trkpt>
      <trkpt lat="49.41111" lon="3.70097">
        <ele>200.5</ele>
        <time>2016-03-07T15:29:53.404Z</time>
      </trkpt>
      <trkpt lat="49.41118" lon="3.70093">
        <ele>200.5</ele>
        <time>2016-03-07T15:30:00.394Z</time>
      </trkpt>
      <trkpt lat="49.41119" lon="3.70092">
        <ele>200.6</ele>
        <time>2016-03-07T15:30:01.490Z</time>
      </trkpt>
      <trkpt lat="49.41127" lon="3.70087">
        <ele>200.9</ele>
        <time>2016-03-07T15:30:08.488Z</time>
      </trkpt>
      <trkpt lat="49.41128" lon="3.70087">
        <ele>200.8</ele>
        <time>2016-03-07T15:30:09.474Z</time>
      </trkpt>
      <trkpt lat="49.41136" lon="3.70082">
        <ele>200.9</ele>
        <time>2016-03-07T15:30:15.500Z</time>
      </trkpt>
      <trkpt lat="49.41137" lon="3.70081">
        <ele>200.9</ele>
        <time>2016-03-07T15:30:16.474Z</time>
      </trkpt>
      <trkpt lat="49.41144" lon="3.70076">
        <ele>201.1</ele>
        <time>2016-03-07T15:30:22.436Z</time>
      </trkpt>
      <trkpt lat="49.41145" lon="3.70075">
        <ele>201.2</ele>
        <time>2016-03-07T15:30:23.411Z</time>
      </trkpt>
      <trkpt lat="49.41152" lon="3.70067">
        <ele>202</ele>
        <time>2016-03-07T15:30:30.427Z</time>
      </trkpt>
      <trkpt lat="49.41153" lon="3.70066">
        <ele>202.1</ele>
        <time>2016-03-07T15:30:31.447Z</time>
      </trkpt>
      <trkpt lat="49.41159" lon="3.70058">
        <ele>202.7</ele>
        <time>2016-03-07T15:30:37.495Z</time>
      </trkpt>
      <trkpt lat="49.4116" lon="3.70057">
        <ele>202.8</ele>
        <time>2016-03-07T15:30:38.399Z</time>
      </trkpt>
      <trkpt lat="49.41165" lon="3.70048">
        <ele>203.5</ele>
        <time>2016-03-07T15:30:44.583Z</time>
      </trkpt>
      <trkpt lat="49.41166" lon="3.70047">
        <ele>203.6</ele>
        <time>2016-03-07T15:30:45.395Z</time>
      </trkpt>
      <trkpt lat="49.41171" lon="3.70037">
        <ele>203.4</ele>
        <time>2016-03-07T15:30:51.501Z</time>
      </trkpt>
      <trkpt lat="49.41172" lon="3.70036">
        <ele>203.4</ele>
        <time>2016-03-07T15:30:52.482Z</time>
      </trkpt>
      <trkpt lat="49.41177" lon="3.70026">
        <ele>203.6</ele>
        <time>2016-03-07T15:30:58.404Z</time>
      </trkpt>
      <trkpt lat="49.41178" lon="3.70025">
        <ele>203.6</ele>
        <time>2016-03-07T15:30:59.406Z</time>
      </trkpt>
      <trkpt lat="49.41182" lon="3.70014">
        <ele>203.1</ele>
        <time>2016-03-07T15:31:05.410Z</time>
      </trkpt>
      <trkpt lat="49.41182" lon="3.70012">
        <ele>203.2</ele>
        <time>2016-03-07T15:31:06.387Z</time>
      </trkpt>
      <trkpt lat="49.41186" lon="3.70002">
        <ele>203.2</ele>
        <time>2016-03-07T15:31:12.406Z</time>
      </trkpt>
      <trkpt lat="49.41187" lon="3.7">
        <ele>203.1</ele>
        <time>2016-03-07T15:31:13.494Z</time>
      </trkpt>
      <trkpt lat="49.41191" lon="3.69989">
        <ele>203.1</ele>
        <time>2016-03-07T15:31:20.477Z</time>
      </trkpt>
      <trkpt lat="49.41192" lon="3.69987">
        <ele>203.1</ele>
        <time>2016-03-07T15:31:21.476Z</time>
      </trkpt>
      <trkpt lat="49.41196" lon="3.69976">
        <ele>203.2</ele>
        <time>2016-03-07T15:31:27.405Z</time>
      </trkpt>
      <trkpt lat="49.41197" lon="3.69975">
        <ele>203.3</ele>
        <time>2016-03-07T15:31:28.390Z</time>
      </trkpt>
      <trkpt lat="49.41202" lon="3.69966">
        <ele>203.6</ele>
        <time>2016-03-07T15:31:36.614Z</time>
      </trkpt>
      <trkpt lat="49.41202" lon="3.69964">
        <ele>203.7</ele>
        <time>2016-03-07T15:31:37.487Z</time>
      </trkpt>
      <trkpt lat="49.41206" lon="3.69952">
        <ele>204.3</ele>
        <time>2016-03-07T15:31:44.457Z</time>
      </trkpt>
      <trkpt lat="49.41206" lon="3.6995">
        <ele>204.3</ele>
        <time>2016-03-07T15:31:45.444Z</time>
      </trkpt>
      <trkpt lat="49.41209" lon="3.69939">
        <ele>204.6</ele>
        <time>2016-03-07T15:31:52.408Z</time>
      </trkpt>
      <trkpt lat="49.4121" lon="3.69937">
        <ele>204.6</ele>
        <time>2016-03-07T15:31:53.395Z</time>
      </trkpt>
      <trkpt lat="49.41213" lon="3.69925">
        <ele>204.7</ele>
        <time>2016-03-07T15:32:02.475Z</time>
      </trkpt>
      <trkpt lat="49.41213" lon="3.69924">
        <ele>204.8</ele>
        <time>2016-03-07T15:32:03.470Z</time>
      </trkpt>
      <trkpt lat="49.41216" lon="3.69913">
        <ele>205.3</ele>
        <time>2016-03-07T15:32:10.418Z</time>
      </trkpt>
      <trkpt lat="49.41217" lon="3.69911">
        <ele>205.3</ele>
        <time>2016-03-07T15:32:11.421Z</time>
      </trkpt>
      <trkpt lat="49.4122" lon="3.69899">
        <ele>206</ele>
        <time>2016-03-07T15:32:19.467Z</time>
      </trkpt>
      <trkpt lat="49.41221" lon="3.69897">
        <ele>206</ele>
        <time>2016-03-07T15:32:20.450Z</time>
      </trkpt>
      <trkpt lat="49.41226" lon="3.69886">
        <ele>206.5</ele>
        <time>2016-03-07T15:32:29.403Z</time>
      </trkpt>
      <trkpt lat="49.41227" lon="3.69886">
        <ele>206.6</ele>
        <time>2016-03-07T15:32:30.387Z</time>
      </trkpt>
      <trkpt lat="49.41235" lon="3.69883">
        <ele>207.5</ele>
        <time>2016-03-07T15:32:42.422Z</time>
      </trkpt>
      <trkpt lat="49.41236" lon="3.69883">
        <ele>207.6</ele>
        <time>2016-03-07T15:32:43.451Z</time>
      </trkpt>
      <trkpt lat="49.41244" lon="3.69887">
        <ele>209.4</ele>
        <time>2016-03-07T15:32:52.482Z</time>
      </trkpt>
      <trkpt lat="49.41245" lon="3.69887">
        <ele>209.5</ele>
        <time>2016-03-07T15:32:53.462Z</time>
      </trkpt>
      <trkpt lat="49.41254" lon="3.69892">
        <ele>210.8</ele>
        <time>2016-03-07T15:33:02.482Z</time>
      </trkpt>
      <trkpt lat="49.41255" lon="3.69892">
        <ele>210.9</ele>
        <time>2016-03-07T15:33:03.479Z</time>
      </trkpt>
      <trkpt lat="49.41263" lon="3.69896">
        <ele>212.5</ele>
        <time>2016-03-07T15:33:12.407Z</time>
      </trkpt>
      <trkpt lat="49.41264" lon="3.69897">
        <ele>212.7</ele>
        <time>2016-03-07T15:33:13.453Z</time>
      </trkpt>
      <trkpt lat="49.41273" lon="3.699">
        <ele>213</ele>
        <time>2016-03-07T15:33:21.495Z</time>
      </trkpt>
      <trkpt lat="49.41274" lon="3.69901">
        <ele>213</ele>
        <time>2016-03-07T15:33:22.473Z</time>
      </trkpt>
      <trkpt lat="49.41281" lon="3.69904">
        <ele>213.6</ele>
        <time>2016-03-07T15:33:30.411Z</time>
      </trkpt>
      <trkpt lat="49.41282" lon="3.69905">
        <ele>213.7</ele>
        <time>2016-03-07T15:33:31.444Z</time>
      </trkpt>
      <trkpt lat="49.4129" lon="3.69908">
        <ele>214</ele>
        <time>2016-03-07T15:33:41.479Z</time>
      </trkpt>
      <trkpt lat="49.41291" lon="3.69909">
        <ele>214.1</ele>
        <time>2016-03-07T15:33:42.472Z</time>
      </trkpt>
      <trkpt lat="49.413" lon="3.69912">
        <ele>216</ele>
        <time>2016-03-07T15:33:53.402Z</time>
      </trkpt>
      <trkpt lat="49.413" lon="3.69912">
        <ele>216.1</ele>
        <time>2016-03-07T15:33:54.403Z</time>
      </trkpt>
      <trkpt lat="49.41309" lon="3.69915">
        <ele>217.9</ele>
        <time>2016-03-07T15:34:06.408Z</time>
      </trkpt>
      <trkpt lat="49.4131" lon="3.69916">
        <ele>218</ele>
        <time>2016-03-07T15:34:07.455Z</time>
      </trkpt>
      <trkpt lat="49.41318" lon="3.69919">
        <ele>220.1</ele>
        <time>2016-03-07T15:34:17.400Z</time>
      </trkpt>
      <trkpt lat="49.41319" lon="3.69919">
        <ele>220.1</ele>
        <time>2016-03-07T15:34:18.400Z</time>
      </trkpt>
      <trkpt lat="49.41328" lon="3.69922">
        <ele>221.1</ele>
        <time>2016-03-07T15:34:26.461Z</time>
      </trkpt>
      <trkpt lat="49.41329" lon="3.69922">
        <ele>221</ele>
        <time>2016-03-07T15:34:27.464Z</time>
      </trkpt>
      <trkpt lat="49.41337" lon="3.69926">
        <ele>221.2</ele>
        <time>2016-03-07T15:34:35.492Z</time>
      </trkpt>
      <trkpt lat="49.41338" lon="3.69926">
        <ele>221.2</ele>
        <time>2016-03-07T15:34:36.481Z</time>
      </trkpt>
      <trkpt lat="49.41346" lon="3.69929">
        <ele>222.1</ele>
        <time>2016-03-07T15:34:47.407Z</time>
      </trkpt>
      <trkpt lat="49.41346" lon="3.6993">
        <ele>222.2</ele>
        <time>2016-03-07T15:34:48.398Z</time>
      </trkpt>
      <trkpt lat="49.41354" lon="3.69933">
        <ele>223.1</ele>
        <time>2016-03-07T15:34:58.416Z</time>
      </trkpt>
      <trkpt lat="49.41355" lon="3.69933">
        <ele>223.1</ele>
        <time>2016-03-07T15:34:59.409Z</time>
      </trkpt>
      <trkpt lat="49.41364" lon="3.69935">
        <ele>224.1</ele>
        <time>2016-03-07T15:35:09.414Z</time>
      </trkpt>
      <trkpt lat="49.41365" lon="3.69936">
        <ele>224.1</ele>
        <time>2016-03-07T15:35:10.406Z</time>
      </trkpt>
      <trkpt lat="49.41373" lon="3.69939">
        <ele>224.7</ele>
        <time>2016-03-07T15:35:18.454Z</time>
      </trkpt>
      <trkpt lat="49.41375" lon="3.69939">
        <ele>224.8</ele>
        <time>2016-03-07T15:35:19.459Z</time>
      </trkpt>
      <trkpt lat="49.41382" lon="3.69941">
        <ele>225.5</ele>
        <time>2016-03-07T15:35:26.476Z</time>
      </trkpt>
      <trkpt lat="49.41383" lon="3.69942">
        <ele>225.6</ele>
        <time>2016-03-07T15:35:27.476Z</time>
      </trkpt>
      <trkpt lat="49.41392" lon="3.69943">
        <ele>225.8</ele>
        <time>2016-03-07T15:35:35.412Z</time>
      </trkpt>
      <trkpt lat="49.41394" lon="3.69944">
        <ele>226</ele>
        <time>2016-03-07T15:35:36.408Z</time>
      </trkpt>
      <trkpt lat="49.41401" lon="3.69948">
        <ele>226.3</ele>
        <time>2016-03-07T15:35:42.410Z</time>
      </trkpt>
      <trkpt lat="49.41402" lon="3.69948">
        <ele>226.6</ele>
        <time>2016-03-07T15:35:43.460Z</time>
      </trkpt>
      <trkpt lat="49.4141" lon="3.69951">
        <ele>227.1</ele>
        <time>2016-03-07T15:35:49.484Z</time>
      </trkpt>
      <trkpt lat="49.41412" lon="3.69952">
        <ele>227.1</ele>
        <time>2016-03-07T15:35:50.461Z</time>
      </trkpt>
      <trkpt lat="49.41419" lon="3.69954">
        <ele>227.2</ele>
        <time>2016-03-07T15:35:56.497Z</time>
      </trkpt>
      <trkpt lat="49.4142" lon="3.69954">
        <ele>226.9</ele>
        <time>2016-03-07T15:35:57.481Z</time>
      </trkpt>
      <trkpt lat="49.41429" lon="3.69957">
        <ele>226.3</ele>
        <time>2016-03-07T15:36:04.535Z</time>
      </trkpt>
      <trkpt lat="49.4143" lon="3.69957">
        <ele>226.3</ele>
        <time>2016-03-07T15:36:05.399Z</time>
      </trkpt>
      <trkpt lat="49.41438" lon="3.6996">
        <ele>225.8</ele>
        <time>2016-03-07T15:36:12.410Z</time>
      </trkpt>
      <trkpt lat="49.41439" lon="3.69961">
        <ele>225.8</ele>
        <time>2016-03-07T15:36:13.507Z</time>
      </trkpt>
      <trkpt lat="49.41447" lon="3.69964">
        <ele>225.5</ele>
        <time>2016-03-07T15:36:20.474Z</time>
      </trkpt>
      <trkpt lat="49.41448" lon="3.69964">
        <ele>225.5</ele>
        <time>2016-03-07T15:36:21.471Z</time>
      </trkpt>
      <trkpt lat="49.41457" lon="3.69967">
        <ele>225.2</ele>
        <time>2016-03-07T15:36:28.478Z</time>
      </trkpt>
      <trkpt lat="49.41458" lon="3.69967">
        <ele>225.2</ele>
        <time>2016-03-07T15:36:29.463Z</time>
      </trkpt>
      <trkpt lat="49.41466" lon="3.6997">
        <ele>225.7</ele>
        <time>2016-03-07T15:36:36.440Z</time>
      </trkpt>
      <trkpt lat="49.41467" lon="3.69971">
        <ele>225.7</ele>
        <time>2016-03-07T15:36:37.446Z</time>
      </trkpt>
      <trkpt lat="49.41476" lon="3.69974">
        <ele>226.1</ele>
        <time>2016-03-07T15:36:44.416Z</time>
      </trkpt>
      <trkpt lat="49.41477" lon="3.69975">
        <ele>226.2</ele>
        <time>2016-03-07T15:36:45.402Z</time>
      </trkpt>
      <trkpt lat="49.41485" lon="3.69978">
        <ele>226.3</ele>
        <time>2016-03-07T15:36:51.476Z</time>
      </trkpt>
      <trkpt lat="49.41486" lon="3.69978">
        <ele>226.5</ele>
        <time>2016-03-07T15:36:52.465Z</time>
      </trkpt>
      <trkpt lat="49.41494" lon="3.69982">
        <ele>226.2</ele>
        <time>2016-03-07T15:36:59.463Z</time>
      </trkpt>
      <trkpt lat="49.41496" lon="3.69983">
        <ele>226.3</ele>
        <time>2016-03-07T15:37:00.438Z</time>
      </trkpt>
      <trkpt lat="49.41504" lon="3.69988">
        <ele>227</ele>
        <time>2016-03-07T15:37:08.491Z</time>
      </trkpt>
      <trkpt lat="49.41505" lon="3.69988">
        <ele>226.7</ele>
        <time>2016-03-07T15:37:09.403Z</time>
      </trkpt>
      <trkpt lat="49.41512" lon="3.69995">
        <ele>226.3</ele>
        <time>2016-03-07T15:37:17.414Z</time>
      </trkpt>
      <trkpt lat="49.41513" lon="3.69996">
        <ele>226.2</ele>
        <time>2016-03-07T15:37:18.402Z</time>
      </trkpt>
      <trkpt lat="49.4152" lon="3.7">
        <ele>226.3</ele>
        <time>2016-03-07T15:37:25.533Z</time>
      </trkpt>
      <trkpt lat="49.41522" lon="3.70001">
        <ele>226.4</ele>
        <time>2016-03-07T15:37:26.466Z</time>
      </trkpt>
      <trkpt lat="49.4153" lon="3.70006">
        <ele>227</ele>
        <time>2016-03-07T15:37:33.483Z</time>
      </trkpt>
      <trkpt lat="49.41531" lon="3.70007">
        <ele>227</ele>
        <time>2016-03-07T15:37:34.470Z</time>
      </trkpt>
      <trkpt lat="49.41539" lon="3.70013">
        <ele>226.9</ele>
        <time>2016-03-07T15:37:41.512Z</time>
      </trkpt>
      <trkpt lat="49.4154" lon="3.70014">
        <ele>226.9</ele>
        <time>2016-03-07T15:37:42.399Z</time>
      </trkpt>
      <trkpt lat="49.41548" lon="3.70019">
        <ele>227.4</ele>
        <time>2016-03-07T15:37:48.449Z</time>
      </trkpt>
      <trkpt lat="49.41549" lon="3.7002">
        <ele>227.6</ele>
        <time>2016-03-07T15:37:49.452Z</time>
      </trkpt>
      <trkpt lat="49.41557" lon="3.70027">
        <ele>227.4</ele>
        <time>2016-03-07T15:37:56.395Z</time>
      </trkpt>
      <trkpt lat="49.41558" lon="3.70028">
        <ele>227.4</ele>
        <time>2016-03-07T15:37:57.544Z</time>
      </trkpt>
      <trkpt lat="49.41565" lon="3.70033">
        <ele>228</ele>
        <time>2016-03-07T15:38:04.518Z</time>
      </trkpt>
      <trkpt lat="49.41566" lon="3.70034">
        <ele>228.1</ele>
        <time>2016-03-07T15:38:05.427Z</time>
      </trkpt>
      <trkpt lat="49.41573" lon="3.7004">
        <ele>228</ele>
        <time>2016-03-07T15:38:11.439Z</time>
      </trkpt>
      <trkpt lat="49.41574" lon="3.70041">
        <ele>228</ele>
        <time>2016-03-07T15:38:12.437Z</time>
      </trkpt>
      <trkpt lat="49.41581" lon="3.70046">
        <ele>228.3</ele>
        <time>2016-03-07T15:38:18.465Z</time>
      </trkpt>
      <trkpt lat="49.41583" lon="3.70047">
        <ele>228.3</ele>
        <time>2016-03-07T15:38:19.459Z</time>
      </trkpt>
      <trkpt lat="49.4159" lon="3.70053">
        <ele>228</ele>
        <time>2016-03-07T15:38:26.505Z</time>
      </trkpt>
      <trkpt lat="49.41591" lon="3.70054">
        <ele>228</ele>
        <time>2016-03-07T15:38:27.393Z</time>
      </trkpt>
      <trkpt lat="49.41599" lon="3.70061">
        <ele>228.3</ele>
        <time>2016-03-07T15:38:34.442Z</time>
      </trkpt>
      <trkpt lat="49.416" lon="3.70062">
        <ele>228.4</ele>
        <time>2016-03-07T15:38:35.428Z</time>
      </trkpt>
      <trkpt lat="49.41608" lon="3.70069">
        <ele>228.6</ele>
        <time>2016-03-07T15:38:41.431Z</time>
      </trkpt>
      <trkpt lat="49.41609" lon="3.7007">
        <ele>228.9</ele>
        <time>2016-03-07T15:38:42.402Z</time>
      </trkpt>
      <trkpt lat="49.41617" lon="3.70076">
        <ele>229.5</ele>
        <time>2016-03-07T15:38:48.413Z</time>
      </trkpt>
      <trkpt lat="49.41618" lon="3.70077">
        <ele>229.7</ele>
        <time>2016-03-07T15:38:49.455Z</time>
      </trkpt>
      <trkpt lat="49.41626" lon="3.70083">
        <ele>229</ele>
        <time>2016-03-07T15:38:56.466Z</time>
      </trkpt>
      <trkpt lat="49.41627" lon="3.70084">
        <ele>229.1</ele>
        <time>2016-03-07T15:38:57.468Z</time>
      </trkpt>
      <trkpt lat="49.41634" lon="3.70091">
        <ele>229</ele>
        <time>2016-03-07T15:39:04.414Z</time>
      </trkpt>
      <trkpt lat="49.41635" lon="3.70091">
        <ele>229</ele>
        <time>2016-03-07T15:39:05.406Z</time>
      </trkpt>
      <trkpt lat="49.41643" lon="3.70097">
        <ele>228.3</ele>
        <time>2016-03-07T15:39:13.530Z</time>
      </trkpt>
      <trkpt lat="49.41644" lon="3.70098">
        <ele>228.4</ele>
        <time>2016-03-07T15:39:14.405Z</time>
      </trkpt>
      <trkpt lat="49.41652" lon="3.70102">
        <ele>228.4</ele>
        <time>2016-03-07T15:39:21.490Z</time>
      </trkpt>
      <trkpt lat="49.41653" lon="3.70103">
        <ele>228.3</ele>
        <time>2016-03-07T15:39:22.472Z</time>
      </trkpt>
      <trkpt lat="49.41661" lon="3.70107">
        <ele>228.6</ele>
        <time>2016-03-07T15:39:29.667Z</time>
      </trkpt>
      <trkpt lat="49.41662" lon="3.70108">
        <ele>228.7</ele>
        <time>2016-03-07T15:39:30.471Z</time>
      </trkpt>
      <trkpt lat="49.41669" lon="3.70112">
        <ele>228.3</ele>
        <time>2016-03-07T15:39:37.477Z</time>
      </trkpt>
      <trkpt lat="49.41671" lon="3.70112">
        <ele>228.3</ele>
        <time>2016-03-07T15:39:38.470Z</time>
      </trkpt>
      <trkpt lat="49.41679" lon="3.70116">
        <ele>227.7</ele>
        <time>2016-03-07T15:39:44.490Z</time>
      </trkpt>
      <trkpt lat="49.4168" lon="3.70117">
        <ele>227.4</ele>
        <time>2016-03-07T15:39:45.477Z</time>
      </trkpt>
      <trkpt lat="49.41688" lon="3.70121">
        <ele>227.9</ele>
        <time>2016-03-07T15:39:52.518Z</time>
      </trkpt>
      <trkpt lat="49.4169" lon="3.70121">
        <ele>227.8</ele>
        <time>2016-03-07T15:39:53.401Z</time>
      </trkpt>
      <trkpt lat="49.41697" lon="3.70125">
        <ele>227.9</ele>
        <time>2016-03-07T15:40:00.428Z</time>
      </trkpt>
      <trkpt lat="49.41699" lon="3.70126">
        <ele>227.7</ele>
        <time>2016-03-07T15:40:01.478Z</time>
      </trkpt>
      <trkpt lat="49.41707" lon="3.7013">
        <ele>227.6</ele>
        <time>2016-03-07T15:40:08.502Z</time>
      </trkpt>
      <trkpt lat="49.41708" lon="3.70131">
        <ele>227.6</ele>
        <time>2016-03-07T15:40:09.480Z</time>
      </trkpt>
      <trkpt lat="49.41716" lon="3.70137">
        <ele>228.1</ele>
        <time>2016-03-07T15:40:16.488Z</time>
      </trkpt>
      <trkpt lat="49.41716" lon="3.70137">
        <ele>228.1</ele>
        <time>2016-03-07T15:40:17.480Z</time>
      </trkpt>
      <trkpt lat="49.41723" lon="3.70145">
        <ele>227.8</ele>
        <time>2016-03-07T15:40:27.502Z</time>
      </trkpt>
      <trkpt lat="49.41724" lon="3.70146">
        <ele>227.5</ele>
        <time>2016-03-07T15:40:28.482Z</time>
      </trkpt>
      <trkpt lat="49.41731" lon="3.70152">
        <ele>226.6</ele>
        <time>2016-03-07T15:40:35.440Z</time>
      </trkpt>
      <trkpt lat="49.41732" lon="3.70153">
        <ele>226.4</ele>
        <time>2016-03-07T15:40:36.440Z</time>
      </trkpt>
      <trkpt lat="49.4174" lon="3.70159">
        <ele>225.8</ele>
        <time>2016-03-07T15:40:45.499Z</time>
      </trkpt>
      <trkpt lat="49.4174" lon="3.70159">
        <ele>225.6</ele>
        <time>2016-03-07T15:40:46.402Z</time>
      </trkpt>
      <trkpt lat="49.41748" lon="3.70165">
        <ele>225.1</ele>
        <time>2016-03-07T15:40:54.453Z</time>
      </trkpt>
      <trkpt lat="49.41749" lon="3.70166">
        <ele>225</ele>
        <time>2016-03-07T15:40:55.461Z</time>
      </trkpt>
      <trkpt lat="49.41756" lon="3.70172">
        <ele>225</ele>
        <time>2016-03-07T15:41:03.499Z</time>
      </trkpt>
      <trkpt lat="49.41757" lon="3.70173">
        <ele>225.1</ele>
        <time>2016-03-07T15:41:04.492Z</time>
      </trkpt>
      <trkpt lat="49.41764" lon="3.70178">
        <ele>225.3</ele>
        <time>2016-03-07T15:41:11.422Z</time>
      </trkpt>
      <trkpt lat="49.41765" lon="3.70179">
        <ele>225.2</ele>
        <time>2016-03-07T15:41:12.399Z</time>
      </trkpt>
      <trkpt lat="49.41772" lon="3.70186">
        <ele>224.9</ele>
        <time>2016-03-07T15:41:20.477Z</time>
      </trkpt>
      <trkpt lat="49.41773" lon="3.70187">
        <ele>224.8</ele>
        <time>2016-03-07T15:41:21.462Z</time>
      </trkpt>
      <trkpt lat="49.41781" lon="3.70193">
        <ele>225.1</ele>
        <time>2016-03-07T15:41:27.450Z</time>
      </trkpt>
      <trkpt lat="49.41782" lon="3.70194">
        <ele>225</ele>
        <time>2016-03-07T15:41:28.701Z</time>
      </trkpt>
      <trkpt lat="49.41789" lon="3.702">
        <ele>225.1</ele>
        <time>2016-03-07T15:41:34.416Z</time>
      </trkpt>
      <trkpt lat="49.4179" lon="3.70201">
        <ele>225.2</ele>
        <time>2016-03-07T15:41:35.404Z</time>
      </trkpt>
      <trkpt lat="49.41792" lon="3.70203">
        <ele>225.1</ele>
        <time>2016-03-07T15:41:42.423Z</time>
      </trkpt>
      <trkpt lat="49.41793" lon="3.70203">
        <ele>225.2</ele>
        <time>2016-03-07T15:41:43.463Z</time>
      </trkpt>
      <trkpt lat="49.41793" lon="3.70202">
        <ele>225.6</ele>
        <time>2016-03-07T15:41:47.407Z</time>
      </trkpt>
      <trkpt lat="49.41793" lon="3.70203">
        <ele>225.8</ele>
        <time>2016-03-07T15:41:48.402Z</time>
      </trkpt>
      <trkpt lat="49.418" lon="3.7021">
        <ele>225.1</ele>
        <time>2016-03-07T15:41:55.488Z</time>
      </trkpt>
      <trkpt lat="49.41801" lon="3.70211">
        <ele>225.1</ele>
        <time>2016-03-07T15:41:56.475Z</time>
      </trkpt>
      <trkpt lat="49.41808" lon="3.70218">
        <ele>225.5</ele>
        <time>2016-03-07T15:42:02.555Z</time>
      </trkpt>
      <trkpt lat="49.41809" lon="3.70219">
        <ele>225.5</ele>
        <time>2016-03-07T15:42:03.405Z</time>
      </trkpt>
      <trkpt lat="49.41816" lon="3.70226">
        <ele>226</ele>
        <time>2016-03-07T15:42:09.493Z</time>
      </trkpt>
      <trkpt lat="49.41817" lon="3.70227">
        <ele>226.2</ele>
        <time>2016-03-07T15:42:10.485Z</time>
      </trkpt>
      <trkpt lat="49.41824" lon="3.70234">
        <ele>225.9</ele>
        <time>2016-03-07T15:42:16.411Z</time>
      </trkpt>
      <trkpt lat="49.41825" lon="3.70236">
        <ele>225.9</ele>
        <time>2016-03-07T15:42:17.399Z</time>
      </trkpt>
      <trkpt lat="49.41831" lon="3.70244">
        <ele>225.3</ele>
        <time>2016-03-07T15:42:23.505Z</time>
      </trkpt>
      <trkpt lat="49.41832" lon="3.70245">
        <ele>225.3</ele>
        <time>2016-03-07T15:42:24.495Z</time>
      </trkpt>
      <trkpt lat="49.41839" lon="3.70254">
        <ele>225.3</ele>
        <time>2016-03-07T15:42:31.544Z</time>
      </trkpt>
      <trkpt lat="49.4184" lon="3.70255">
        <ele>225.3</ele>
        <time>2016-03-07T15:42:32.435Z</time>
      </trkpt>
      <trkpt lat="49.41846" lon="3.70263">
        <ele>225.4</ele>
        <time>2016-03-07T15:42:38.410Z</time>
      </trkpt>
      <trkpt lat="49.41847" lon="3.70264">
        <ele>225.4</ele>
        <time>2016-03-07T15:42:39.413Z</time>
      </trkpt>
      <trkpt lat="49.41852" lon="3.70272">
        <ele>225.2</ele>
        <time>2016-03-07T15:42:45.471Z</time>
      </trkpt>
      <trkpt lat="49.41854" lon="3.70273">
        <ele>225.2</ele>
        <time>2016-03-07T15:42:46.646Z</time>
      </trkpt>
      <trkpt lat="49.4186" lon="3.70282">
        <ele>224.9</ele>
        <time>2016-03-07T15:42:52.500Z</time>
      </trkpt>
      <trkpt lat="49.41861" lon="3.70283">
        <ele>224.9</ele>
        <time>2016-03-07T15:42:53.491Z</time>
      </trkpt>
      <trkpt lat="49.41866" lon="3.70293">
        <ele>224.2</ele>
        <time>2016-03-07T15:42:59.413Z</time>
      </trkpt>
      <trkpt lat="49.41867" lon="3.70294">
        <ele>224.5</ele>
        <time>2016-03-07T15:43:00.423Z</time>
      </trkpt>
      <trkpt lat="49.41872" lon="3.70304">
        <ele>224</ele>
        <time>2016-03-07T15:43:06.646Z</time>
      </trkpt>
      <trkpt lat="49.41873" lon="3.70305">
        <ele>224</ele>
        <time>2016-03-07T15:43:07.457Z</time>
      </trkpt>
      <trkpt lat="49.41878" lon="3.70315">
        <ele>223.9</ele>
        <time>2016-03-07T15:43:14.410Z</time>
      </trkpt>
      <trkpt lat="49.41878" lon="3.70317">
        <ele>223.9</ele>
        <time>2016-03-07T15:43:15.413Z</time>
      </trkpt>
      <trkpt lat="49.41882" lon="3.70327">
        <ele>224.1</ele>
        <time>2016-03-07T15:43:22.527Z</time>
      </trkpt>
      <trkpt lat="49.41883" lon="3.70328">
        <ele>224.1</ele>
        <time>2016-03-07T15:43:23.397Z</time>
      </trkpt>
      <trkpt lat="49.41887" lon="3.70339">
        <ele>223.8</ele>
        <time>2016-03-07T15:43:30.412Z</time>
      </trkpt>
      <trkpt lat="49.41888" lon="3.70341">
        <ele>223.8</ele>
        <time>2016-03-07T15:43:31.464Z</time>
      </trkpt>
      <trkpt lat="49.41892" lon="3.70351">
        <ele>223.2</ele>
        <time>2016-03-07T15:43:37.543Z</time>
      </trkpt>
      <trkpt lat="49.41893" lon="3.70353">
        <ele>223.2</ele>
        <time>2016-03-07T15:43:38.422Z</time>
      </trkpt>
      <trkpt lat="49.41897" lon="3.70363">
        <ele>223.5</ele>
        <time>2016-03-07T15:43:44.486Z</time>
      </trkpt>
      <trkpt lat="49.41898" lon="3.70365">
        <ele>223.7</ele>
        <time>2016-03-07T15:43:45.477Z</time>
      </trkpt>
      <trkpt lat="49.41904" lon="3.70374">
        <ele>224.2</ele>
        <time>2016-03-07T15:43:51.500Z</time>
      </trkpt>
      <trkpt lat="49.41904" lon="3.70376">
        <ele>224.5</ele>
        <time>2016-03-07T15:43:52.476Z</time>
      </trkpt>
      <trkpt lat="49.4191" lon="3.70385">
        <ele>225.2</ele>
        <time>2016-03-07T15:43:58.452Z</time>
      </trkpt>
      <trkpt lat="49.41911" lon="3.70387">
        <ele>225.3</ele>
        <time>2016-03-07T15:43:59.440Z</time>
      </trkpt>
      <trkpt lat="49.41918" lon="3.70396">
        <ele>225.7</ele>
        <time>2016-03-07T15:44:06.450Z</time>
      </trkpt>
      <trkpt lat="49.41919" lon="3.70397">
        <ele>225.8</ele>
        <time>2016-03-07T15:44:07.463Z</time>
      </trkpt>
      <trkpt lat="49.41926" lon="3.70406">
        <ele>226</ele>
        <time>2016-03-07T15:44:14.727Z</time>
      </trkpt>
      <trkpt lat="49.41927" lon="3.70407">
        <ele>226.1</ele>
        <time>2016-03-07T15:44:15.479Z</time>
      </trkpt>
      <trkpt lat="49.41933" lon="3.70415">
        <ele>225.8</ele>
        <time>2016-03-07T15:44:21.497Z</time>
      </trkpt>
      <trkpt lat="49.41934" lon="3.70416">
        <ele>225.8</ele>
        <time>2016-03-07T15:44:22.475Z</time>
      </trkpt>
      <trkpt lat="49.4194" lon="3.70422">
        <ele>225.9</ele>
        <time>2016-03-07T15:44:28.423Z</time>
      </trkpt>
      <trkpt lat="49.41941" lon="3.70424">
        <ele>225.9</ele>
        <time>2016-03-07T15:44:29.414Z</time>
      </trkpt>
      <trkpt lat="49.41948" lon="3.70431">
        <ele>226</ele>
        <time>2016-03-07T15:44:36.421Z</time>
      </trkpt>
      <trkpt lat="49.41949" lon="3.70431">
        <ele>225.8</ele>
        <time>2016-03-07T15:44:37.461Z</time>
      </trkpt>
      <trkpt lat="49.41957" lon="3.70438">
        <ele>225.7</ele>
        <time>2016-03-07T15:44:44.496Z</time>
      </trkpt>
      <trkpt lat="49.41958" lon="3.70439">
        <ele>225.8</ele>
        <time>2016-03-07T15:44:45.395Z</time>
      </trkpt>
      <trkpt lat="49.41965" lon="3.70444">
        <ele>225.7</ele>
        <time>2016-03-07T15:44:52.498Z</time>
      </trkpt>
      <trkpt lat="49.41966" lon="3.70445">
        <ele>225.7</ele>
        <time>2016-03-07T15:44:53.488Z</time>
      </trkpt>
      <trkpt lat="49.41974" lon="3.7045">
        <ele>225.3</ele>
        <time>2016-03-07T15:45:00.447Z</time>
      </trkpt>
      <trkpt lat="49.41975" lon="3.70451">
        <ele>225.3</ele>
        <time>2016-03-07T15:45:01.474Z</time>
      </trkpt>
      <trkpt lat="49.41983" lon="3.70455">
        <ele>224.5</ele>
        <time>2016-03-07T15:45:08.482Z</time>
      </trkpt>
      <trkpt lat="49.41984" lon="3.70455">
        <ele>224.5</ele>
        <time>2016-03-07T15:45:09.464Z</time>
      </trkpt>
      <trkpt lat="49.41991" lon="3.70459">
        <ele>224.5</ele>
        <time>2016-03-07T15:45:15.424Z</time>
      </trkpt>
      <trkpt lat="49.41993" lon="3.7046">
        <ele>224.5</ele>
        <time>2016-03-07T15:45:16.419Z</time>
      </trkpt>
      <trkpt lat="49.42" lon="3.70464">
        <ele>224.3</ele>
        <time>2016-03-07T15:45:22.636Z</time>
      </trkpt>
      <trkpt lat="49.42001" lon="3.70464">
        <ele>224.3</ele>
        <time>2016-03-07T15:45:23.412Z</time>
      </trkpt>
      <trkpt lat="49.42009" lon="3.7047">
        <ele>224.3</ele>
        <time>2016-03-07T15:45:30.415Z</time>
      </trkpt>
      <trkpt lat="49.4201" lon="3.7047">
        <ele>224.2</ele>
        <time>2016-03-07T15:45:31.466Z</time>
      </trkpt>
      <trkpt lat="49.42018" lon="3.70476">
        <ele>224</ele>
        <time>2016-03-07T15:45:38.432Z</time>
      </trkpt>
      <trkpt lat="49.42019" lon="3.70477">
        <ele>224.2</ele>
        <time>2016-03-07T15:45:39.407Z</time>
      </trkpt>
      <trkpt lat="49.42027" lon="3.70483">
        <ele>224.5</ele>
        <time>2016-03-07T15:45:46.415Z</time>
      </trkpt>
      <trkpt lat="49.42028" lon="3.70484">
        <ele>224.4</ele>
        <time>2016-03-07T15:45:47.400Z</time>
      </trkpt>
      <trkpt lat="49.42035" lon="3.70492">
        <ele>223.4</ele>
        <time>2016-03-07T15:45:54.427Z</time>
      </trkpt>
      <trkpt lat="49.42036" lon="3.70493">
        <ele>223.1</ele>
        <time>2016-03-07T15:45:55.461Z</time>
      </trkpt>
      <trkpt lat="49.42042" lon="3.70501">
        <ele>222.5</ele>
        <time>2016-03-07T15:46:02.470Z</time>
      </trkpt>
      <trkpt lat="49.42043" lon="3.70502">
        <ele>222.4</ele>
        <time>2016-03-07T15:46:03.499Z</time>
      </trkpt>
      <trkpt lat="49.4205" lon="3.70511">
        <ele>221.9</ele>
        <time>2016-03-07T15:46:11.498Z</time>
      </trkpt>
      <trkpt lat="49.4205" lon="3.70512">
        <ele>221.8</ele>
        <time>2016-03-07T15:46:12.416Z</time>
      </trkpt>
      <trkpt lat="49.42056" lon="3.70521">
        <ele>221.8</ele>
        <time>2016-03-07T15:46:20.508Z</time>
      </trkpt>
      <trkpt lat="49.42057" lon="3.70522">
        <ele>221.9</ele>
        <time>2016-03-07T15:46:21.398Z</time>
      </trkpt>
      <trkpt lat="49.42063" lon="3.70531">
        <ele>222</ele>
        <time>2016-03-07T15:46:29.425Z</time>
      </trkpt>
      <trkpt lat="49.42064" lon="3.70532">
        <ele>222</ele>
        <time>2016-03-07T15:46:30.408Z</time>
      </trkpt>
      <trkpt lat="49.4207" lon="3.70542">
        <ele>222</ele>
        <time>2016-03-07T15:46:38.496Z</time>
      </trkpt>
      <trkpt lat="49.42071" lon="3.70543">
        <ele>221.8</ele>
        <time>2016-03-07T15:46:39.471Z</time>
      </trkpt>
      <trkpt lat="49.42077" lon="3.70553">
        <ele>222</ele>
        <time>2016-03-07T15:46:46.525Z</time>
      </trkpt>
      <trkpt lat="49.42078" lon="3.70554">
        <ele>222.2</ele>
        <time>2016-03-07T15:46:47.402Z</time>
      </trkpt>
      <trkpt lat="49.42083" lon="3.70564">
        <ele>221.9</ele>
        <time>2016-03-07T15:46:54.618Z</time>
      </trkpt>
      <trkpt lat="49.42084" lon="3.70565">
        <ele>221.9</ele>
        <time>2016-03-07T15:46:55.467Z</time>
      </trkpt>
      <trkpt lat="49.4209" lon="3.70575">
        <ele>222.1</ele>
        <time>2016-03-07T15:47:02.479Z</time>
      </trkpt>
      <trkpt lat="49.42091" lon="3.70576">
        <ele>221.9</ele>
        <time>2016-03-07T15:47:03.469Z</time>
      </trkpt>
      <trkpt lat="49.42097" lon="3.70585">
        <ele>221.6</ele>
        <time>2016-03-07T15:47:11.415Z</time>
      </trkpt>
      <trkpt lat="49.42097" lon="3.70586">
        <ele>221.5</ele>
        <time>2016-03-07T15:47:12.405Z</time>
      </trkpt>
      <trkpt lat="49.42104" lon="3.70595">
        <ele>221.8</ele>
        <time>2016-03-07T15:47:21.573Z</time>
      </trkpt>
      <trkpt lat="49.42104" lon="3.70595">
        <ele>221.9</ele>
        <time>2016-03-07T15:47:22.421Z</time>
      </trkpt>
      <trkpt lat="49.4211" lon="3.70604">
        <ele>221.3</ele>
        <time>2016-03-07T15:47:30.404Z</time>
      </trkpt>
      <trkpt lat="49.42111" lon="3.70605">
        <ele>221.2</ele>
        <time>2016-03-07T15:47:31.470Z</time>
      </trkpt>
      <trkpt lat="49.42117" lon="3.70615">
        <ele>221</ele>
        <time>2016-03-07T15:47:39.498Z</time>
      </trkpt>
      <trkpt lat="49.42117" lon="3.70616">
        <ele>220.8</ele>
        <time>2016-03-07T15:47:40.481Z</time>
      </trkpt>
      <trkpt lat="49.42122" lon="3.70626">
        <ele>220.4</ele>
        <time>2016-03-07T15:47:48.411Z</time>
      </trkpt>
      <trkpt lat="49.42123" lon="3.70627">
        <ele>220.3</ele>
        <time>2016-03-07T15:47:49.466Z</time>
      </trkpt>
      <trkpt lat="49.42129" lon="3.70636">
        <ele>220</ele>
        <time>2016-03-07T15:47:56.483Z</time>
      </trkpt>
      <trkpt lat="49.4213" lon="3.70638">
        <ele>220.1</ele>
        <time>2016-03-07T15:47:57.480Z</time>
      </trkpt>
      <trkpt lat="49.42136" lon="3.70646">
        <ele>220.9</ele>
        <time>2016-03-07T15:48:05.419Z</time>
      </trkpt>
      <trkpt lat="49.42137" lon="3.70647">
        <ele>220.7</ele>
        <time>2016-03-07T15:48:06.409Z</time>
      </trkpt>
      <trkpt lat="49.42143" lon="3.70656">
        <ele>220</ele>
        <time>2016-03-07T15:48:14.413Z</time>
      </trkpt>
      <trkpt lat="49.42143" lon="3.70657">
        <ele>219.9</ele>
        <time>2016-03-07T15:48:15.413Z</time>
      </trkpt>
      <trkpt lat="49.42148" lon="3.70667">
        <ele>218.9</ele>
        <time>2016-03-07T15:48:23.418Z</time>
      </trkpt>
      <trkpt lat="49.42149" lon="3.70668">
        <ele>219</ele>
        <time>2016-03-07T15:48:24.406Z</time>
      </trkpt>
      <trkpt lat="49.42153" lon="3.70679">
        <ele>218.5</ele>
        <time>2016-03-07T15:48:31.525Z</time>
      </trkpt>
      <trkpt lat="49.42154" lon="3.70681">
        <ele>218.6</ele>
        <time>2016-03-07T15:48:32.389Z</time>
      </trkpt>
      <trkpt lat="49.42158" lon="3.70693">
        <ele>218.7</ele>
        <time>2016-03-07T15:48:40.497Z</time>
      </trkpt>
      <trkpt lat="49.42159" lon="3.70695">
        <ele>218.8</ele>
        <time>2016-03-07T15:48:41.480Z</time>
      </trkpt>
      <trkpt lat="49.42162" lon="3.70707">
        <ele>219.1</ele>
        <time>2016-03-07T15:48:49.466Z</time>
      </trkpt>
      <trkpt lat="49.42162" lon="3.70709">
        <ele>219.1</ele>
        <time>2016-03-07T15:48:50.465Z</time>
      </trkpt>
      <trkpt lat="49.42164" lon="3.70722">
        <ele>218</ele>
        <time>2016-03-07T15:48:57.493Z</time>
      </trkpt>
      <trkpt lat="49.42164" lon="3.70724">
        <ele>217.9</ele>
        <time>2016-03-07T15:48:58.475Z</time>
      </trkpt>
      <trkpt lat="49.42165" lon="3.70737">
        <ele>217.7</ele>
        <time>2016-03-07T15:49:05.522Z</time>
      </trkpt>
      <trkpt lat="49.42165" lon="3.70739">
        <ele>217.6</ele>
        <time>2016-03-07T15:49:06.484Z</time>
      </trkpt>
      <trkpt lat="49.42166" lon="3.70752">
        <ele>217.4</ele>
        <time>2016-03-07T15:49:13.472Z</time>
      </trkpt>
      <trkpt lat="49.42166" lon="3.70754">
        <ele>217.4</ele>
        <time>2016-03-07T15:49:14.469Z</time>
      </trkpt>
      <trkpt lat="49.42167" lon="3.70767">
        <ele>217.5</ele>
        <time>2016-03-07T15:49:21.524Z</time>
      </trkpt>
      <trkpt lat="49.42167" lon="3.70768">
        <ele>217.5</ele>
        <time>2016-03-07T15:49:22.400Z</time>
      </trkpt>
      <trkpt lat="49.42168" lon="3.70781">
        <ele>218</ele>
        <time>2016-03-07T15:49:30.445Z</time>
      </trkpt>
      <trkpt lat="49.42168" lon="3.70783">
        <ele>217.9</ele>
        <time>2016-03-07T15:49:31.460Z</time>
      </trkpt>
      <trkpt lat="49.4217" lon="3.70795">
        <ele>218</ele>
        <time>2016-03-07T15:49:38.408Z</time>
      </trkpt>
      <trkpt lat="49.4217" lon="3.70797">
        <ele>218</ele>
        <time>2016-03-07T15:49:39.399Z</time>
      </trkpt>
      <trkpt lat="49.42172" lon="3.7081">
        <ele>218</ele>
        <time>2016-03-07T15:49:46.502Z</time>
      </trkpt>
      <trkpt lat="49.42173" lon="3.70812">
        <ele>218.1</ele>
        <time>2016-03-07T15:49:47.478Z</time>
      </trkpt>
      <trkpt lat="49.42175" lon="3.70824">
        <ele>217.7</ele>
        <time>2016-03-07T15:49:54.461Z</time>
      </trkpt>
      <trkpt lat="49.42176" lon="3.70826">
        <ele>217.6</ele>
        <time>2016-03-07T15:49:55.479Z</time>
      </trkpt>
      <trkpt lat="49.4218" lon="3.70836">
        <ele>217.9</ele>
        <time>2016-03-07T15:50:02.505Z</time>
      </trkpt>
      <trkpt lat="49.42181" lon="3.70838">
        <ele>217.9</ele>
        <time>2016-03-07T15:50:03.489Z</time>
      </trkpt>
      <trkpt lat="49.42186" lon="3.70848">
        <ele>216.8</ele>
        <time>2016-03-07T15:50:11.447Z</time>
      </trkpt>
      <trkpt lat="49.42187" lon="3.7085">
        <ele>216.5</ele>
        <time>2016-03-07T15:50:12.426Z</time>
      </trkpt>
      <trkpt lat="49.42191" lon="3.7086">
        <ele>215.9</ele>
        <time>2016-03-07T15:50:19.474Z</time>
      </trkpt>
      <trkpt lat="49.42192" lon="3.70861">
        <ele>215.9</ele>
        <time>2016-03-07T15:50:20.459Z</time>
      </trkpt>
      <trkpt lat="49.42197" lon="3.70872">
        <ele>216.8</ele>
        <time>2016-03-07T15:50:29.417Z</time>
      </trkpt>
      <trkpt lat="49.42197" lon="3.70874">
        <ele>216.8</ele>
        <time>2016-03-07T15:50:30.417Z</time>
      </trkpt>
      <trkpt lat="49.42203" lon="3.70883">
        <ele>216.9</ele>
        <time>2016-03-07T15:50:38.476Z</time>
      </trkpt>
      <trkpt lat="49.42204" lon="3.70885">
        <ele>216.8</ele>
        <time>2016-03-07T15:50:39.467Z</time>
      </trkpt>
      <trkpt lat="49.42209" lon="3.70895">
        <ele>216.9</ele>
        <time>2016-03-07T15:50:47.495Z</time>
      </trkpt>
      <trkpt lat="49.4221" lon="3.70896">
        <ele>217</ele>
        <time>2016-03-07T15:50:48.392Z</time>
      </trkpt>
      <trkpt lat="49.42218" lon="3.70901">
        <ele>218.1</ele>
        <time>2016-03-07T15:50:56.500Z</time>
      </trkpt>
      <trkpt lat="49.42219" lon="3.709">
        <ele>218.3</ele>
        <time>2016-03-07T15:50:57.471Z</time>
      </trkpt>
      <trkpt lat="49.42227" lon="3.70896">
        <ele>218.4</ele>
        <time>2016-03-07T15:51:05.432Z</time>
      </trkpt>
      <trkpt lat="49.42228" lon="3.70895">
        <ele>218.4</ele>
        <time>2016-03-07T15:51:06.405Z</time>
      </trkpt>
      <trkpt lat="49.42236" lon="3.70889">
        <ele>218.8</ele>
        <time>2016-03-07T15:51:13.472Z</time>
      </trkpt>
      <trkpt lat="49.42237" lon="3.70888">
        <ele>218.8</ele>
        <time>2016-03-07T15:51:14.460Z</time>
      </trkpt>
      <trkpt lat="49.42244" lon="3.70883">
        <ele>218.9</ele>
        <time>2016-03-07T15:51:21.478Z</time>
      </trkpt>
      <trkpt lat="49.42245" lon="3.70883">
        <ele>218.8</ele>
        <time>2016-03-07T15:51:22.466Z</time>
      </trkpt>
      <trkpt lat="49.42253" lon="3.70878">
        <ele>218.7</ele>
        <time>2016-03-07T15:51:29.434Z</time>
      </trkpt>
      <trkpt lat="49.42254" lon="3.70878">
        <ele>218.4</ele>
        <time>2016-03-07T15:51:30.425Z</time>
      </trkpt>
      <trkpt lat="49.42262" lon="3.70874">
        <ele>217.7</ele>
        <time>2016-03-07T15:51:37.464Z</time>
      </trkpt>
      <trkpt lat="49.42263" lon="3.70873">
        <ele>217.8</ele>
        <time>2016-03-07T15:51:38.465Z</time>
      </trkpt>
      <trkpt lat="49.42272" lon="3.70872">
        <ele>217.6</ele>
        <time>2016-03-07T15:51:46.505Z</time>
      </trkpt>
      <trkpt lat="49.42273" lon="3.70872">
        <ele>217.5</ele>
        <time>2016-03-07T15:51:47.478Z</time>
      </trkpt>
      <trkpt lat="49.42276" lon="3.70872">
        <ele>218.1</ele>
        <time>2016-03-07T15:51:51.417Z</time>
      </trkpt>
      <trkpt lat="49.42277" lon="3.70872">
        <ele>218.2</ele>
        <time>2016-03-07T15:51:52.405Z</time>
      </trkpt>
      <trkpt lat="49.42277" lon="3.70872">
        <ele>218.3</ele>
        <time>2016-03-07T15:51:55.453Z</time>
      </trkpt>
      <trkpt lat="49.42278" lon="3.70873">
        <ele>218.5</ele>
        <time>2016-03-07T15:51:56.456Z</time>
      </trkpt>
      <trkpt lat="49.42275" lon="3.7087">
        <ele>218</ele>
        <time>2016-03-07T15:52:17.481Z</time>
      </trkpt>
      <trkpt lat="49.42275" lon="3.7087">
        <ele>217.9</ele>
        <time>2016-03-07T15:52:18.464Z</time>
      </trkpt>
      <trkpt lat="49.42275" lon="3.7087">
        <ele>217.9</ele>
        <time>2016-03-07T15:52:18.483Z</time>
      </trkpt>
      <trkpt lat="49.42275" lon="3.70869">
        <ele>218</ele>
        <time>2016-03-07T15:52:19.470Z</time>
      </trkpt>
      <trkpt lat="49.42279" lon="3.70875">
        <ele>218</ele>
        <time>2016-03-07T15:52:33.063Z</time>
      </trkpt>
    </trkseg>
  </trk>
</gpx>